GFSNE_500_temp_000.txt.gz
Temp
-27 -28 -27 -27 -27 -27 -27 -27 -26 -25 -25 -25 -25 -25 -24 -24 -24 -24 -24 -23 -21 -20 -19 -18 -19 -18 -18 -18 -17 -17 -17 -17 -16 -16 -16 -16 -16 -16
-30 -30 -30 -30 -30 -30 -29 -28 -28 -28 -27 -27 -26 -26 -26 -26 -26 -25 -25 -25 -24 -24 -22 -21 -20 -19 -19 -18 -18 -18 -17 -17 -16 -16 -16 -16 -16 -16
-30 -30 -30 -30 -30 -30 -29 -29 -28 -28 -28 -28 -28 -27 -27 -27 -27 -26 -26 -25 -26 -25 -25 -24 -22 -20 -19 -19 -18 -18 -18 -18 -17 -17 -16 -16 -16 -16
-31 -31 -31 -31 -30 -30 -30 -29 -29 -29 -28 -28 -28 -28 -28 -28 -28 -28 -27 -27 -26 -26 -26 -25 -24 -24 -22 -21 -20 -19 -19 -19 -18 -18 -17 -16 -16 -16
-31 -31 -30 -30 -30 -30 -30 -30 -29 -29 -29 -28 -28 -28 -28 -28 -28 -27 -27 -27 -27 -27 -26 -26 -26 -25 -24 -23 -22 -21 -19 -19 -19 -19 -18 -17 -16 -17
-31 -31 -30 -30 -30 -30 -30 -29 -29 -29 -29 -29 -28 -28 -28 -28 -28 -27 -27 -27 -27 -26 -26 -26 -26 -26 -25 -25 -24 -23 -22 -20 -20 -20 -19 -19 -17 -17
-31 -30 -30 -30 -30 -30 -29 -29 -29 -29 -29 -28 -28 -28 -28 -28 -28 -27 -27 -27 -26 -26 -26 -26 -26 -26 -25 -25 -25 -25 -24 -24 -22 -22 -21 -20 -20 -18
-30 -30 -30 -30 -30 -30 -29 -29 -29 -29 -29 -29 -29 -29 -29 -28 -28 -28 -28 -27 -26 -26 -26 -26 -26 -26 -26 -26 -25 -25 -25 -25 -24 -24 -23 -22 -21 -20
-30 -30 -30 -30 -30 -29 -29 -29 -29 -29 -29 -29 -29 -29 -29 -29 -29 -29 -28 -28 -28 -27 -27 -27 -26 -26 -26 -26 -25 -25 -25 -25 -25 -24 -24 -23 -23 -22
-31 -31 -30 -30 -30 -29 -29 -29 -29 -29 -29 -29 -29 -29 -30 -30 -30 -30 -30 -29 -29 -30 -30 -30 -29 -27 -26 -26 -26 -25 -25 -25 -25 -25 -24 -24 -24 -23
-33 -32 -31 -30 -29 -29 -29 -29 -29 -29 -29 -29 -29 -29 -29 -30 -30 -29 -29 -29 -29 -29 -29 -29 -29 -29 -29 -28 -27 -26 -26 -25 -25 -25 -25 -25 -24 -24
-35 -34 -32 -30 -30 -29 -29 -29 -29 -29 -29 -29 -30 -30 -30 -30 -30 -30 -30 -30 -29 -29 -29 -29 -29 -29 -29 -29 -29 -28 -27 -26 -25 -25 -25 -25 -24 -24
-35 -34 -33 -31 -30 -30 -30 -29 -29 -29 -29 -29 -30 -30 -30 -30 -30 -30 -30 -31 -31 -31 -31 -29 -29 -29 -29 -29 -29 -30 -28 -27 -26 -25 -25 -25 -25 -25
-35 -34 -33 -32 -31 -30 -29 -29 -29 -29 -30 -30 -30 -30 -30 -30 -30 -30 -31 -31 -31 -31 -30 -30 -30 -29 -29 -29 -30 -29 -30 -28 -27 -26 -25 -25 -25 -25
-35 -34 -34 -32 -31 -30 -30 -29 -29 -30 -29 -29 -29 -29 -30 -30 -30 -31 -31 -31 -31 -31 -31 -30 -30 -29 -29 -30 -30 -30 -29 -30 -29 -27 -26 -25 -25 -25
-34 -34 -33 -32 -31 -30 -30 -29 -29 -29 -28 -28 -28 -29 -29 -30 -31 -31 -31 -31 -31 -31 -31 -31 -31 -31 -31 -30 -30 -30 -29 -30 -30 -29 -27 -26 -25 -25
-34 -33 -32 -32 -31 -30 -30 -30 -29 -29 -29 -29 -29 -29 -29 -29 -30 -31 -31 -31 -31 -31 -31 -31 -31 -31 -31 -31 -30 -30 -30 -29 -29 -30 -30 -28 -27 -26
-33 -33 -32 -32 -31 -30 -30 -30 -30 -29 -29 -29 -29 -29 -29 -29 -30 -30 -30 -31 -32 -32 -32 -32 -32 -32 -31 -31 -31 -31 -30 -30 -30 -30 -30 -30 -29 -27
-33 -33 -32 -32 -31 -31 -31 -30 -30 -30 -30 -29 -29 -29 -30 -30 -30 -30 -30 -30 -32 -33 -33 -33 -32 -32 -32 -32 -32 -31 -31 -30 -30 -30 -30 -30 -30 -30
-33 -32 -32 -32 -32 -31 -31 -31 -30 -30 -30 -30 -30 -30 -30 -30 -30 -30 -30 -30 -31 -33 -34 -34 -34 -33 -33 -32 -32 -32 -32 -31 -31 -30 -30 -30 -30 -30
-32 -32 -32 -32 -32 -31 -31 -31 -30 -30 -30 -30 -30 -30 -30 -30 -30 -30 -30 -30 -31 -31 -33 -34 -34 -34 -34 -33 -33 -32 -32 -32 -32 -31 -31 -30 -30 -30
-33 -32 -32 -32 -32 -31 -31 -31 -31 -31 -31 -31 -30 -30 -30 -30 -30 -30 -30 -31 -31 -31 -32 -32 -34 -34 -34 -34 -34 -33 -33 -33 -32 -32 -32 -31 -31 -30
-33 -32 -32 -32 -32 -32 -31 -31 -31 -31 -31 -31 -31 -31 -31 -31 -31 -31 -31 -31 -31 -31 -31 -32 -32 -33 -34 -34 -34 -34 -33 -34 -33 -32 -32 -32 -31 -31

GFSNE_500_temp_003.txt.gz
Temp
-28 -29 -29 -30 -30 -30 -30 -30 -29 -28 -27 -28 -28 -27 -26 -25 -24 -23 -23 -22 -22 -21 -21 -20 -20 -19 -19 -19 -19 -18 -18 -17 -17 -17 -16 -16 -16 -15
-30 -31 -31 -31 -30 -31 -30 -30 -30 -30 -30 -29 -29 -28 -28 -27 -27 -26 -26 -25 -23 -23 -22 -22 -21 -20 -20 -19 -19 -19 -18 -18 -18 -17 -17 -17 -16 -16
-31 -31 -31 -31 -31 -30 -30 -30 -30 -29 -29 -29 -29 -29 -29 -28 -28 -27 -26 -27 -26 -25 -24 -23 -22 -21 -20 -20 -19 -19 -19 -19 -18 -18 -18 -17 -17 -16
-31 -31 -31 -31 -31 -31 -31 -31 -30 -30 -30 -29 -29 -29 -29 -29 -28 -28 -28 -28 -27 -27 -26 -25 -25 -24 -23 -22 -21 -20 -19 -19 -19 -18 -18 -18 -17 -17
-31 -31 -31 -31 -31 -31 -30 -30 -30 -30 -30 -30 -29 -29 -29 -29 -29 -28 -28 -28 -27 -27 -27 -26 -26 -26 -25 -23 -22 -21 -20 -20 -19 -19 -18 -18 -18 -17
-31 -31 -31 -31 -31 -31 -31 -30 -30 -30 -30 -30 -29 -29 -29 -29 -29 -28 -28 -28 -28 -28 -27 -27 -26 -26 -26 -26 -25 -23 -21 -21 -20 -20 -19 -19 -19 -18
-31 -31 -31 -31 -30 -31 -30 -30 -30 -30 -30 -30 -29 -29 -29 -29 -29 -29 -28 -28 -28 -28 -28 -27 -27 -27 -26 -26 -26 -25 -24 -23 -22 -21 -21 -20 -20 -19
-32 -32 -31 -31 -30 -30 -30 -30 -30 -30 -30 -30 -29 -29 -29 -29 -29 -29 -29 -28 -28 -28 -27 -27 -27 -27 -27 -27 -26 -26 -25 -24 -23 -23 -22 -21 -20 -20
-34 -34 -33 -32 -31 -30 -30 -30 -30 -30 -29 -29 -29 -29 -29 -29 -29 -29 -28 -28 -28 -28 -28 -27 -27 -27 -27 -27 -26 -26 -26 -26 -26 -26 -25 -25 -24 -22
-35 -35 -35 -34 -33 -31 -30 -30 -30 -30 -30 -29 -29 -29 -29 -29 -29 -29 -29 -29 -29 -28 -28 -28 -28 -27 -27 -26 -26 -26 -26 -26 -26 -25 -25 -25 -25 -25
-35 -35 -35 -35 -34 -33 -31 -30 -29 -30 -29 -29 -29 -29 -29 -30 -30 -30 -30 -30 -30 -30 -30 -30 -30 -29 -29 -28 -27 -27 -26 -26 -26 -26 -25 -25 -25 -25
-36 -36 -35 -35 -34 -33 -31 -30 -30 -29 -29 -29 -29 -29 -30 -30 -30 -30 -30 -30 -30 -30 -30 -29 -29 -29 -29 -29 -29 -29 -28 -27 -26 -26 -25 -25 -25 -25
-36 -36 -35 -35 -34 -33 -31 -30 -30 -29 -29 -29 -29 -29 -29 -30 -30 -30 -30 -31 -31 -31 -31 -30 -29 -29 -29 -29 -29 -29 -29 -29 -29 -27 -26 -26 -25 -25
-36 -36 -35 -35 -34 -33 -31 -30 -30 -30 -29 -29 -29 -30 -30 -30 -30 -30 -31 -31 -31 -31 -31 -31 -30 -30 -30 -29 -29 -29 -29 -29 -29 -29 -28 -26 -26 -25
-35 -35 -35 -34 -33 -32 -32 -31 -30 -29 -29 -29 -29 -29 -29 -29 -30 -30 -31 -31 -31 -31 -31 -31 -31 -30 -30 -30 -30 -30 -29 -29 -29 -29 -29 -29 -27 -26
-34 -34 -34 -33 -32 -31 -31 -30 -30 -29 -29 -29 -29 -29 -29 -29 -29 -29 -30 -31 -31 -32 -32 -32 -31 -31 -31 -31 -30 -30 -30 -30 -29 -29 -30 -30 -29 -27
-34 -34 -33 -32 -32 -31 -31 -30 -30 -29 -29 -29 -29 -29 -29 -29 -29 -29 -30 -30 -31 -32 -32 -32 -32 -32 -31 -31 -31 -31 -31 -30 -30 -30 -30 -30 -30 -29
-33 -33 -33 -32 -32 -31 -31 -30 -30 -30 -30 -30 -29 -29 -29 -29 -29 -29 -29 -29 -30 -31 -32 -33 -33 -32 -32 -31 -31 -31 -31 -31 -31 -30 -30 -30 -31 -30
-33 -33 -32 -32 -32 -31 -31 -31 -30 -30 -30 -30 -30 -30 -29 -29 -29 -30 -30 -30 -30 -30 -32 -33 -33 -33 -33 -32 -32 -32 -32 -31 -31 -30 -30 -30 -30 -30
-33 -32 -32 -32 -32 -31 -31 -31 -31 -31 -30 -30 -30 -30 -30 -30 -30 -30 -30 -30 -30 -30 -31 -32 -33 -34 -33 -33 -33 -32 -32 -32 -31 -31 -30 -30 -30 -30
-33 -32 -32 -32 -32 -31 -31 -31 -31 -31 -31 -31 -30 -30 -30 -30 -30 -30 -30 -30 -30 -30 -31 -31 -32 -33 -34 -34 -33 -33 -33 -32 -32 -32 -31 -31 -31 -30
-33 -33 -32 -32 -32 -32 -31 -31 -31 -31 -31 -31 -31 -31 -31 -31 -31 -31 -31 -31 -31 -31 -31 -31 -31 -32 -33 -34 -34 -34 -34 -34 -33 -33 -32 -32 -31 -31
-33 -33 -33 -32 -32 -32 -32 -32 -32 -31 -31 -31 -31 -31 -31 -31 -31 -31 -31 -31 -31 -31 -31 -31 -31 -32 -32 -33 -33 -34 -34 -34 -34 -34 -33 -33 -33 -32

GFSNE_500_temp_006.txt.gz
Temp
-29 -29 -30 -30 -30 -30 -30 -31 -31 -31 -30 -30 -29 -28 -27 -27 -26 -25 -25 -25 -23 -24 -23 -22 -22 -22 -21 -20 -19 -19 -19 -18 -18 -17 -17 -17 -16 -16
-31 -31 -31 -31 -31 -31 -31 -32 -32 -31 -31 -30 -30 -29 -29 -27 -27 -27 -27 -26 -25 -24 -25 -23 -22 -23 -22 -21 -20 -19 -19 -19 -19 -18 -18 -18 -17 -17
-31 -31 -31 -31 -31 -31 -31 -31 -31 -31 -31 -30 -30 -30 -30 -29 -29 -28 -28 -28 -27 -26 -26 -25 -24 -23 -23 -22 -22 -21 -20 -20 -19 -19 -19 -18 -18 -17
-31 -31 -31 -31 -31 -31 -31 -31 -31 -31 -31 -30 -30 -30 -30 -30 -29 -29 -29 -29 -28 -27 -27 -27 -25 -25 -24 -24 -23 -22 -21 -21 -20 -19 -19 -19 -18 -18
-31 -31 -31 -31 -31 -31 -31 -31 -31 -31 -31 -30 -30 -30 -30 -30 -30 -29 -29 -29 -29 -29 -28 -27 -27 -26 -26 -25 -24 -23 -23 -22 -21 -20 -20 -19 -19 -19
-32 -32 -32 -32 -31 -31 -31 -31 -31 -31 -31 -30 -30 -30 -30 -30 -30 -30 -30 -29 -29 -29 -29 -28 -28 -28 -27 -27 -26 -25 -24 -24 -23 -22 -22 -21 -20 -19
-33 -33 -34 -34 -33 -32 -32 -31 -31 -31 -31 -30 -30 -30 -30 -30 -30 -30 -29 -29 -29 -29 -29 -29 -28 -28 -28 -27 -27 -27 -25 -24 -24 -23 -22 -21 -21 -20
-34 -34 -34 -35 -35 -34 -33 -33 -31 -31 -31 -30 -30 -30 -30 -30 -30 -30 -30 -30 -29 -29 -29 -29 -28 -28 -28 -28 -28 -27 -26 -25 -24 -23 -23 -22 -21 -21
-34 -34 -34 -34 -35 -35 -35 -34 -33 -32 -30 -30 -30 -30 -30 -30 -30 -29 -29 -29 -29 -29 -29 -29 -29 -28 -28 -28 -28 -27 -27 -26 -25 -24 -24 -23 -23 -23
-35 -35 -35 -35 -35 -35 -35 -34 -33 -32 -31 -30 -30 -30 -30 -30 -29 -29 -29 -29 -29 -29 -29 -29 -29 -29 -28 -28 -28 -27 -27 -27 -27 -26 -25 -25 -24 -24
-35 -36 -36 -36 -36 -35 -35 -35 -34 -32 -30 -30 -30 -30 -29 -29 -29 -29 -29 -29 -29 -29 -29 -29 -29 -29 -29 -28 -28 -28 -27 -27 -27 -27 -27 -27 -26 -25
-36 -36 -36 -36 -36 -36 -35 -34 -33 -32 -30 -30 -29 -29 -29 -30 -30 -30 -30 -30 -30 -30 -30 -30 -30 -30 -29 -29 -29 -29 -28 -28 -27 -27 -27 -27 -27 -26
-36 -36 -36 -36 -36 -35 -35 -34 -33 -31 -30 -30 -29 -29 -30 -30 -30 -30 -30 -30 -30 -30 -31 -30 -30 -30 -30 -30 -30 -30 -30 -30 -29 -28 -27 -26 -26 -26
-35 -35 -35 -36 -36 -35 -34 -33 -32 -31 -30 -30 -30 -30 -30 -30 -30 -30 -30 -30 -30 -31 -31 -31 -31 -31 -31 -30 -30 -30 -30 -30 -30 -29 -29 -28 -27 -26
-34 -34 -35 -35 -34 -34 -34 -32 -31 -30 -30 -30 -30 -30 -29 -29 -29 -29 -29 -30 -30 -31 -31 -31 -31 -31 -31 -31 -31 -31 -31 -30 -29 -29 -29 -29 -29 -28
-34 -34 -34 -33 -33 -33 -32 -32 -31 -30 -30 -29 -29 -29 -29 -29 -29 -29 -29 -29 -29 -30 -31 -32 -32 -32 -32 -31 -31 -31 -31 -31 -30 -30 -29 -29 -29 -29
-34 -34 -33 -33 -33 -32 -31 -31 -30 -30 -29 -29 -29 -29 -29 -29 -29 -29 -29 -28 -28 -29 -29 -31 -32 -33 -32 -32 -31 -32 -32 -31 -31 -30 -30 -29 -29 -29
-33 -33 -33 -33 -32 -32 -32 -31 -31 -30 -30 -30 -30 -29 -29 -29 -29 -29 -29 -29 -29 -29 -29 -30 -32 -33 -33 -33 -32 -32 -31 -31 -31 -30 -30 -30 -30 -30
-33 -33 -33 -32 -32 -32 -31 -31 -31 -31 -31 -30 -30 -30 -30 -30 -30 -30 -30 -29 -29 -29 -29 -30 -31 -33 -34 -33 -33 -32 -32 -32 -32 -31 -31 -31 -31 -30
-33 -33 -32 -32 -32 -32 -32 -31 -31 -31 -31 -31 -31 -30 -30 -30 -30 -30 -30 -30 -30 -30 -30 -30 -30 -31 -33 -33 -33 -33 -33 -32 -32 -32 -32 -32 -31 -31
-33 -33 -32 -32 -32 -32 -32 -32 -31 -31 -31 -31 -31 -31 -31 -31 -30 -30 -30 -30 -30 -30 -31 -31 -31 -31 -32 -33 -34 -34 -33 -33 -33 -33 -33 -32 -32 -31
-33 -33 -33 -33 -32 -32 -32 -32 -32 -32 -31 -31 -31 -31 -31 -31 -31 -31 -31 -31 -31 -31 -31 -31 -31 -31 -32 -32 -33 -34 -34 -34 -34 -33 -33 -33 -33 -32
-33 -33 -33 -33 -33 -33 -32 -32 -32 -32 -32 -32 -32 -31 -32 -32 -31 -31 -31 -31 -31 -31 -31 -31 -32 -32 -32 -32 -32 -32 -33 -34 -34 -34 -34 -34 -33 -33

GFSNE_500_temp_009.txt.gz
Temp
-28 -29 -29 -30 -30 -31 -31 -31 -31 -30 -30 -31 -31 -30 -30 -29 -28 -27 -26 -25 -24 -25 -24 -24 -24 -23 -23 -22 -20 -20 -19 -20 -18 -18 -17 -17 -17 -16
-31 -31 -31 -31 -31 -31 -31 -31 -31 -31 -31 -31 -32 -32 -31 -30 -30 -29 -29 -27 -25 -26 -25 -25 -24 -25 -25 -23 -21 -20 -20 -19 -20 -19 -18 -18 -18 -17
-31 -31 -31 -31 -31 -31 -32 -32 -31 -31 -31 -30 -31 -31 -31 -31 -30 -30 -30 -29 -28 -27 -27 -27 -26 -26 -25 -25 -23 -22 -21 -20 -20 -20 -20 -19 -18 -18
-32 -32 -32 -32 -31 -31 -31 -31 -31 -31 -31 -30 -31 -31 -32 -31 -31 -31 -30 -31 -30 -28 -28 -28 -28 -27 -26 -26 -25 -24 -23 -21 -20 -20 -20 -20 -19 -18
-32 -32 -32 -32 -32 -32 -32 -32 -32 -31 -31 -31 -30 -31 -31 -31 -31 -31 -30 -31 -30 -30 -29 -29 -29 -28 -28 -27 -27 -25 -24 -23 -22 -21 -20 -20 -20 -19
-33 -33 -33 -34 -34 -34 -33 -33 -33 -32 -32 -31 -31 -31 -31 -31 -31 -31 -30 -30 -30 -30 -30 -30 -29 -29 -28 -27 -27 -27 -26 -25 -24 -22 -21 -21 -20 -20
-33 -34 -34 -34 -34 -34 -33 -33 -34 -34 -33 -32 -31 -31 -31 -31 -31 -31 -30 -30 -30 -30 -29 -29 -29 -29 -28 -28 -28 -28 -28 -27 -26 -24 -23 -22 -21 -21
-33 -34 -34 -34 -34 -34 -34 -34 -34 -34 -34 -33 -31 -31 -31 -31 -31 -31 -30 -30 -30 -29 -29 -29 -29 -29 -29 -29 -28 -28 -28 -28 -27 -25 -24 -24 -23 -22
-34 -35 -35 -35 -35 -35 -35 -35 -35 -35 -34 -34 -32 -31 -31 -31 -30 -31 -30 -30 -30 -30 -30 -29 -29 -29 -29 -29 -29 -29 -28 -28 -28 -27 -26 -25 -24 -23
-35 -35 -36 -36 -36 -36 -36 -36 -36 -35 -35 -34 -32 -32 -30 -31 -30 -30 -30 -30 -30 -30 -30 -30 -30 -29 -30 -29 -29 -29 -29 -28 -28 -28 -27 -27 -25 -24
-35 -35 -36 -36 -37 -36 -36 -37 -36 -35 -35 -34 -32 -31 -30 -30 -30 -30 -30 -29 -29 -29 -29 -29 -30 -29 -29 -29 -29 -29 -29 -28 -29 -28 -28 -28 -27 -26
-35 -35 -35 -36 -36 -36 -36 -36 -36 -35 -35 -33 -31 -31 -30 -30 -30 -30 -30 -29 -30 -30 -30 -29 -29 -30 -30 -30 -29 -29 -29 -28 -28 -28 -28 -28 -28 -27
-34 -34 -35 -35 -36 -36 -36 -35 -35 -35 -34 -32 -31 -30 -30 -30 -30 -30 -30 -30 -30 -30 -30 -30 -30 -30 -30 -30 -30 -30 -29 -29 -28 -28 -27 -28 -28 -27
-34 -34 -34 -35 -35 -35 -35 -35 -34 -33 -32 -31 -30 -30 -30 -30 -30 -30 -30 -30 -30 -30 -30 -30 -31 -31 -31 -31 -31 -31 -31 -30 -30 -29 -28 -28 -27 -27
-34 -34 -34 -34 -34 -34 -34 -33 -33 -32 -31 -31 -30 -30 -30 -30 -30 -30 -30 -30 -30 -30 -30 -30 -31 -31 -31 -31 -31 -32 -31 -31 -30 -30 -30 -29 -29 -28
-34 -34 -34 -33 -33 -33 -33 -33 -32 -31 -31 -30 -30 -30 -30 -30 -29 -29 -29 -29 -28 -28 -29 -29 -30 -32 -32 -32 -32 -32 -32 -32 -32 -31 -30 -30 -30 -30
-33 -33 -33 -33 -33 -33 -32 -32 -31 -31 -31 -31 -30 -30 -30 -30 -29 -29 -29 -29 -28 -28 -28 -29 -29 -31 -32 -33 -33 -33 -32 -32 -31 -31 -31 -30 -30 -29
-33 -33 -33 -33 -33 -32 -32 -32 -32 -32 -31 -31 -30 -30 -30 -30 -30 -29 -29 -29 -29 -29 -29 -29 -29 -30 -31 -33 -33 -33 -33 -32 -32 -32 -31 -31 -31 -30
-33 -33 -33 -33 -32 -32 -32 -32 -31 -31 -31 -30 -30 -30 -30 -30 -30 -30 -30 -30 -29 -29 -29 -29 -29 -29 -30 -32 -33 -33 -33 -32 -32 -32 -32 -31 -31 -31
-33 -33 -33 -33 -32 -32 -32 -32 -31 -31 -31 -31 -31 -31 -30 -30 -30 -30 -30 -30 -30 -30 -30 -30 -30 -30 -31 -32 -33 -33 -33 -33 -33 -32 -32 -32 -32 -32
-33 -33 -33 -33 -33 -32 -32 -32 -32 -32 -31 -31 -31 -31 -31 -31 -31 -31 -31 -31 -31 -30 -30 -30 -30 -30 -31 -31 -32 -32 -33 -33 -33 -33 -33 -33 -32 -32
-33 -33 -33 -33 -33 -33 -33 -32 -32 -32 -32 -32 -31 -31 -31 -31 -31 -31 -31 -31 -31 -31 -31 -31 -31 -31 -31 -31 -31 -31 -32 -33 -33 -34 -34 -33 -33 -33
-34 -34 -33 -33 -33 -33 -33 -33 -33 -32 -32 -32 -32 -32 -32 -32 -32 -32 -32 -32 -31 -31 -31 -31 -31 -31 -31 -31 -31 -32 -32 -32 -33 -33 -34 -33 -34 -33

GFSNE_500_temp_012.txt.gz
Temp
-30 -30 -30 -31 -31 -31 -31 -31 -31 -31 -30 -31 -31 -31 -31 -30 -30 -28 -27 -26 -25 -24 -24 -25 -25 -24 -24 -23 -22 -21 -20 -20 -19 -18 -17 -16 -17 -17
-31 -31 -31 -32 -32 -32 -32 -32 -32 -32 -32 -31 -31 -31 -32 -31 -31 -31 -30 -29 -28 -27 -27 -26 -26 -25 -24 -23 -23 -23 -22 -21 -21 -19 -18 -18 -17 -17
-33 -33 -32 -32 -32 -32 -32 -32 -32 -32 -32 -31 -31 -31 -32 -32 -32 -32 -32 -31 -31 -29 -28 -28 -27 -25 -24 -24 -24 -24 -23 -22 -21 -21 -20 -19 -18 -18
-33 -32 -32 -32 -32 -32 -32 -32 -32 -32 -32 -32 -31 -31 -31 -32 -32 -32 -32 -31 -31 -31 -31 -30 -28 -26 -25 -25 -25 -25 -25 -24 -22 -21 -21 -21 -19 -19
-32 -32 -32 -32 -32 -33 -33 -33 -33 -33 -32 -32 -32 -32 -31 -31 -32 -32 -32 -31 -31 -31 -30 -30 -29 -28 -27 -26 -26 -25 -25 -25 -23 -22 -21 -21 -21 -20
-33 -33 -33 -33 -33 -33 -33 -33 -33 -33 -34 -33 -33 -32 -32 -31 -31 -32 -32 -31 -31 -31 -31 -30 -29 -28 -27 -27 -27 -26 -26 -26 -25 -23 -22 -21 -21 -21
-33 -33 -33 -34 -34 -34 -35 -34 -34 -33 -33 -33 -33 -33 -32 -32 -31 -31 -32 -31 -31 -31 -31 -31 -30 -30 -29 -29 -28 -28 -27 -26 -26 -25 -24 -23 -23 -22
-33 -34 -34 -34 -35 -35 -36 -36 -36 -35 -34 -34 -34 -34 -34 -33 -31 -31 -31 -32 -31 -31 -31 -31 -31 -30 -30 -30 -30 -29 -28 -28 -27 -26 -25 -24 -24 -23
-34 -34 -34 -34 -35 -35 -36 -36 -36 -36 -36 -35 -34 -34 -34 -34 -32 -31 -31 -31 -31 -31 -31 -31 -30 -30 -30 -30 -30 -30 -29 -28 -28 -27 -26 -26 -25 -24
-34 -34 -34 -34 -35 -35 -36 -37 -37 -37 -36 -36 -35 -34 -34 -34 -32 -31 -31 -31 -31 -31 -31 -30 -30 -30 -30 -30 -30 -29 -29 -29 -28 -28 -27 -27 -26 -26
-34 -34 -34 -35 -35 -36 -36 -36 -37 -37 -37 -36 -35 -35 -35 -33 -32 -31 -31 -31 -31 -31 -31 -30 -30 -30 -30 -30 -30 -29 -29 -29 -29 -29 -28 -28 -27 -27
-34 -34 -34 -35 -35 -35 -36 -36 -36 -36 -36 -36 -35 -35 -34 -32 -31 -30 -30 -30 -30 -30 -30 -30 -30 -30 -30 -30 -30 -29 -29 -29 -29 -29 -29 -29 -29 -28
-34 -34 -34 -34 -35 -35 -36 -36 -36 -35 -35 -35 -35 -34 -32 -31 -31 -30 -30 -30 -30 -30 -30 -29 -30 -30 -29 -30 -30 -30 -29 -29 -29 -29 -29 -29 -29 -29
-34 -34 -34 -34 -34 -34 -35 -35 -35 -34 -34 -34 -33 -32 -31 -31 -30 -30 -30 -30 -30 -30 -29 -29 -30 -30 -30 -30 -30 -30 -30 -30 -29 -29 -29 -29 -29 -29
-33 -33 -33 -34 -34 -34 -33 -34 -34 -33 -33 -32 -32 -31 -31 -30 -30 -30 -30 -30 -30 -30 -30 -30 -30 -30 -31 -31 -31 -31 -31 -31 -31 -30 -30 -29 -29 -29
-33 -33 -33 -33 -33 -33 -33 -33 -32 -32 -32 -32 -31 -31 -31 -30 -30 -30 -30 -30 -30 -30 -29 -29 -29 -29 -30 -30 -31 -31 -31 -32 -31 -31 -31 -30 -30 -29
-33 -33 -33 -33 -33 -33 -33 -33 -33 -32 -32 -31 -31 -31 -31 -31 -30 -30 -30 -29 -29 -28 -28 -28 -28 -29 -29 -30 -31 -32 -32 -32 -32 -32 -32 -31 -31 -30
-33 -33 -33 -33 -33 -33 -33 -33 -32 -32 -32 -32 -31 -31 -31 -31 -30 -30 -30 -29 -29 -29 -29 -29 -29 -29 -29 -29 -30 -32 -33 -33 -33 -32 -32 -32 -32 -31
-33 -33 -33 -33 -33 -32 -32 -33 -32 -32 -32 -31 -31 -31 -31 -31 -30 -30 -30 -30 -29 -29 -29 -29 -29 -29 -29 -30 -30 -32 -33 -33 -33 -32 -32 -32 -32 -31
-34 -33 -33 -33 -33 -33 -32 -32 -32 -32 -32 -31 -31 -31 -31 -31 -30 -30 -30 -30 -30 -30 -30 -30 -30 -30 -30 -30 -31 -31 -32 -33 -33 -33 -32 -32 -32 -32
-34 -34 -33 -33 -33 -33 -33 -32 -32 -32 -32 -32 -31 -31 -31 -31 -31 -31 -31 -31 -31 -30 -30 -31 -31 -31 -31 -31 -31 -31 -31 -32 -33 -33 -33 -33 -32 -32
-34 -34 -34 -34 -33 -33 -33 -33 -33 -32 -32 -32 -32 -31 -31 -31 -31 -31 -31 -31 -31 -31 -31 -31 -31 -31 -31 -31 -31 -31 -32 -32 -32 -32 -33 -33 -33 -33
-35 -34 -34 -34 -34 -33 -33 -33 -33 -33 -33 -32 -32 -32 -32 -32 -32 -32 -32 -31 -31 -31 -31 -31 -31 -31 -31 -31 -32 -31 -31 -32 -32 -32 -32 -33 -33 -33

GFSNE_500_temp_015.txt.gz
Temp
-32 -31 -31 -31 -32 -32 -33 -33 -32 -32 -32 -32 -31 -31 -31 -31 -30 -30 -28 -27 -26 -25 -24 -23 -24 -23 -23 -23 -23 -22 -22 -20 -19 -18 -18 -17 -16 -15
-32 -32 -32 -32 -33 -32 -33 -33 -32 -32 -32 -32 -32 -32 -32 -32 -32 -32 -31 -31 -30 -29 -27 -26 -25 -24 -23 -24 -24 -24 -23 -22 -21 -19 -18 -18 -17 -16
-32 -32 -32 -32 -32 -32 -32 -32 -32 -32 -32 -32 -32 -32 -32 -32 -32 -32 -32 -32 -31 -31 -30 -29 -28 -26 -25 -25 -25 -24 -23 -23 -22 -21 -20 -19 -19 -18
-32 -32 -32 -32 -32 -33 -33 -33 -33 -33 -33 -32 -32 -32 -32 -32 -31 -32 -32 -32 -32 -31 -32 -31 -30 -28 -27 -26 -26 -24 -24 -23 -23 -22 -22 -21 -20 -19
-32 -32 -32 -32 -33 -33 -33 -34 -34 -34 -34 -33 -33 -33 -32 -32 -32 -32 -31 -32 -32 -31 -32 -32 -31 -31 -29 -28 -26 -25 -25 -24 -23 -22 -22 -22 -22 -21
-33 -32 -32 -33 -33 -34 -34 -34 -34 -35 -35 -35 -34 -34 -33 -33 -33 -32 -31 -31 -32 -31 -31 -31 -30 -31 -30 -29 -28 -27 -26 -25 -25 -24 -23 -23 -22 -22
-33 -33 -33 -34 -34 -34 -34 -34 -35 -35 -35 -36 -36 -35 -34 -34 -34 -33 -32 -31 -31 -32 -31 -31 -31 -30 -30 -30 -29 -27 -26 -26 -25 -25 -24 -24 -23 -22
-32 -33 -34 -34 -34 -34 -34 -35 -35 -35 -35 -36 -36 -36 -35 -34 -34 -34 -33 -32 -32 -31 -31 -31 -31 -31 -30 -30 -30 -29 -28 -27 -26 -26 -25 -25 -24 -23
-33 -33 -34 -34 -34 -34 -35 -35 -36 -36 -36 -36 -37 -36 -36 -35 -34 -34 -33 -32 -32 -32 -31 -32 -31 -31 -31 -30 -30 -29 -29 -28 -27 -27 -27 -26 -25 -25
-33 -33 -34 -34 -34 -34 -35 -35 -36 -36 -37 -36 -37 -37 -36 -35 -34 -34 -33 -33 -32 -31 -31 -31 -31 -31 -31 -31 -30 -30 -29 -29 -29 -28 -27 -27 -26 -25
-34 -34 -34 -34 -34 -34 -35 -35 -36 -37 -37 -37 -37 -37 -37 -36 -35 -34 -34 -33 -32 -31 -31 -31 -31 -31 -31 -31 -31 -30 -30 -30 -30 -30 -30 -29 -27 -26
-34 -34 -34 -34 -34 -34 -34 -35 -36 -36 -36 -36 -37 -37 -36 -36 -35 -34 -34 -32 -31 -31 -31 -31 -31 -31 -31 -31 -31 -31 -31 -30 -30 -30 -30 -29 -29 -28
-34 -34 -34 -33 -34 -34 -34 -34 -35 -35 -35 -35 -36 -36 -35 -35 -35 -34 -33 -32 -31 -31 -31 -31 -31 -31 -31 -31 -31 -30 -30 -30 -30 -30 -30 -29 -29 -28
-33 -34 -33 -33 -33 -34 -34 -34 -34 -34 -34 -34 -35 -35 -34 -34 -33 -32 -32 -31 -31 -31 -31 -30 -31 -31 -30 -30 -30 -30 -30 -30 -30 -30 -30 -30 -30 -29
-33 -34 -33 -33 -33 -33 -33 -33 -33 -33 -33 -33 -33 -33 -32 -32 -32 -31 -31 -31 -31 -30 -30 -30 -30 -30 -30 -30 -30 -29 -29 -29 -29 -29 -29 -29 -29 -30
-34 -34 -34 -33 -33 -33 -33 -33 -33 -33 -32 -32 -32 -32 -32 -32 -31 -31 -31 -31 -30 -30 -30 -30 -30 -30 -30 -30 -30 -30 -30 -30 -30 -30 -30 -30 -30 -29
-34 -34 -34 -33 -33 -33 -33 -33 -33 -33 -33 -32 -32 -32 -32 -31 -31 -31 -31 -31 -31 -30 -30 -30 -30 -30 -29 -29 -29 -29 -30 -31 -31 -31 -31 -31 -31 -31
-34 -34 -34 -34 -33 -33 -33 -33 -33 -33 -32 -32 -32 -32 -32 -31 -31 -31 -31 -31 -30 -30 -30 -29 -29 -29 -29 -29 -29 -29 -30 -31 -32 -33 -33 -32 -32 -32
-34 -34 -34 -34 -34 -34 -33 -33 -33 -33 -32 -32 -32 -32 -32 -31 -31 -31 -31 -31 -30 -30 -30 -30 -29 -29 -29 -29 -29 -29 -30 -31 -32 -33 -33 -33 -32 -32
-34 -34 -34 -34 -34 -34 -33 -33 -33 -33 -33 -32 -32 -32 -32 -31 -31 -31 -31 -31 -31 -30 -30 -30 -30 -30 -30 -30 -30 -30 -30 -31 -32 -33 -33 -32 -32 -32
-35 -35 -34 -34 -34 -34 -34 -34 -33 -33 -33 -32 -32 -32 -32 -32 -31 -31 -31 -31 -31 -31 -31 -31 -30 -30 -30 -31 -31 -30 -31 -31 -31 -32 -33 -33 -33 -32
-35 -35 -35 -35 -34 -34 -34 -34 -34 -33 -33 -33 -32 -32 -32 -32 -32 -31 -31 -31 -31 -31 -31 -31 -31 -31 -31 -31 -31 -31 -31 -31 -31 -31 -32 -32 -32 -33
-35 -35 -35 -35 -35 -34 -34 -34 -34 -34 -33 -33 -33 -33 -32 -32 -32 -32 -32 -32 -32 -32 -31 -31 -31 -31 -31 -32 -31 -31 -31 -32 -31 -31 -32 -32 -32 -32

GFSNE_500_temp_021.txt.gz
Temp
-28 -30 -30 -32 -32 -32 -32 -32 -32 -30 -30 -31 -31 -32 -32 -32 -31 -31 -32 -32 -31 -31 -30 -28 -27 -26 -25 -24 -24 -23 -23 -22 -21 -20 -18 -17 -17 -16
-30 -31 -32 -32 -32 -32 -32 -32 -32 -31 -30 -31 -31 -31 -32 -32 -32 -31 -31 -32 -32 -32 -31 -30 -29 -28 -26 -25 -25 -24 -24 -23 -23 -21 -20 -19 -18 -17
-31 -32 -32 -32 -32 -33 -32 -32 -32 -32 -31 -32 -32 -32 -33 -32 -32 -32 -32 -32 -32 -32 -32 -32 -31 -30 -29 -27 -26 -25 -25 -24 -24 -23 -22 -21 -19 -18
-32 -32 -32 -32 -33 -32 -32 -32 -32 -33 -33 -33 -33 -33 -33 -34 -33 -33 -33 -33 -32 -32 -32 -32 -32 -32 -31 -29 -27 -26 -25 -25 -25 -24 -24 -23 -21 -19
-32 -32 -33 -33 -32 -32 -32 -32 -33 -33 -33 -33 -34 -34 -34 -34 -34 -34 -34 -34 -33 -33 -32 -32 -32 -32 -32 -31 -30 -28 -26 -25 -25 -25 -25 -24 -23 -21
-32 -32 -32 -32 -32 -32 -32 -33 -33 -33 -34 -34 -34 -34 -34 -35 -35 -35 -34 -34 -35 -34 -33 -32 -32 -32 -32 -32 -31 -30 -28 -26 -25 -25 -25 -25 -25 -23
-33 -33 -33 -33 -32 -33 -33 -33 -33 -33 -34 -34 -34 -35 -35 -36 -36 -36 -35 -35 -35 -35 -34 -33 -32 -32 -32 -32 -32 -31 -31 -28 -26 -25 -25 -25 -25 -24
-33 -33 -33 -32 -32 -33 -33 -33 -33 -33 -34 -34 -35 -35 -36 -37 -36 -36 -36 -36 -36 -35 -35 -34 -33 -32 -32 -32 -32 -32 -31 -31 -28 -26 -26 -25 -25 -25
-33 -33 -33 -32 -32 -33 -33 -33 -33 -34 -34 -34 -35 -35 -36 -37 -37 -37 -37 -37 -36 -36 -35 -34 -33 -32 -32 -32 -32 -32 -32 -31 -31 -29 -27 -26 -26 -25
-33 -33 -33 -32 -33 -33 -33 -33 -33 -33 -34 -34 -34 -35 -36 -36 -37 -37 -37 -37 -37 -37 -36 -35 -33 -33 -32 -32 -32 -32 -32 -32 -32 -31 -30 -28 -28 -26
-33 -33 -33 -33 -33 -33 -33 -33 -33 -33 -34 -34 -34 -35 -36 -37 -37 -37 -37 -37 -37 -36 -35 -34 -34 -33 -32 -32 -32 -32 -33 -32 -32 -31 -30 -30 -29 -28
-33 -33 -33 -33 -33 -33 -33 -33 -33 -33 -33 -33 -34 -35 -36 -36 -37 -37 -37 -37 -36 -35 -35 -34 -34 -33 -32 -32 -32 -32 -33 -32 -32 -31 -31 -31 -30 -29
-33 -33 -33 -33 -33 -33 -33 -33 -33 -33 -33 -33 -33 -34 -35 -36 -36 -37 -37 -36 -36 -35 -34 -34 -34 -33 -32 -32 -32 -32 -32 -32 -32 -31 -31 -31 -31 -30
-33 -33 -33 -33 -33 -33 -33 -33 -33 -33 -33 -33 -33 -33 -34 -35 -35 -36 -36 -35 -35 -34 -34 -34 -34 -33 -32 -31 -32 -32 -32 -32 -32 -31 -31 -31 -31 -30
-33 -33 -33 -33 -33 -34 -34 -34 -33 -33 -33 -33 -33 -33 -33 -34 -34 -35 -35 -35 -35 -34 -34 -34 -33 -32 -31 -31 -31 -31 -32 -32 -31 -32 -31 -31 -31 -30
-33 -33 -33 -33 -34 -34 -34 -34 -33 -33 -33 -33 -33 -34 -33 -33 -33 -34 -34 -34 -34 -33 -33 -33 -32 -32 -31 -31 -31 -31 -31 -32 -32 -31 -31 -31 -31 -31
-34 -34 -34 -34 -34 -34 -34 -34 -34 -33 -33 -33 -33 -33 -34 -33 -33 -33 -33 -33 -33 -32 -32 -32 -32 -31 -31 -31 -31 -31 -31 -31 -31 -31 -31 -31 -31 -31
-34 -34 -34 -34 -34 -35 -34 -34 -34 -34 -33 -33 -33 -33 -33 -34 -34 -33 -33 -33 -32 -32 -32 -31 -31 -31 -31 -31 -31 -31 -31 -31 -31 -31 -31 -31 -31 -31
-35 -35 -35 -35 -35 -35 -35 -34 -34 -34 -34 -33 -33 -33 -33 -33 -33 -33 -33 -33 -33 -32 -32 -31 -31 -31 -31 -31 -31 -31 -31 -31 -31 -31 -30 -30 -30 -30
-35 -35 -35 -35 -35 -35 -35 -35 -34 -34 -34 -34 -33 -33 -33 -33 -33 -33 -33 -33 -33 -32 -32 -32 -32 -31 -31 -31 -31 -31 -31 -30 -31 -31 -31 -31 -31 -31
-36 -36 -36 -36 -36 -36 -35 -35 -35 -34 -34 -34 -34 -33 -33 -33 -33 -33 -33 -32 -32 -32 -32 -31 -31 -31 -31 -31 -31 -30 -30 -30 -30 -30 -30 -31 -31 -31
-36 -36 -36 -36 -36 -36 -36 -36 -35 -35 -35 -34 -34 -34 -34 -33 -33 -33 -33 -32 -32 -32 -32 -32 -32 -31 -31 -31 -31 -31 -31 -30 -30 -30 -30 -30 -31 -31
-36 -36 -36 -37 -37 -37 -37 -36 -36 -36 -35 -35 -34 -34 -34 -34 -33 -33 -33 -32 -32 -32 -32 -32 -32 -32 -32 -31 -31 -31 -31 -31 -31 -31 -31 -31 -31 -31

GFSNE_500_temp_024.txt.gz
Temp
-26 -28 -29 -31 -31 -31 -31 -31 -31 -30 -30 -30 -31 -31 -31 -31 -31 -31 -30 -30 -31 -31 -31 -30 -29 -27 -26 -25 -24 -23 -23 -22 -20 -19 -18 -17 -16 -16
-29 -30 -31 -32 -32 -32 -32 -32 -32 -31 -30 -31 -31 -31 -31 -31 -31 -31 -31 -31 -30 -31 -31 -31 -31 -30 -28 -27 -25 -25 -24 -23 -22 -21 -19 -18 -17 -17
-30 -31 -32 -32 -32 -32 -32 -32 -32 -32 -31 -32 -32 -32 -32 -33 -33 -33 -33 -33 -32 -31 -31 -31 -31 -31 -30 -29 -28 -26 -25 -24 -24 -22 -21 -20 -19 -18
-31 -32 -32 -32 -32 -32 -32 -32 -32 -32 -32 -32 -33 -33 -33 -33 -33 -33 -33 -33 -33 -33 -32 -32 -32 -32 -32 -31 -30 -29 -28 -26 -25 -24 -22 -21 -21 -19
-32 -32 -32 -32 -32 -32 -32 -32 -32 -32 -32 -33 -33 -33 -33 -33 -33 -33 -33 -33 -34 -34 -34 -33 -32 -32 -32 -32 -31 -30 -29 -28 -26 -25 -24 -23 -22 -22
-32 -32 -32 -32 -32 -32 -32 -32 -32 -33 -33 -33 -33 -33 -33 -33 -33 -34 -34 -34 -34 -34 -34 -34 -33 -32 -32 -32 -32 -32 -31 -29 -28 -26 -25 -24 -23 -23
-32 -32 -33 -33 -33 -33 -32 -32 -33 -33 -33 -33 -33 -33 -33 -33 -34 -34 -35 -35 -36 -35 -35 -34 -34 -33 -32 -32 -32 -32 -31 -31 -29 -28 -26 -25 -24 -23
-33 -33 -33 -33 -33 -32 -32 -33 -33 -33 -33 -33 -33 -33 -33 -33 -34 -35 -35 -36 -36 -36 -36 -35 -35 -34 -33 -32 -32 -32 -32 -32 -31 -29 -28 -26 -26 -25
-33 -33 -33 -33 -33 -32 -32 -33 -33 -33 -33 -33 -33 -33 -33 -34 -35 -36 -36 -37 -37 -37 -36 -36 -35 -35 -34 -32 -32 -32 -32 -32 -32 -31 -29 -27 -27 -27
-33 -33 -33 -33 -33 -32 -33 -33 -33 -33 -33 -33 -33 -33 -33 -34 -35 -36 -37 -37 -37 -37 -37 -36 -36 -35 -34 -33 -32 -32 -32 -32 -32 -32 -30 -29 -28 -26
-33 -33 -33 -33 -33 -32 -33 -33 -33 -33 -33 -33 -33 -33 -33 -34 -35 -37 -37 -37 -38 -37 -37 -36 -36 -35 -35 -33 -33 -32 -32 -32 -32 -32 -32 -30 -30 -29
-34 -33 -33 -33 -33 -33 -33 -33 -33 -33 -33 -33 -33 -33 -34 -34 -35 -37 -37 -37 -37 -37 -37 -37 -36 -35 -35 -34 -33 -32 -32 -32 -32 -32 -32 -32 -30 -30
-34 -33 -33 -33 -33 -33 -33 -33 -33 -33 -33 -33 -33 -33 -34 -34 -35 -36 -36 -37 -37 -37 -36 -36 -36 -35 -34 -34 -33 -32 -32 -32 -33 -32 -32 -32 -31 -31
-34 -33 -33 -33 -33 -33 -33 -33 -34 -34 -33 -33 -33 -33 -34 -34 -35 -35 -36 -36 -36 -36 -36 -35 -35 -34 -34 -34 -33 -32 -32 -32 -33 -32 -32 -32 -31 -31
-34 -33 -33 -33 -33 -33 -34 -34 -34 -34 -34 -33 -33 -33 -34 -34 -35 -35 -35 -35 -35 -35 -35 -34 -34 -34 -34 -33 -33 -32 -32 -32 -33 -32 -32 -32 -31 -31
-34 -34 -34 -34 -34 -34 -34 -34 -34 -34 -34 -33 -33 -33 -34 -34 -34 -35 -35 -35 -35 -35 -35 -34 -34 -34 -34 -33 -32 -32 -32 -32 -32 -32 -32 -32 -31 -31
-34 -34 -34 -34 -34 -34 -34 -34 -34 -34 -34 -34 -33 -33 -34 -34 -34 -34 -34 -34 -34 -35 -34 -34 -34 -33 -33 -32 -32 -32 -32 -32 -32 -32 -32 -32 -31 -31
-35 -35 -35 -35 -34 -34 -34 -34 -34 -34 -34 -34 -34 -34 -33 -34 -34 -34 -34 -34 -34 -34 -33 -33 -33 -32 -32 -32 -31 -32 -32 -32 -32 -32 -32 -32 -32 -31
-35 -35 -35 -35 -35 -35 -35 -35 -35 -34 -34 -34 -34 -34 -33 -33 -34 -34 -34 -34 -34 -33 -33 -32 -32 -32 -32 -31 -31 -31 -32 -32 -32 -31 -31 -32 -32 -31
-35 -35 -35 -35 -36 -36 -36 -35 -35 -35 -34 -34 -34 -34 -34 -33 -33 -33 -34 -34 -33 -33 -33 -32 -32 -32 -32 -31 -31 -31 -31 -31 -31 -31 -31 -31 -31 -31
-35 -35 -36 -36 -36 -36 -36 -36 -36 -35 -35 -35 -34 -34 -34 -34 -33 -33 -33 -34 -34 -33 -33 -33 -32 -32 -32 -32 -32 -32 -32 -32 -31 -31 -31 -31 -31 -31
-35 -36 -36 -36 -36 -36 -36 -37 -36 -36 -36 -35 -35 -35 -34 -34 -34 -33 -33 -33 -33 -33 -33 -33 -33 -32 -32 -32 -32 -32 -32 -31 -31 -31 -31 -31 -31 -32
-35 -36 -36 -36 -36 -36 -36 -37 -37 -37 -37 -36 -36 -35 -35 -34 -34 -34 -34 -33 -33 -33 -33 -33 -32 -32 -32 -32 -32 -32 -31 -31 -31 -31 -31 -31 -31 -31

GFSNE_500_temp_030.txt.gz
Temp
-22 -22 -23 -24 -24 -26 -28 -29 -30 -30 -30 -31 -31 -32 -31 -31 -31 -31 -30 -30 -30 -30 -30 -30 -29 -29 -29 -28 -28 -27 -26 -25 -23 -21 -20 -20 -17 -17
-23 -23 -24 -24 -26 -28 -30 -31 -31 -32 -30 -32 -31 -32 -31 -31 -31 -31 -31 -31 -31 -31 -31 -31 -30 -30 -30 -29 -28 -28 -28 -28 -26 -24 -22 -21 -20 -18
-24 -24 -24 -25 -28 -30 -31 -32 -32 -32 -32 -31 -32 -32 -32 -31 -31 -31 -31 -32 -32 -32 -32 -32 -32 -31 -31 -30 -30 -29 -29 -29 -29 -27 -25 -22 -21 -21
-24 -24 -25 -28 -29 -31 -32 -32 -32 -33 -32 -32 -32 -32 -32 -32 -32 -32 -32 -32 -32 -32 -32 -32 -32 -31 -31 -31 -31 -30 -29 -30 -29 -29 -28 -24 -23 -22
-24 -25 -26 -28 -31 -32 -32 -32 -33 -33 -32 -32 -32 -32 -32 -32 -32 -33 -32 -32 -32 -32 -32 -31 -31 -30 -30 -31 -31 -31 -31 -30 -30 -29 -29 -28 -25 -24
-25 -26 -28 -29 -31 -32 -32 -33 -33 -32 -32 -32 -32 -32 -32 -32 -33 -33 -32 -33 -32 -32 -31 -31 -30 -30 -30 -31 -31 -32 -32 -31 -31 -30 -30 -29 -27 -26
-26 -28 -30 -31 -31 -33 -33 -33 -33 -32 -32 -32 -32 -32 -32 -33 -33 -33 -33 -32 -32 -31 -31 -31 -31 -32 -33 -33 -33 -32 -32 -32 -31 -31 -30 -29 -29 -27
-28 -30 -31 -32 -32 -33 -32 -33 -33 -32 -32 -32 -32 -32 -33 -33 -33 -33 -32 -32 -32 -33 -31 -33 -33 -34 -35 -36 -35 -34 -33 -33 -32 -31 -30 -30 -30 -29
-30 -31 -32 -32 -33 -33 -33 -32 -32 -32 -32 -32 -33 -33 -33 -34 -33 -33 -33 -32 -33 -33 -34 -35 -35 -36 -37 -37 -35 -35 -34 -33 -33 -32 -31 -30 -30 -30
-31 -32 -32 -33 -33 -33 -33 -33 -32 -32 -32 -33 -33 -33 -34 -33 -33 -33 -33 -33 -34 -35 -35 -36 -37 -37 -37 -37 -37 -36 -35 -34 -34 -33 -33 -32 -32 -31
-32 -32 -33 -33 -33 -33 -33 -33 -33 -33 -33 -33 -33 -34 -34 -33 -33 -33 -33 -34 -35 -36 -36 -37 -37 -37 -37 -37 -37 -36 -36 -35 -34 -33 -33 -32 -32 -31
-32 -33 -33 -34 -34 -34 -33 -33 -33 -33 -33 -34 -34 -34 -34 -33 -33 -33 -34 -34 -35 -36 -36 -37 -37 -37 -37 -37 -37 -36 -36 -35 -34 -34 -33 -32 -32 -32
-33 -33 -34 -34 -34 -34 -34 -33 -33 -33 -33 -34 -34 -34 -34 -34 -33 -33 -34 -35 -35 -35 -36 -36 -37 -37 -37 -37 -37 -36 -36 -35 -35 -34 -33 -32 -32 -32
-34 -34 -34 -34 -34 -34 -34 -34 -34 -33 -33 -34 -34 -34 -34 -34 -34 -34 -34 -35 -35 -35 -36 -36 -36 -37 -37 -37 -37 -36 -36 -35 -35 -34 -33 -33 -33 -32
-34 -34 -34 -34 -34 -34 -35 -34 -34 -34 -34 -34 -34 -34 -34 -34 -34 -34 -34 -35 -35 -35 -35 -36 -36 -36 -37 -37 -37 -36 -36 -35 -35 -34 -33 -33 -33 -33
-34 -35 -35 -35 -35 -35 -35 -35 -35 -35 -34 -34 -34 -34 -34 -34 -34 -34 -34 -35 -35 -35 -36 -36 -36 -36 -36 -36 -36 -36 -35 -35 -35 -34 -33 -33 -33 -33
-35 -35 -35 -35 -35 -35 -35 -35 -35 -35 -35 -35 -35 -35 -34 -34 -34 -34 -34 -35 -35 -35 -35 -36 -36 -36 -36 -36 -36 -36 -35 -35 -35 -34 -33 -33 -33 -33
-35 -35 -35 -35 -35 -35 -35 -36 -36 -36 -36 -35 -35 -35 -35 -34 -34 -34 -34 -34 -35 -35 -35 -35 -35 -35 -35 -35 -35 -35 -35 -34 -34 -33 -33 -33 -33 -33
-35 -35 -35 -35 -35 -35 -36 -36 -36 -36 -36 -36 -36 -36 -35 -35 -35 -34 -34 -34 -34 -35 -35 -35 -35 -35 -35 -35 -35 -34 -34 -34 -33 -33 -33 -33 -33 -33
-35 -35 -35 -35 -35 -36 -36 -36 -36 -36 -36 -36 -36 -36 -36 -35 -35 -35 -35 -34 -34 -34 -34 -34 -34 -34 -34 -34 -34 -34 -34 -33 -33 -33 -33 -32 -32 -33
-35 -35 -35 -35 -35 -36 -36 -36 -36 -36 -36 -37 -37 -37 -36 -36 -36 -35 -35 -35 -35 -34 -34 -34 -34 -34 -34 -34 -33 -33 -33 -33 -32 -32 -32 -32 -33 -33
-35 -35 -35 -35 -35 -36 -36 -36 -36 -36 -37 -37 -37 -37 -37 -37 -36 -36 -35 -35 -35 -35 -34 -35 -35 -34 -34 -34 -33 -33 -33 -32 -32 -32 -32 -32 -32 -33
-36 -36 -36 -36 -36 -36 -36 -36 -36 -37 -37 -37 -37 -37 -37 -37 -37 -36 -36 -36 -35 -35 -35 -35 -34 -35 -34 -34 -34 -33 -33 -33 -33 -33 -32 -32 -32 -33

GFSNE_500_temp_033.txt.gz
Temp
-22 -22 -22 -22 -23 -24 -24 -24 -25 -26 -27 -30 -31 -32 -32 -32 -32 -32 -31 -31 -30 -30 -30 -30 -30 -29 -29 -29 -29 -28 -28 -27 -27 -26 -24 -21 -19 -18
-22 -22 -23 -24 -24 -24 -24 -25 -27 -29 -30 -31 -32 -32 -32 -32 -32 -31 -31 -31 -31 -31 -30 -30 -30 -30 -30 -30 -29 -29 -29 -28 -28 -28 -27 -25 -22 -19
-23 -24 -24 -24 -24 -24 -25 -27 -29 -31 -31 -31 -32 -32 -32 -32 -32 -31 -31 -31 -31 -31 -31 -31 -31 -31 -31 -31 -30 -29 -29 -29 -28 -28 -28 -27 -25 -22
-23 -24 -24 -24 -25 -26 -27 -29 -31 -32 -32 -31 -32 -32 -32 -32 -32 -31 -31 -31 -32 -32 -32 -32 -32 -32 -32 -32 -31 -31 -30 -30 -29 -28 -28 -28 -27 -25
-25 -24 -25 -25 -26 -27 -28 -30 -32 -32 -32 -31 -32 -32 -31 -31 -31 -32 -32 -32 -32 -33 -32 -32 -32 -32 -31 -31 -31 -30 -30 -30 -30 -29 -29 -29 -29 -27
-24 -25 -25 -26 -27 -29 -30 -31 -32 -32 -32 -32 -32 -32 -31 -32 -32 -32 -32 -33 -33 -32 -32 -32 -31 -31 -30 -30 -30 -30 -30 -30 -30 -30 -29 -29 -29 -29
-25 -26 -26 -27 -29 -30 -31 -32 -33 -32 -32 -32 -32 -32 -32 -32 -32 -33 -33 -33 -33 -32 -32 -32 -31 -31 -30 -30 -30 -30 -30 -30 -30 -30 -30 -30 -29 -29
-26 -27 -28 -29 -31 -31 -32 -33 -33 -32 -32 -32 -32 -31 -32 -32 -33 -33 -33 -33 -33 -32 -32 -32 -31 -31 -32 -31 -31 -31 -31 -31 -30 -31 -31 -31 -30 -29
-27 -28 -29 -30 -32 -32 -33 -33 -33 -32 -32 -32 -32 -32 -32 -32 -33 -33 -33 -33 -32 -32 -32 -33 -32 -34 -34 -35 -35 -35 -34 -33 -33 -32 -31 -31 -31 -30
-29 -29 -31 -32 -33 -33 -34 -34 -34 -33 -33 -32 -32 -32 -32 -33 -33 -33 -33 -33 -33 -33 -33 -34 -34 -35 -36 -36 -37 -37 -36 -36 -35 -34 -33 -32 -32 -31
-30 -31 -32 -33 -33 -34 -34 -34 -34 -34 -33 -33 -32 -33 -33 -33 -33 -33 -33 -33 -34 -33 -34 -35 -35 -36 -37 -37 -38 -38 -37 -37 -37 -35 -34 -33 -32 -32
-31 -32 -33 -33 -34 -34 -34 -34 -34 -34 -34 -33 -33 -33 -33 -33 -34 -34 -33 -33 -34 -34 -34 -35 -35 -36 -37 -37 -38 -38 -38 -37 -36 -35 -35 -34 -33 -33
-32 -33 -33 -34 -35 -35 -35 -35 -34 -34 -34 -34 -34 -34 -34 -34 -34 -34 -34 -34 -34 -34 -35 -35 -35 -36 -37 -37 -38 -38 -37 -37 -36 -35 -35 -34 -33 -33
-33 -34 -34 -34 -35 -35 -35 -35 -35 -35 -35 -34 -34 -34 -34 -34 -34 -34 -34 -34 -34 -35 -35 -36 -36 -36 -37 -37 -37 -37 -37 -37 -36 -35 -34 -34 -33 -33
-33 -34 -34 -35 -35 -35 -35 -35 -35 -35 -35 -35 -35 -34 -34 -34 -34 -34 -34 -34 -34 -35 -36 -36 -36 -36 -36 -37 -37 -37 -37 -36 -36 -35 -34 -34 -33 -33
-34 -34 -35 -35 -35 -35 -35 -35 -35 -36 -36 -36 -36 -35 -35 -35 -35 -35 -35 -34 -35 -35 -35 -36 -36 -36 -36 -36 -37 -37 -36 -36 -36 -35 -35 -34 -34 -34
-34 -35 -35 -35 -35 -35 -35 -35 -36 -36 -36 -36 -36 -36 -35 -35 -35 -35 -35 -35 -35 -35 -35 -36 -36 -36 -36 -36 -36 -36 -36 -36 -36 -35 -35 -35 -34 -34
-34 -35 -35 -35 -35 -35 -35 -35 -36 -36 -36 -36 -36 -36 -36 -36 -35 -35 -35 -35 -35 -35 -35 -36 -36 -36 -36 -36 -36 -36 -36 -36 -36 -35 -35 -34 -35 -34
-35 -35 -35 -35 -35 -35 -35 -35 -36 -36 -36 -36 -37 -37 -37 -36 -36 -35 -35 -35 -35 -35 -35 -35 -35 -36 -36 -36 -36 -36 -36 -36 -36 -35 -34 -34 -34 -34
-35 -35 -35 -35 -35 -35 -35 -36 -36 -36 -36 -36 -37 -37 -37 -37 -36 -36 -35 -35 -35 -35 -35 -35 -35 -35 -35 -35 -35 -35 -35 -35 -35 -34 -34 -34 -33 -33
-35 -35 -36 -36 -36 -36 -36 -36 -36 -36 -36 -36 -37 -37 -37 -37 -37 -37 -36 -36 -35 -35 -35 -35 -35 -35 -35 -35 -35 -35 -34 -34 -34 -34 -33 -33 -33 -33
-35 -36 -36 -36 -36 -36 -36 -36 -36 -36 -36 -37 -37 -37 -37 -37 -37 -37 -37 -36 -36 -36 -35 -35 -35 -35 -35 -35 -35 -34 -34 -34 -34 -33 -33 -33 -33 -33
-36 -36 -36 -36 -36 -36 -36 -36 -36 -36 -37 -37 -37 -37 -37 -37 -37 -37 -37 -37 -36 -36 -36 -35 -35 -35 -35 -35 -35 -35 -34 -34 -33 -33 -33 -32 -32 -32

GFSNE_500_temp_036.txt.gz
Temp
-20 -21 -21 -22 -22 -22 -23 -24 -24 -24 -24 -24 -25 -27 -29 -30 -31 -31 -31 -31 -31 -31 -31 -30 -30 -30 -30 -30 -29 -29 -29 -28 -28 -28 -26 -23 -21 -18
-21 -22 -22 -22 -23 -24 -25 -24 -25 -25 -25 -25 -26 -28 -30 -31 -31 -31 -31 -31 -31 -31 -31 -31 -31 -30 -30 -30 -30 -29 -29 -28 -28 -28 -28 -26 -24 -21
-22 -22 -23 -23 -25 -25 -25 -25 -25 -26 -26 -27 -29 -30 -31 -31 -31 -31 -31 -31 -31 -31 -31 -31 -31 -30 -30 -30 -30 -30 -30 -29 -29 -29 -28 -28 -27 -25
-22 -23 -24 -26 -25 -25 -26 -25 -26 -27 -28 -29 -30 -31 -32 -32 -31 -31 -31 -31 -31 -31 -31 -31 -31 -31 -31 -31 -31 -30 -30 -30 -29 -29 -29 -28 -28 -27
-23 -25 -26 -25 -26 -26 -26 -26 -27 -29 -30 -31 -32 -32 -32 -32 -31 -31 -31 -31 -32 -32 -32 -32 -32 -32 -32 -32 -32 -32 -31 -31 -30 -29 -29 -29 -28 -28
-25 -26 -25 -26 -27 -27 -27 -28 -30 -31 -32 -32 -33 -33 -32 -32 -31 -31 -32 -32 -32 -33 -32 -33 -32 -32 -32 -32 -31 -31 -31 -31 -30 -30 -30 -29 -29 -28
-26 -26 -27 -27 -28 -28 -29 -30 -31 -32 -33 -33 -33 -33 -33 -32 -32 -32 -32 -32 -33 -33 -32 -33 -32 -32 -32 -31 -31 -31 -30 -30 -30 -29 -29 -29 -29 -29
-26 -27 -28 -28 -29 -30 -31 -32 -32 -33 -33 -34 -34 -33 -33 -32 -32 -32 -32 -32 -33 -33 -32 -33 -32 -32 -32 -31 -31 -31 -30 -30 -29 -29 -29 -29 -29 -29
-28 -28 -29 -30 -31 -31 -32 -33 -33 -34 -34 -34 -33 -33 -33 -32 -32 -33 -32 -33 -33 -32 -32 -33 -32 -32 -32 -32 -33 -32 -32 -31 -30 -30 -30 -29 -29 -29
-29 -30 -31 -31 -32 -32 -33 -34 -34 -34 -34 -34 -34 -33 -33 -33 -32 -33 -33 -33 -33 -32 -32 -33 -32 -33 -33 -33 -34 -34 -35 -35 -34 -33 -32 -30 -30 -30
-31 -31 -32 -32 -32 -33 -34 -34 -35 -35 -35 -35 -34 -34 -33 -33 -33 -33 -33 -33 -33 -33 -32 -33 -33 -34 -34 -34 -35 -36 -36 -37 -37 -36 -36 -34 -32 -31
-31 -32 -32 -33 -33 -34 -34 -35 -35 -35 -35 -35 -35 -34 -34 -33 -33 -33 -33 -34 -34 -33 -33 -33 -34 -34 -35 -35 -36 -36 -37 -37 -38 -37 -37 -35 -34 -33
-32 -32 -33 -33 -34 -34 -35 -35 -35 -35 -35 -35 -35 -35 -35 -34 -34 -34 -34 -34 -34 -34 -34 -34 -34 -35 -35 -36 -36 -37 -37 -38 -38 -37 -36 -36 -35 -34
-33 -33 -33 -33 -34 -35 -35 -35 -35 -35 -35 -35 -35 -36 -35 -35 -34 -34 -34 -34 -34 -34 -34 -35 -35 -35 -36 -36 -37 -37 -38 -38 -37 -37 -36 -35 -35 -34
-33 -33 -33 -34 -34 -35 -35 -35 -35 -35 -36 -36 -36 -36 -36 -36 -35 -35 -34 -35 -34 -34 -34 -35 -35 -36 -36 -36 -37 -37 -38 -37 -37 -36 -36 -35 -35 -34
-34 -34 -34 -34 -35 -35 -35 -35 -35 -35 -36 -36 -36 -36 -36 -36 -36 -35 -35 -35 -35 -34 -34 -35 -35 -35 -36 -36 -37 -37 -37 -37 -37 -36 -36 -35 -35 -34
-34 -34 -34 -34 -35 -35 -35 -35 -35 -35 -36 -36 -36 -36 -36 -36 -36 -36 -35 -35 -35 -35 -35 -35 -35 -36 -36 -36 -37 -37 -37 -37 -37 -36 -36 -35 -35 -35
-34 -34 -34 -35 -35 -35 -35 -35 -35 -35 -36 -36 -36 -36 -36 -37 -36 -36 -36 -35 -35 -35 -35 -35 -35 -36 -36 -36 -36 -37 -36 -36 -36 -36 -36 -36 -35 -35
-34 -34 -34 -35 -35 -35 -35 -35 -36 -36 -36 -36 -36 -36 -37 -37 -37 -37 -36 -36 -36 -35 -35 -35 -35 -36 -36 -36 -36 -36 -36 -36 -36 -36 -36 -36 -35 -35
-34 -34 -34 -35 -35 -36 -36 -36 -36 -36 -36 -36 -36 -36 -37 -37 -37 -37 -37 -36 -36 -36 -35 -35 -35 -35 -36 -36 -36 -36 -36 -36 -36 -36 -36 -35 -35 -35
-34 -34 -34 -35 -36 -36 -36 -36 -36 -36 -36 -36 -36 -36 -37 -37 -37 -37 -37 -37 -36 -36 -36 -35 -35 -36 -36 -36 -36 -36 -36 -36 -36 -36 -36 -35 -35 -35
-34 -35 -35 -36 -36 -36 -36 -36 -36 -36 -36 -36 -36 -37 -37 -37 -37 -37 -37 -37 -37 -36 -36 -36 -35 -36 -36 -36 -36 -36 -35 -35 -35 -35 -35 -35 -35 -34
-35 -35 -35 -36 -37 -37 -36 -36 -36 -36 -36 -36 -36 -37 -37 -37 -37 -37 -37 -37 -37 -37 -36 -36 -36 -36 -36 -35 -36 -35 -35 -35 -35 -35 -34 -34 -34 -34

GFSNE_500_temp_039.txt.gz
Temp
-20 -20 -21 -22 -22 -22 -22 -23 -23 -24 -25 -25 -25 -26 -26 -26 -26 -27 -28 -29 -30 -30 -30 -30 -30 -30 -30 -30 -30 -30 -29 -29 -29 -29 -28 -27 -25 -23
-21 -22 -22 -22 -23 -23 -24 -24 -25 -26 -25 -25 -26 -26 -26 -27 -28 -29 -30 -31 -31 -31 -30 -30 -30 -30 -30 -30 -30 -30 -29 -29 -29 -29 -29 -29 -27 -25
-22 -22 -22 -23 -24 -24 -26 -26 -26 -26 -26 -26 -27 -27 -28 -30 -30 -31 -31 -31 -31 -31 -30 -30 -30 -30 -30 -30 -30 -30 -30 -30 -29 -29 -29 -29 -29 -27
-23 -23 -24 -24 -26 -26 -26 -27 -26 -27 -27 -28 -29 -30 -31 -31 -31 -31 -32 -32 -31 -31 -30 -30 -31 -31 -31 -31 -31 -31 -31 -30 -30 -29 -29 -29 -29 -28
-24 -24 -25 -26 -27 -27 -27 -27 -28 -28 -29 -30 -31 -32 -32 -32 -32 -32 -32 -32 -31 -30 -30 -31 -32 -32 -32 -32 -32 -32 -31 -31 -31 -30 -30 -29 -29 -29
-25 -26 -27 -27 -27 -28 -28 -29 -29 -30 -31 -32 -33 -33 -33 -33 -33 -33 -32 -32 -32 -31 -31 -32 -32 -32 -32 -32 -32 -32 -32 -32 -31 -31 -30 -30 -30 -29
-27 -27 -28 -28 -29 -29 -30 -30 -31 -32 -32 -33 -34 -34 -34 -34 -33 -33 -32 -32 -32 -31 -32 -33 -32 -32 -32 -32 -32 -31 -31 -31 -31 -31 -30 -30 -30 -30
-27 -29 -29 -30 -30 -30 -31 -32 -32 -32 -33 -34 -34 -35 -34 -34 -34 -33 -32 -32 -32 -31 -32 -34 -32 -32 -32 -32 -32 -31 -31 -31 -31 -30 -30 -30 -30 -30
-29 -30 -30 -30 -31 -31 -32 -32 -32 -33 -33 -34 -35 -35 -34 -34 -34 -33 -33 -32 -32 -32 -33 -34 -33 -32 -32 -32 -32 -32 -32 -32 -32 -31 -30 -30 -30 -30
-30 -30 -31 -31 -32 -32 -32 -33 -33 -34 -34 -35 -35 -35 -35 -35 -34 -34 -33 -33 -33 -32 -33 -34 -33 -33 -33 -32 -32 -33 -33 -34 -33 -33 -32 -31 -30 -30
-30 -30 -31 -31 -32 -33 -33 -33 -34 -34 -35 -35 -35 -35 -35 -35 -35 -34 -34 -34 -34 -33 -33 -33 -33 -33 -33 -33 -33 -33 -34 -34 -35 -35 -35 -34 -32 -30
-30 -31 -31 -32 -33 -33 -33 -33 -34 -35 -35 -35 -35 -35 -35 -35 -35 -34 -34 -34 -34 -34 -33 -34 -33 -33 -34 -34 -34 -34 -35 -35 -36 -36 -36 -36 -35 -33
-31 -31 -31 -32 -33 -33 -33 -34 -35 -35 -35 -35 -35 -36 -36 -36 -35 -35 -35 -34 -34 -34 -34 -34 -34 -34 -34 -34 -35 -35 -36 -36 -37 -37 -38 -37 -36 -35
-31 -31 -32 -32 -33 -33 -34 -34 -35 -35 -35 -35 -36 -36 -36 -36 -36 -36 -35 -35 -34 -34 -34 -34 -34 -34 -34 -35 -35 -36 -36 -37 -37 -38 -38 -37 -37 -36
-31 -32 -32 -33 -33 -34 -34 -34 -35 -35 -35 -35 -35 -35 -36 -36 -36 -36 -36 -35 -35 -34 -35 -35 -34 -35 -35 -35 -36 -36 -37 -37 -38 -38 -37 -37 -36 -36
-32 -32 -33 -34 -34 -34 -34 -35 -35 -35 -35 -35 -35 -35 -36 -36 -36 -36 -36 -36 -35 -35 -34 -35 -35 -35 -35 -35 -36 -36 -37 -37 -37 -37 -37 -36 -36 -35
-32 -33 -34 -34 -34 -34 -34 -35 -35 -35 -35 -35 -35 -36 -36 -36 -36 -36 -36 -36 -36 -35 -35 -35 -35 -35 -35 -36 -36 -37 -37 -37 -37 -37 -37 -36 -36 -35
-33 -34 -34 -34 -34 -34 -34 -35 -35 -36 -36 -36 -36 -36 -36 -36 -36 -36 -36 -36 -36 -36 -35 -35 -35 -35 -35 -36 -36 -37 -37 -37 -37 -37 -37 -37 -36 -35
-33 -34 -35 -35 -35 -35 -35 -35 -36 -36 -36 -36 -36 -36 -36 -36 -36 -36 -37 -37 -36 -36 -36 -35 -35 -35 -36 -36 -36 -36 -37 -36 -36 -36 -37 -36 -36 -35
-34 -34 -35 -35 -35 -35 -35 -36 -36 -36 -36 -36 -36 -36 -36 -36 -36 -37 -37 -37 -37 -37 -36 -36 -36 -36 -36 -36 -36 -36 -36 -36 -36 -36 -36 -36 -36 -35
-35 -35 -35 -35 -35 -35 -35 -36 -36 -36 -36 -36 -36 -36 -36 -37 -37 -37 -37 -37 -37 -37 -37 -36 -36 -36 -36 -36 -36 -36 -36 -36 -36 -36 -36 -36 -36 -35
-35 -35 -35 -36 -36 -35 -36 -36 -37 -37 -37 -36 -36 -36 -36 -37 -37 -37 -37 -37 -37 -37 -37 -36 -36 -36 -36 -36 -36 -36 -36 -36 -36 -36 -36 -36 -36 -35
-35 -36 -36 -36 -36 -36 -36 -37 -37 -37 -37 -37 -37 -36 -36 -36 -37 -37 -37 -37 -37 -37 -37 -37 -36 -36 -36 -36 -36 -36 -36 -36 -36 -36 -36 -35 -35 -35

GFSNE_500_temp_045.txt.gz
Temp
-20 -20 -21 -21 -21 -21 -22 -23 -22 -22 -23 -24 -25 -26 -27 -29 -29 -30 -30 -30 -30 -30 -30 -30 -30 -30 -30 -30 -30 -30 -30 -29 -30 -30 -29 -29 -29 -29
-20 -20 -21 -21 -22 -22 -23 -22 -23 -23 -24 -26 -27 -29 -30 -30 -30 -31 -31 -31 -32 -32 -32 -32 -32 -32 -32 -32 -31 -31 -31 -30 -30 -30 -29 -29 -29 -29
-21 -21 -21 -22 -22 -22 -23 -23 -24 -25 -26 -28 -29 -30 -31 -31 -31 -32 -32 -32 -32 -32 -33 -33 -33 -33 -33 -32 -32 -32 -31 -31 -30 -30 -29 -29 -29 -29
-21 -21 -22 -22 -23 -23 -23 -25 -25 -26 -28 -29 -30 -31 -31 -31 -32 -32 -32 -33 -33 -33 -33 -33 -33 -33 -33 -32 -32 -32 -31 -31 -30 -30 -30 -29 -29 -29
-21 -22 -23 -23 -23 -24 -25 -26 -26 -28 -29 -30 -31 -31 -31 -32 -32 -33 -33 -34 -34 -34 -34 -34 -33 -33 -33 -32 -32 -32 -31 -30 -30 -30 -30 -31 -31 -30
-22 -22 -23 -23 -24 -25 -26 -27 -28 -30 -31 -31 -31 -31 -31 -32 -33 -33 -34 -34 -35 -35 -34 -34 -33 -33 -33 -32 -32 -31 -31 -31 -31 -31 -31 -31 -32 -31
-22 -23 -24 -24 -25 -26 -27 -28 -30 -31 -31 -31 -31 -31 -32 -33 -33 -34 -34 -35 -35 -35 -35 -34 -33 -33 -32 -32 -32 -32 -32 -31 -31 -31 -31 -31 -31 -31
-23 -24 -24 -25 -26 -27 -28 -29 -31 -31 -31 -31 -31 -32 -33 -33 -34 -34 -35 -35 -35 -35 -35 -35 -33 -33 -33 -32 -32 -32 -32 -32 -32 -32 -31 -31 -31 -31
-24 -25 -25 -26 -27 -28 -29 -31 -31 -32 -32 -32 -32 -32 -33 -33 -34 -35 -35 -35 -35 -35 -35 -35 -34 -33 -33 -32 -32 -32 -32 -32 -32 -32 -31 -31 -31 -31
-25 -25 -26 -27 -28 -29 -31 -32 -32 -32 -32 -32 -32 -33 -34 -34 -34 -35 -35 -35 -35 -35 -35 -35 -34 -34 -33 -33 -33 -33 -33 -33 -33 -32 -32 -32 -31 -31
-25 -26 -27 -28 -30 -31 -32 -32 -32 -32 -32 -32 -33 -34 -34 -34 -35 -35 -35 -35 -35 -36 -35 -35 -34 -34 -34 -33 -33 -33 -33 -33 -33 -32 -32 -32 -32 -31
-26 -27 -28 -30 -31 -32 -32 -32 -32 -32 -32 -33 -33 -34 -34 -34 -35 -35 -35 -35 -35 -35 -35 -35 -35 -34 -35 -34 -34 -33 -33 -33 -33 -33 -33 -33 -33 -33
-26 -28 -30 -31 -32 -32 -32 -32 -32 -32 -32 -33 -34 -34 -34 -34 -35 -35 -35 -35 -35 -35 -35 -35 -35 -34 -34 -35 -35 -34 -33 -33 -34 -33 -34 -34 -35 -34
-28 -30 -31 -32 -32 -32 -32 -32 -32 -33 -33 -34 -35 -35 -35 -35 -35 -35 -36 -35 -35 -35 -36 -35 -36 -35 -34 -35 -35 -34 -34 -34 -34 -35 -36 -37 -37 -37
-30 -31 -32 -32 -32 -32 -32 -33 -33 -33 -34 -34 -35 -35 -35 -35 -36 -36 -36 -36 -36 -35 -35 -36 -36 -35 -35 -35 -35 -34 -35 -35 -35 -36 -37 -37 -37 -37
-31 -32 -32 -32 -32 -33 -33 -33 -33 -33 -34 -35 -35 -35 -35 -35 -36 -36 -36 -36 -36 -36 -35 -35 -36 -36 -35 -35 -35 -35 -35 -36 -37 -37 -37 -37 -37 -36
-31 -32 -32 -32 -33 -33 -33 -33 -33 -34 -34 -35 -35 -35 -35 -36 -36 -36 -36 -36 -36 -36 -36 -36 -36 -36 -36 -35 -35 -35 -36 -36 -37 -37 -37 -37 -36 -36
-32 -32 -32 -33 -33 -34 -34 -34 -34 -34 -35 -35 -35 -35 -36 -36 -36 -36 -36 -36 -36 -36 -37 -37 -37 -36 -36 -36 -36 -36 -36 -37 -37 -37 -37 -37 -36 -36
-32 -33 -33 -34 -34 -35 -35 -35 -35 -35 -36 -36 -36 -36 -36 -37 -36 -36 -36 -36 -36 -36 -37 -37 -37 -37 -36 -36 -36 -36 -36 -37 -37 -37 -37 -36 -36 -36
-33 -33 -34 -34 -34 -35 -35 -35 -35 -36 -36 -36 -36 -36 -36 -37 -37 -37 -36 -36 -36 -37 -37 -37 -37 -37 -36 -36 -36 -36 -36 -37 -36 -37 -36 -37 -36 -36
-33 -33 -34 -35 -35 -35 -36 -36 -36 -36 -36 -36 -36 -36 -37 -37 -37 -37 -37 -36 -37 -37 -37 -37 -37 -37 -37 -36 -36 -36 -36 -37 -36 -36 -36 -36 -36 -36
-33 -34 -35 -35 -36 -36 -36 -36 -36 -37 -37 -36 -37 -37 -37 -37 -37 -37 -37 -37 -37 -37 -37 -37 -37 -37 -37 -37 -36 -36 -37 -36 -37 -36 -36 -36 -36 -36
-34 -35 -35 -36 -36 -36 -36 -37 -37 -37 -37 -37 -37 -37 -37 -37 -37 -37 -37 -37 -37 -37 -37 -37 -37 -38 -37 -37 -37 -37 -37 -37 -36 -36 -36 -36 -36 -36

GFSNE_500_temp_048.txt.gz
Temp
-19 -19 -20 -20 -20 -21 -21 -21 -21 -21 -22 -23 -23 -24 -24 -25 -25 -27 -29 -30 -31 -30 -31 -31 -31 -31 -31 -32 -32 -32 -31 -30 -30 -29 -28 -28 -27 -27
-20 -20 -20 -20 -21 -21 -21 -21 -21 -22 -22 -24 -24 -25 -25 -26 -28 -29 -30 -31 -31 -31 -32 -32 -32 -32 -33 -33 -32 -32 -32 -32 -31 -31 -30 -29 -29 -28
-20 -20 -21 -21 -21 -21 -21 -22 -22 -24 -23 -24 -25 -26 -26 -28 -29 -31 -31 -31 -31 -32 -32 -32 -33 -33 -33 -33 -33 -33 -33 -33 -32 -32 -31 -31 -30 -30
-20 -21 -21 -21 -21 -21 -21 -22 -23 -24 -24 -25 -26 -27 -29 -30 -31 -31 -31 -31 -32 -32 -32 -33 -34 -34 -34 -33 -33 -33 -33 -32 -32 -32 -31 -31 -31 -30
-21 -21 -21 -21 -22 -22 -22 -23 -24 -24 -25 -26 -27 -29 -30 -31 -31 -31 -31 -32 -32 -33 -33 -33 -34 -34 -34 -34 -33 -33 -32 -32 -32 -32 -31 -31 -30 -30
-21 -21 -22 -22 -22 -22 -23 -24 -25 -25 -26 -27 -29 -30 -31 -32 -32 -32 -32 -32 -33 -33 -33 -34 -34 -34 -34 -34 -33 -33 -32 -32 -32 -31 -31 -31 -31 -30
-21 -21 -22 -22 -23 -23 -24 -25 -25 -26 -28 -29 -30 -31 -32 -32 -32 -32 -32 -33 -33 -34 -34 -35 -34 -34 -34 -33 -33 -33 -32 -32 -32 -32 -31 -31 -31 -31
-22 -22 -23 -23 -24 -25 -25 -25 -26 -28 -30 -31 -31 -32 -32 -32 -32 -32 -33 -33 -34 -34 -34 -35 -35 -34 -34 -34 -33 -33 -33 -32 -32 -32 -31 -31 -31 -31
-22 -23 -23 -24 -24 -25 -25 -26 -28 -29 -31 -32 -32 -32 -32 -32 -32 -33 -33 -34 -34 -34 -34 -35 -35 -35 -34 -34 -33 -33 -32 -32 -32 -32 -31 -31 -31 -31
-22 -23 -24 -25 -25 -26 -27 -28 -29 -31 -32 -32 -32 -32 -32 -32 -32 -33 -34 -34 -35 -35 -35 -35 -35 -35 -35 -34 -33 -33 -32 -32 -32 -32 -32 -32 -32 -31
-23 -24 -25 -25 -26 -27 -28 -30 -31 -32 -32 -32 -32 -32 -32 -33 -33 -34 -34 -34 -35 -35 -35 -35 -35 -35 -35 -35 -33 -33 -32 -33 -33 -33 -33 -32 -32 -31
-24 -25 -25 -26 -28 -29 -30 -31 -32 -32 -32 -32 -32 -33 -33 -33 -34 -34 -35 -35 -35 -35 -35 -35 -35 -35 -35 -35 -34 -32 -33 -33 -34 -34 -33 -32 -32 -32
-25 -25 -26 -27 -29 -30 -31 -32 -32 -32 -33 -33 -33 -33 -33 -34 -34 -35 -35 -35 -35 -35 -35 -35 -35 -35 -35 -34 -34 -33 -33 -34 -34 -33 -33 -33 -33 -33
-25 -26 -27 -29 -30 -31 -32 -32 -33 -33 -33 -33 -33 -34 -34 -34 -35 -35 -35 -35 -35 -35 -35 -36 -36 -35 -35 -35 -34 -34 -34 -34 -34 -34 -34 -34 -35 -35
-27 -28 -29 -30 -31 -32 -32 -33 -33 -33 -33 -33 -33 -34 -34 -35 -35 -35 -35 -35 -36 -36 -36 -36 -36 -36 -36 -35 -35 -35 -35 -34 -35 -35 -36 -36 -36 -36
-28 -29 -30 -31 -31 -32 -32 -33 -33 -34 -34 -34 -34 -34 -35 -35 -36 -36 -35 -36 -36 -36 -36 -36 -36 -36 -36 -35 -35 -35 -35 -35 -36 -36 -36 -36 -36 -36
-28 -29 -30 -30 -31 -32 -33 -33 -33 -34 -35 -35 -35 -35 -35 -36 -36 -36 -36 -36 -36 -36 -36 -36 -36 -36 -36 -35 -36 -36 -35 -36 -36 -36 -36 -36 -36 -36
-30 -30 -30 -31 -31 -33 -34 -34 -34 -34 -35 -35 -36 -36 -36 -36 -36 -36 -36 -36 -36 -36 -36 -36 -36 -36 -36 -36 -36 -36 -36 -36 -37 -36 -36 -36 -36 -36
-30 -31 -31 -31 -33 -34 -34 -34 -35 -35 -36 -36 -36 -36 -36 -37 -36 -36 -37 -37 -36 -36 -36 -36 -36 -37 -36 -36 -36 -36 -36 -36 -37 -36 -36 -36 -36 -36
-31 -31 -31 -32 -33 -34 -35 -35 -35 -36 -36 -36 -36 -36 -37 -37 -37 -37 -37 -37 -37 -36 -36 -37 -37 -37 -37 -36 -36 -36 -36 -36 -37 -36 -36 -36 -36 -36
-32 -32 -32 -33 -34 -34 -35 -36 -36 -36 -36 -36 -36 -37 -37 -37 -37 -37 -37 -37 -37 -37 -36 -37 -37 -37 -37 -37 -36 -36 -36 -36 -36 -36 -36 -36 -36 -36
-32 -33 -33 -34 -34 -35 -36 -36 -36 -37 -37 -37 -37 -37 -37 -37 -37 -37 -37 -37 -37 -37 -37 -37 -37 -37 -37 -37 -37 -37 -37 -36 -36 -36 -36 -36 -36 -36
-33 -33 -34 -35 -35 -35 -36 -36 -37 -37 -37 -37 -37 -37 -37 -37 -37 -37 -37 -37 -37 -37 -37 -37 -37 -37 -37 -37 -37 -37 -37 -37 -36 -36 -36 -36 -36 -36

GFSNE_500_temp_051.txt.gz
Temp
-17 -18 -19 -19 -19 -20 -20 -20 -20 -21 -21 -22 -22 -22 -22 -22 -23 -23 -24 -24 -26 -27 -29 -31 -31 -31 -31 -32 -32 -32 -32 -31 -31 -31 -31 -31 -30 -29
-18 -19 -19 -19 -19 -19 -20 -20 -21 -21 -21 -22 -22 -22 -23 -24 -24 -25 -26 -26 -28 -29 -31 -31 -31 -31 -32 -32 -32 -33 -33 -32 -32 -32 -32 -31 -31 -31
-19 -19 -20 -20 -20 -21 -21 -21 -21 -22 -22 -22 -23 -24 -24 -25 -25 -26 -27 -28 -29 -31 -32 -32 -31 -32 -32 -33 -33 -33 -33 -33 -33 -33 -32 -32 -32 -31
-19 -19 -20 -21 -21 -21 -21 -21 -22 -22 -22 -23 -23 -24 -25 -26 -27 -27 -28 -30 -31 -32 -32 -32 -32 -33 -33 -33 -33 -34 -33 -33 -33 -33 -32 -32 -32 -32
-20 -20 -21 -21 -21 -22 -22 -22 -22 -22 -23 -24 -24 -25 -26 -27 -28 -29 -30 -31 -32 -32 -32 -32 -32 -33 -33 -34 -34 -33 -33 -33 -33 -32 -32 -32 -32 -32
-21 -21 -21 -22 -22 -22 -22 -23 -23 -23 -24 -24 -25 -26 -27 -29 -30 -31 -31 -32 -32 -32 -32 -32 -33 -33 -33 -34 -34 -34 -34 -33 -33 -33 -33 -32 -32 -32
-21 -21 -21 -22 -22 -22 -23 -23 -24 -24 -25 -26 -27 -28 -29 -31 -32 -32 -32 -32 -32 -32 -32 -33 -33 -33 -34 -34 -34 -33 -33 -33 -33 -33 -33 -33 -32 -32
-21 -21 -22 -22 -22 -23 -23 -24 -24 -25 -26 -28 -29 -30 -31 -32 -32 -32 -32 -32 -32 -33 -33 -33 -34 -34 -34 -34 -34 -34 -33 -33 -33 -33 -33 -32 -32 -32
-22 -22 -22 -22 -23 -23 -24 -24 -25 -26 -28 -29 -30 -31 -32 -33 -33 -33 -33 -33 -33 -33 -33 -34 -34 -34 -35 -34 -34 -34 -34 -34 -33 -33 -33 -32 -32 -32
-22 -22 -22 -23 -23 -24 -24 -25 -26 -26 -28 -29 -31 -32 -32 -33 -33 -33 -33 -33 -33 -34 -34 -34 -35 -35 -35 -35 -34 -34 -34 -34 -33 -33 -33 -32 -32 -31
-22 -22 -23 -23 -23 -24 -25 -26 -27 -28 -31 -32 -32 -32 -32 -33 -33 -34 -33 -33 -34 -34 -35 -34 -35 -35 -35 -35 -34 -34 -34 -33 -33 -33 -33 -32 -32 -31
-22 -23 -23 -23 -24 -25 -26 -28 -29 -30 -31 -32 -33 -33 -33 -33 -33 -34 -34 -34 -34 -35 -35 -35 -35 -35 -35 -35 -35 -34 -34 -33 -33 -33 -33 -33 -32 -32
-22 -23 -23 -24 -25 -26 -27 -28 -29 -31 -31 -32 -33 -33 -33 -33 -33 -34 -34 -35 -35 -35 -35 -35 -35 -35 -35 -35 -35 -34 -34 -34 -34 -34 -33 -33 -33 -33
-23 -23 -24 -24 -25 -27 -28 -29 -30 -31 -31 -32 -33 -34 -34 -35 -35 -35 -34 -35 -36 -36 -36 -35 -36 -35 -35 -35 -35 -35 -34 -34 -34 -34 -34 -34 -33 -34
-24 -24 -25 -26 -27 -28 -29 -30 -31 -31 -31 -32 -34 -34 -35 -35 -35 -36 -35 -35 -36 -36 -36 -36 -36 -36 -35 -35 -35 -35 -35 -34 -35 -34 -35 -35 -35 -36
-24 -25 -26 -27 -28 -29 -30 -30 -31 -31 -32 -33 -34 -34 -35 -35 -36 -36 -36 -36 -36 -36 -36 -36 -36 -36 -36 -36 -36 -35 -35 -35 -35 -35 -35 -36 -36 -36
-24 -26 -26 -27 -28 -30 -30 -31 -31 -31 -33 -34 -34 -34 -35 -36 -36 -36 -36 -36 -36 -36 -36 -36 -36 -36 -36 -36 -36 -36 -35 -35 -35 -36 -36 -36 -36 -36
-26 -27 -28 -29 -30 -31 -31 -32 -32 -33 -34 -34 -35 -35 -36 -37 -37 -37 -37 -37 -37 -37 -37 -36 -36 -36 -36 -36 -36 -36 -36 -36 -36 -36 -36 -36 -36 -36
-28 -29 -30 -31 -31 -31 -32 -32 -33 -34 -34 -35 -36 -36 -37 -37 -37 -37 -37 -37 -37 -37 -37 -37 -36 -36 -36 -36 -36 -36 -36 -36 -36 -36 -36 -36 -36 -36
-30 -31 -32 -32 -32 -32 -33 -33 -34 -35 -35 -36 -36 -37 -37 -37 -37 -37 -37 -37 -37 -37 -37 -37 -37 -36 -36 -37 -37 -36 -36 -36 -36 -36 -36 -36 -36 -36
-31 -32 -33 -33 -33 -33 -33 -34 -35 -36 -37 -37 -37 -37 -37 -37 -37 -37 -37 -37 -37 -37 -37 -37 -37 -37 -37 -37 -37 -36 -36 -36 -36 -36 -36 -36 -36 -36
-32 -33 -33 -33 -33 -34 -34 -35 -36 -37 -37 -37 -37 -37 -38 -38 -37 -37 -37 -37 -37 -37 -37 -37 -37 -37 -37 -37 -37 -37 -36 -36 -36 -36 -36 -36 -36 -36
-33 -33 -33 -34 -34 -35 -35 -36 -36 -37 -37 -38 -38 -38 -38 -38 -37 -37 -38 -38 -37 -37 -37 -37 -37 -37 -37 -37 -37 -37 -37 -36 -36 -36 -36 -36 -36 -36

GFSNE_500_temp_054.txt.gz
Temp
-17 -17 -17 -17 -18 -19 -19 -19 -20 -20 -21 -21 -22 -22 -22 -22 -22 -21 -22 -22 -23 -24 -25 -26 -27 -28 -29 -31 -31 -31 -31 -32 -32 -32 -31 -31 -32 -31
-17 -17 -18 -18 -18 -18 -19 -20 -20 -20 -20 -21 -22 -22 -22 -22 -22 -22 -23 -23 -25 -26 -27 -28 -29 -31 -31 -32 -32 -31 -32 -32 -32 -32 -32 -32 -32 -32
-17 -18 -18 -18 -18 -19 -20 -20 -20 -21 -21 -21 -22 -22 -22 -22 -23 -24 -24 -25 -26 -27 -28 -29 -30 -32 -32 -32 -32 -32 -33 -33 -33 -33 -33 -33 -33 -33
-17 -18 -18 -19 -19 -20 -21 -21 -21 -22 -21 -21 -22 -22 -23 -23 -24 -25 -26 -27 -27 -29 -30 -31 -32 -32 -32 -32 -32 -33 -33 -33 -34 -33 -33 -33 -33 -33
-18 -18 -19 -19 -20 -21 -21 -22 -22 -22 -22 -22 -22 -23 -23 -24 -25 -26 -26 -28 -29 -30 -31 -32 -32 -32 -32 -32 -33 -34 -34 -34 -34 -34 -33 -33 -33 -32
-18 -19 -19 -20 -20 -21 -22 -22 -22 -22 -23 -23 -23 -23 -24 -25 -27 -28 -28 -30 -31 -32 -32 -32 -33 -33 -33 -33 -34 -34 -34 -34 -34 -34 -34 -33 -33 -33
-19 -19 -20 -20 -21 -22 -22 -22 -22 -23 -23 -23 -24 -24 -25 -27 -28 -30 -31 -32 -32 -33 -33 -33 -33 -33 -33 -34 -34 -34 -34 -34 -34 -34 -34 -33 -33 -33
-19 -20 -20 -21 -22 -22 -22 -22 -22 -23 -23 -24 -25 -26 -27 -29 -30 -32 -32 -33 -33 -33 -33 -33 -34 -33 -34 -34 -34 -34 -35 -34 -34 -34 -34 -33 -33 -33
-20 -20 -21 -22 -22 -22 -22 -22 -22 -23 -24 -25 -26 -27 -28 -30 -31 -32 -33 -33 -33 -33 -33 -33 -34 -34 -34 -35 -35 -35 -35 -35 -34 -34 -34 -33 -33 -33
-20 -21 -21 -22 -22 -22 -22 -22 -23 -23 -24 -25 -26 -27 -29 -30 -31 -32 -33 -33 -33 -34 -34 -33 -34 -34 -35 -35 -35 -35 -35 -35 -34 -34 -34 -33 -33 -33
-21 -21 -22 -22 -22 -23 -23 -23 -23 -24 -25 -26 -27 -29 -31 -31 -31 -32 -33 -34 -34 -34 -34 -34 -34 -34 -35 -35 -35 -35 -35 -35 -35 -34 -34 -33 -33 -33
-21 -21 -22 -22 -22 -23 -23 -24 -24 -25 -26 -27 -28 -30 -31 -31 -32 -33 -34 -34 -34 -34 -35 -35 -35 -35 -35 -36 -36 -35 -35 -35 -35 -34 -34 -34 -33 -33
-21 -22 -22 -22 -23 -23 -24 -25 -25 -26 -27 -28 -29 -30 -31 -32 -32 -34 -35 -35 -36 -36 -36 -35 -35 -35 -35 -36 -36 -36 -35 -35 -35 -34 -34 -34 -34 -34
-21 -22 -22 -23 -23 -24 -25 -25 -26 -27 -29 -30 -30 -31 -32 -32 -34 -35 -35 -35 -36 -36 -36 -36 -36 -36 -36 -36 -36 -36 -35 -35 -35 -35 -35 -35 -34 -34
-22 -22 -23 -24 -24 -25 -26 -27 -28 -29 -30 -30 -31 -31 -32 -33 -34 -35 -35 -36 -36 -36 -36 -36 -36 -36 -36 -36 -36 -36 -36 -35 -35 -35 -35 -35 -35 -35
-23 -23 -24 -25 -25 -26 -27 -28 -29 -30 -31 -31 -31 -32 -33 -34 -34 -35 -36 -36 -36 -36 -36 -36 -36 -36 -36 -36 -36 -36 -36 -36 -35 -35 -35 -36 -36 -36
-24 -24 -25 -25 -26 -27 -28 -29 -31 -32 -32 -32 -32 -33 -34 -34 -35 -36 -37 -37 -37 -37 -37 -37 -37 -37 -36 -36 -36 -36 -36 -36 -36 -36 -36 -36 -36 -36
-25 -25 -26 -27 -28 -29 -30 -31 -32 -32 -32 -32 -33 -34 -35 -35 -36 -37 -37 -37 -37 -37 -37 -37 -37 -37 -37 -37 -36 -36 -36 -36 -36 -36 -36 -36 -36 -36
-26 -27 -28 -29 -30 -31 -31 -32 -33 -33 -33 -33 -34 -35 -36 -36 -37 -37 -37 -37 -37 -37 -37 -37 -37 -37 -37 -37 -36 -36 -36 -36 -36 -36 -36 -36 -37 -36
-28 -29 -30 -31 -31 -32 -32 -33 -33 -33 -34 -35 -36 -36 -37 -37 -37 -38 -38 -37 -37 -37 -37 -37 -37 -37 -37 -37 -37 -37 -37 -36 -36 -36 -36 -36 -37 -36
-30 -30 -31 -32 -32 -33 -33 -34 -34 -34 -35 -36 -37 -38 -38 -38 -38 -38 -38 -37 -38 -37 -37 -38 -37 -37 -37 -37 -37 -37 -37 -37 -36 -36 -36 -36 -37 -36
-31 -32 -32 -33 -33 -34 -34 -34 -34 -36 -36 -37 -37 -38 -38 -38 -38 -38 -38 -38 -38 -38 -38 -38 -37 -37 -37 -37 -37 -37 -37 -37 -37 -36 -36 -36 -36 -36
-32 -33 -33 -33 -34 -34 -35 -35 -36 -36 -37 -37 -38 -38 -38 -39 -39 -39 -38 -38 -38 -38 -38 -38 -37 -37 -37 -37 -37 -37 -37 -37 -37 -37 -36 -37 -36 -36

GFSNE_500_temp_057.txt.gz
Temp
-16 -17 -17 -18 -18 -18 -18 -18 -18 -18 -19 -20 -20 -21 -21 -21 -22 -22 -22 -22 -22 -22 -23 -24 -24 -25 -26 -27 -28 -29 -30 -31 -32 -32 -32 -31 -32 -32
-17 -17 -17 -17 -17 -18 -18 -18 -19 -19 -19 -20 -20 -21 -22 -22 -22 -22 -22 -22 -22 -23 -23 -24 -25 -27 -28 -29 -31 -32 -32 -32 -32 -32 -32 -32 -32 -32
-16 -17 -17 -17 -17 -18 -18 -19 -19 -20 -19 -20 -20 -21 -22 -22 -22 -22 -23 -23 -23 -23 -24 -26 -27 -29 -31 -32 -32 -32 -33 -33 -32 -32 -33 -33 -33 -33
-17 -17 -17 -17 -18 -18 -19 -19 -19 -20 -20 -20 -21 -22 -22 -22 -23 -23 -23 -24 -24 -25 -26 -27 -28 -30 -31 -32 -32 -33 -33 -33 -33 -33 -33 -33 -33 -33
-17 -17 -18 -18 -19 -19 -19 -19 -20 -20 -20 -21 -21 -22 -22 -23 -23 -23 -24 -25 -26 -27 -28 -29 -31 -31 -32 -32 -32 -33 -33 -33 -33 -34 -34 -34 -34 -34
-17 -18 -18 -18 -18 -18 -19 -20 -20 -20 -21 -22 -22 -22 -22 -23 -23 -24 -25 -26 -27 -28 -30 -31 -32 -32 -33 -33 -33 -33 -33 -34 -34 -34 -34 -34 -34 -34
-18 -18 -18 -18 -19 -19 -19 -20 -20 -21 -22 -22 -22 -22 -23 -23 -24 -25 -26 -27 -28 -30 -32 -32 -33 -33 -33 -33 -33 -33 -33 -34 -34 -35 -35 -35 -34 -34
-18 -18 -18 -19 -19 -19 -20 -20 -21 -22 -22 -22 -22 -23 -23 -24 -26 -27 -28 -29 -30 -32 -33 -33 -34 -34 -34 -34 -34 -34 -34 -35 -35 -35 -35 -35 -34 -34
-18 -19 -19 -19 -20 -20 -20 -21 -21 -22 -23 -23 -23 -23 -24 -25 -26 -28 -29 -30 -31 -32 -33 -33 -34 -34 -34 -34 -34 -34 -35 -35 -35 -35 -35 -35 -34 -34
-19 -19 -19 -20 -20 -21 -21 -21 -22 -22 -23 -23 -24 -24 -25 -26 -27 -29 -30 -31 -32 -32 -33 -34 -35 -35 -35 -35 -35 -35 -35 -35 -35 -35 -35 -35 -34 -34
-19 -19 -20 -20 -21 -21 -21 -21 -22 -22 -23 -24 -25 -26 -26 -27 -29 -30 -31 -32 -32 -33 -34 -36 -35 -35 -35 -36 -36 -36 -35 -35 -35 -35 -35 -35 -34 -34
-20 -20 -21 -21 -21 -21 -22 -22 -22 -23 -24 -24 -25 -26 -27 -28 -30 -31 -32 -32 -32 -33 -36 -36 -36 -36 -35 -36 -36 -36 -36 -36 -36 -35 -35 -35 -34 -34
-20 -21 -21 -21 -22 -22 -23 -23 -24 -24 -24 -25 -26 -27 -28 -30 -31 -32 -32 -33 -36 -35 -35 -37 -36 -36 -36 -36 -36 -36 -36 -36 -36 -36 -35 -35 -35 -35
-21 -21 -21 -22 -22 -23 -23 -24 -24 -25 -25 -26 -27 -28 -30 -31 -32 -32 -32 -33 -34 -35 -36 -36 -36 -36 -36 -36 -36 -36 -36 -36 -36 -36 -36 -35 -35 -35
-21 -22 -22 -22 -22 -23 -24 -25 -25 -26 -27 -27 -29 -30 -31 -32 -32 -32 -33 -33 -35 -35 -36 -36 -36 -36 -36 -36 -36 -37 -36 -36 -36 -36 -36 -36 -36 -36
-22 -22 -22 -23 -23 -24 -25 -26 -26 -27 -28 -29 -30 -31 -32 -32 -32 -33 -34 -35 -35 -36 -37 -37 -37 -37 -37 -37 -37 -37 -36 -36 -36 -36 -36 -36 -36 -36
-22 -23 -23 -24 -24 -25 -26 -26 -28 -29 -30 -31 -31 -32 -33 -33 -33 -35 -35 -36 -36 -37 -38 -37 -37 -37 -37 -37 -37 -37 -36 -36 -36 -36 -36 -36 -36 -36
-23 -23 -24 -24 -25 -26 -26 -27 -29 -30 -31 -32 -32 -33 -33 -33 -35 -36 -36 -37 -37 -37 -38 -38 -37 -37 -37 -37 -37 -37 -36 -37 -37 -36 -36 -36 -36 -36
-24 -24 -25 -25 -26 -27 -28 -29 -30 -31 -32 -33 -33 -34 -34 -35 -36 -36 -37 -37 -38 -38 -38 -38 -37 -37 -37 -37 -37 -37 -37 -37 -37 -37 -36 -36 -36 -36
-25 -25 -26 -26 -27 -29 -30 -31 -32 -33 -33 -34 -34 -35 -35 -36 -37 -37 -37 -38 -38 -38 -38 -38 -37 -37 -38 -37 -37 -37 -37 -37 -37 -37 -37 -37 -36 -37
-26 -26 -27 -28 -30 -31 -31 -32 -33 -33 -34 -35 -35 -36 -36 -37 -38 -38 -38 -38 -38 -38 -38 -38 -38 -38 -38 -37 -37 -37 -37 -37 -37 -37 -37 -37 -36 -37
-26 -27 -29 -31 -31 -32 -32 -33 -34 -35 -35 -36 -36 -37 -37 -38 -39 -38 -38 -38 -39 -38 -38 -38 -38 -38 -38 -37 -37 -37 -37 -37 -37 -37 -37 -37 -37 -36
-29 -30 -31 -32 -32 -33 -33 -34 -34 -35 -36 -36 -37 -37 -37 -38 -39 -39 -39 -39 -39 -39 -38 -38 -38 -38 -38 -38 -37 -37 -37 -38 -38 -38 -37 -37 -37 -37

GFSNE_500_temp_060.txt.gz
Temp
-16 -16 -16 -16 -16 -17 -17 -17 -17 -17 -18 -18 -19 -19 -19 -19 -20 -20 -20 -21 -21 -22 -22 -22 -23 -23 -23 -24 -25 -26 -27 -27 -28 -30 -31 -32 -32 -32
-16 -16 -16 -16 -17 -17 -17 -17 -18 -18 -17 -18 -19 -19 -20 -20 -20 -21 -21 -22 -22 -22 -23 -23 -23 -24 -24 -25 -26 -28 -30 -31 -31 -32 -32 -33 -33 -33
-16 -16 -16 -17 -17 -17 -17 -18 -18 -18 -18 -18 -18 -19 -20 -20 -21 -21 -22 -22 -22 -23 -23 -23 -24 -24 -25 -27 -28 -30 -31 -32 -32 -33 -33 -33 -33 -33
-17 -17 -17 -17 -17 -17 -18 -18 -18 -18 -18 -18 -19 -20 -20 -21 -21 -21 -22 -23 -23 -23 -24 -24 -25 -26 -27 -29 -30 -32 -32 -33 -33 -33 -33 -33 -33 -33
-17 -17 -17 -17 -17 -17 -18 -18 -18 -18 -18 -19 -19 -20 -20 -21 -21 -22 -23 -23 -23 -24 -25 -25 -27 -28 -30 -31 -32 -32 -33 -33 -34 -34 -34 -33 -33 -33
-17 -17 -17 -17 -18 -18 -18 -18 -18 -19 -19 -19 -20 -20 -21 -21 -22 -22 -22 -23 -23 -24 -25 -26 -28 -30 -32 -32 -34 -33 -34 -34 -34 -34 -34 -34 -34 -34
-17 -17 -18 -18 -18 -18 -18 -19 -19 -19 -19 -20 -20 -21 -21 -22 -22 -23 -23 -24 -24 -25 -27 -28 -30 -31 -32 -33 -34 -34 -34 -34 -34 -34 -34 -34 -34 -35
-17 -18 -18 -18 -18 -19 -19 -19 -19 -19 -20 -20 -21 -21 -21 -22 -23 -23 -24 -25 -25 -26 -28 -29 -31 -32 -33 -34 -34 -35 -35 -35 -35 -34 -34 -35 -35 -35
-18 -18 -18 -18 -19 -19 -19 -19 -20 -20 -21 -21 -21 -22 -22 -23 -23 -24 -24 -25 -26 -28 -30 -31 -32 -32 -34 -34 -35 -35 -36 -35 -35 -35 -35 -35 -35 -35
-18 -19 -19 -19 -19 -19 -19 -20 -21 -21 -21 -22 -22 -22 -23 -24 -25 -25 -25 -26 -27 -29 -31 -32 -32 -33 -35 -35 -36 -36 -36 -36 -35 -35 -35 -36 -35 -35
-19 -19 -19 -19 -20 -20 -20 -20 -21 -21 -22 -22 -23 -23 -24 -25 -26 -26 -26 -27 -29 -30 -32 -33 -33 -34 -35 -36 -36 -37 -36 -36 -35 -36 -36 -36 -35 -35
-19 -20 -20 -20 -20 -20 -21 -21 -21 -21 -22 -22 -23 -24 -24 -25 -26 -26 -27 -29 -30 -31 -32 -33 -33 -35 -36 -36 -37 -37 -37 -36 -36 -36 -36 -36 -36 -35
-20 -20 -20 -20 -20 -21 -21 -21 -22 -22 -22 -22 -23 -23 -24 -25 -26 -27 -29 -31 -32 -32 -33 -33 -35 -37 -36 -37 -37 -37 -37 -36 -36 -36 -36 -36 -36 -35
-20 -20 -20 -20 -21 -22 -22 -22 -22 -22 -22 -22 -23 -24 -24 -25 -27 -29 -30 -32 -32 -33 -33 -35 -36 -36 -36 -37 -37 -37 -36 -36 -36 -36 -36 -36 -36 -35
-20 -20 -20 -21 -22 -23 -23 -23 -22 -23 -23 -23 -24 -25 -25 -27 -29 -30 -31 -33 -33 -33 -34 -36 -36 -37 -37 -37 -37 -37 -37 -37 -36 -36 -36 -36 -36 -35
-20 -20 -21 -22 -22 -23 -23 -23 -23 -23 -24 -25 -25 -26 -27 -29 -31 -32 -32 -33 -34 -35 -36 -36 -36 -37 -38 -37 -37 -37 -37 -37 -37 -37 -36 -36 -36 -36
-21 -21 -21 -22 -22 -23 -23 -23 -24 -25 -26 -26 -27 -28 -30 -31 -32 -32 -33 -34 -35 -36 -36 -37 -37 -38 -38 -37 -37 -37 -37 -37 -37 -37 -36 -36 -36 -36
-21 -22 -22 -23 -23 -23 -24 -24 -25 -26 -27 -28 -29 -30 -31 -32 -32 -33 -34 -35 -36 -37 -38 -38 -38 -38 -38 -38 -38 -37 -37 -37 -37 -37 -37 -36 -36 -36
-22 -22 -23 -24 -24 -24 -25 -26 -26 -27 -29 -30 -31 -31 -32 -33 -33 -34 -35 -36 -37 -38 -38 -38 -38 -38 -38 -38 -38 -37 -37 -37 -37 -37 -37 -37 -36 -36
-23 -23 -24 -24 -25 -26 -26 -27 -28 -30 -31 -31 -32 -32 -33 -34 -35 -36 -36 -37 -38 -38 -38 -38 -38 -38 -38 -38 -38 -38 -37 -37 -37 -37 -37 -37 -36 -36
-24 -25 -25 -26 -26 -27 -28 -29 -31 -31 -32 -32 -32 -33 -34 -35 -36 -37 -37 -38 -39 -39 -39 -38 -39 -38 -38 -38 -38 -38 -37 -37 -37 -37 -37 -37 -37 -37
-25 -26 -26 -27 -27 -28 -30 -31 -32 -32 -32 -32 -33 -34 -35 -36 -37 -37 -38 -38 -39 -39 -39 -39 -39 -39 -38 -38 -38 -38 -37 -37 -37 -37 -37 -37 -36 -37
-26 -27 -27 -28 -29 -31 -31 -32 -32 -33 -33 -33 -34 -35 -36 -37 -37 -38 -38 -39 -39 -39 -39 -39 -39 -39 -39 -39 -38 -38 -38 -38 -37 -38 -38 -37 -37 -37

GFSNE_500_temp_063.txt.gz
Temp
-17 -16 -16 -16 -16 -16 -16 -16 -16 -16 -17 -17 -18 -18 -18 -18 -18 -18 -19 -19 -20 -20 -21 -21 -21 -22 -22 -23 -23 -23 -24 -25 -26 -27 -28 -29 -30 -31
-16 -16 -16 -16 -16 -17 -17 -16 -17 -17 -17 -17 -18 -18 -19 -19 -19 -19 -19 -20 -20 -21 -21 -22 -22 -22 -23 -23 -24 -24 -25 -26 -28 -29 -30 -31 -32 -32
-16 -16 -16 -16 -17 -16 -17 -17 -17 -17 -17 -18 -18 -18 -19 -19 -19 -19 -20 -20 -21 -21 -22 -22 -22 -23 -24 -24 -25 -25 -27 -28 -30 -31 -31 -32 -33 -33
-16 -16 -16 -17 -17 -17 -17 -17 -17 -17 -18 -18 -18 -19 -19 -19 -19 -20 -20 -21 -21 -22 -22 -22 -23 -24 -24 -25 -26 -27 -30 -31 -32 -33 -32 -32 -33 -34
-17 -17 -17 -17 -17 -17 -17 -17 -18 -18 -19 -19 -19 -19 -19 -19 -20 -21 -21 -21 -22 -22 -23 -23 -24 -25 -25 -26 -28 -29 -31 -33 -33 -33 -33 -34 -34 -34
-17 -17 -17 -17 -17 -17 -18 -18 -18 -19 -19 -19 -19 -19 -20 -20 -20 -21 -21 -22 -22 -23 -24 -24 -25 -25 -26 -27 -28 -30 -32 -33 -34 -34 -34 -35 -34 -34
-17 -17 -17 -17 -18 -18 -18 -18 -19 -19 -19 -19 -20 -20 -20 -21 -21 -21 -22 -22 -22 -23 -24 -24 -25 -25 -26 -28 -30 -31 -32 -33 -33 -35 -35 -35 -35 -35
-18 -18 -18 -18 -18 -18 -19 -19 -19 -19 -20 -20 -20 -21 -21 -21 -21 -22 -22 -22 -22 -23 -23 -23 -24 -25 -27 -29 -31 -32 -33 -33 -34 -35 -35 -35 -35 -35
-18 -18 -18 -18 -19 -19 -19 -20 -20 -20 -20 -20 -20 -21 -22 -22 -22 -22 -22 -22 -22 -23 -24 -23 -25 -26 -29 -31 -32 -33 -33 -33 -35 -35 -36 -36 -36 -36
-18 -18 -18 -19 -19 -19 -20 -20 -20 -20 -20 -20 -20 -21 -22 -22 -22 -22 -22 -22 -22 -23 -25 -25 -26 -28 -31 -32 -33 -33 -34 -35 -35 -36 -36 -36 -36 -36
-18 -18 -19 -19 -20 -20 -20 -20 -20 -20 -20 -20 -21 -22 -23 -23 -23 -23 -24 -23 -23 -24 -26 -26 -28 -30 -32 -33 -33 -34 -35 -36 -36 -36 -36 -36 -36 -36
-19 -19 -19 -19 -20 -20 -20 -20 -20 -20 -21 -21 -22 -23 -23 -24 -24 -25 -25 -24 -25 -25 -27 -28 -30 -31 -32 -33 -34 -36 -37 -37 -36 -37 -36 -36 -36 -36
-19 -19 -19 -20 -20 -20 -20 -20 -20 -21 -21 -21 -22 -22 -23 -24 -24 -25 -25 -26 -26 -26 -29 -30 -30 -32 -34 -34 -35 -37 -37 -37 -37 -37 -36 -36 -37 -36
-19 -20 -20 -20 -20 -20 -21 -21 -21 -21 -21 -22 -22 -23 -24 -24 -25 -25 -26 -27 -28 -29 -30 -31 -31 -33 -34 -36 -37 -37 -37 -37 -37 -37 -37 -37 -36 -36
-20 -20 -21 -20 -20 -20 -21 -21 -21 -22 -22 -23 -24 -24 -24 -25 -25 -26 -27 -28 -29 -31 -31 -31 -32 -34 -36 -37 -38 -37 -37 -37 -37 -37 -37 -37 -36 -36
-20 -20 -20 -20 -21 -21 -21 -22 -22 -23 -23 -24 -24 -25 -25 -26 -26 -27 -28 -29 -30 -31 -32 -33 -34 -35 -36 -37 -38 -38 -38 -37 -37 -37 -37 -37 -36 -36
-20 -20 -21 -21 -22 -22 -22 -23 -23 -24 -24 -25 -25 -26 -26 -27 -28 -29 -30 -31 -32 -32 -33 -35 -36 -36 -37 -38 -38 -38 -38 -38 -38 -37 -37 -37 -37 -37
-20 -21 -21 -22 -22 -22 -23 -24 -24 -25 -25 -26 -26 -27 -28 -29 -30 -31 -32 -32 -32 -33 -34 -36 -37 -38 -38 -38 -38 -38 -38 -38 -38 -38 -37 -37 -37 -37
-21 -22 -22 -22 -23 -23 -24 -25 -25 -26 -27 -27 -27 -28 -30 -30 -31 -32 -32 -33 -34 -34 -35 -37 -38 -39 -39 -38 -38 -38 -38 -38 -38 -38 -37 -37 -37 -37
-22 -22 -22 -23 -24 -24 -25 -26 -26 -27 -27 -28 -29 -30 -31 -31 -32 -33 -33 -33 -35 -36 -37 -38 -39 -39 -39 -39 -38 -38 -38 -38 -38 -38 -37 -37 -37 -37
-22 -23 -24 -24 -25 -26 -26 -27 -27 -28 -28 -30 -31 -32 -32 -32 -33 -33 -34 -34 -36 -37 -38 -39 -39 -39 -39 -39 -39 -38 -38 -38 -38 -38 -37 -37 -37 -37
-24 -25 -25 -26 -26 -26 -27 -27 -28 -30 -31 -32 -32 -32 -33 -33 -33 -34 -35 -36 -37 -38 -39 -39 -39 -39 -39 -39 -39 -38 -38 -38 -38 -38 -38 -38 -37 -37
-25 -25 -26 -26 -27 -27 -28 -29 -30 -32 -32 -32 -33 -33 -34 -34 -34 -35 -36 -37 -38 -39 -39 -39 -39 -39 -39 -39 -39 -39 -39 -38 -38 -38 -38 -38 -38 -37

GFSNE_500_temp_066.txt.gz
Temp
-16 -16 -16 -16 -16 -17 -16 -16 -16 -16 -16 -17 -17 -17 -18 -18 -18 -18 -19 -19 -19 -19 -19 -19 -20 -21 -21 -21 -22 -22 -23 -23 -24 -24 -24 -25 -26 -27
-16 -16 -16 -17 -16 -16 -16 -17 -17 -17 -17 -17 -17 -17 -18 -18 -19 -19 -19 -19 -19 -19 -20 -20 -21 -21 -22 -22 -22 -23 -23 -24 -25 -25 -26 -27 -29 -30
-16 -16 -16 -16 -16 -17 -17 -17 -17 -18 -17 -18 -17 -18 -18 -18 -19 -19 -19 -20 -20 -20 -21 -21 -21 -22 -22 -22 -23 -24 -24 -25 -26 -26 -27 -29 -31 -32
-16 -17 -16 -17 -17 -17 -17 -17 -18 -18 -18 -17 -17 -18 -18 -19 -19 -19 -20 -20 -20 -21 -21 -22 -22 -22 -22 -23 -23 -24 -24 -25 -25 -26 -29 -31 -32 -33
-17 -16 -17 -17 -17 -17 -18 -18 -18 -17 -18 -18 -18 -18 -18 -19 -19 -19 -19 -20 -20 -21 -22 -22 -22 -23 -23 -23 -24 -24 -25 -25 -26 -28 -30 -32 -33 -34
-17 -17 -17 -17 -18 -18 -18 -18 -18 -18 -18 -18 -18 -18 -19 -19 -19 -20 -20 -20 -20 -21 -22 -22 -23 -23 -23 -24 -24 -24 -25 -26 -27 -29 -31 -32 -33 -35
-17 -17 -17 -17 -18 -18 -18 -18 -18 -18 -19 -19 -19 -19 -19 -20 -20 -20 -20 -20 -20 -21 -22 -23 -23 -23 -24 -24 -24 -24 -25 -26 -29 -31 -32 -33 -33 -34
-17 -17 -18 -18 -18 -18 -18 -18 -18 -19 -19 -19 -20 -20 -20 -20 -20 -20 -20 -20 -20 -22 -22 -22 -23 -23 -23 -24 -24 -24 -25 -28 -30 -31 -33 -33 -34 -35
-18 -18 -18 -18 -18 -18 -18 -19 -19 -19 -19 -20 -20 -20 -21 -21 -21 -21 -21 -21 -21 -22 -22 -22 -23 -23 -24 -24 -24 -25 -27 -30 -31 -32 -33 -34 -35 -36
-18 -18 -18 -18 -18 -19 -19 -19 -19 -20 -20 -20 -20 -21 -21 -21 -21 -21 -21 -21 -22 -22 -23 -22 -23 -23 -23 -24 -25 -27 -29 -31 -33 -33 -34 -35 -36 -37
-17 -18 -18 -18 -19 -19 -19 -20 -20 -20 -20 -20 -21 -21 -21 -21 -21 -21 -22 -22 -22 -23 -25 -24 -24 -24 -24 -26 -27 -29 -30 -32 -33 -34 -35 -37 -37 -37
-18 -18 -18 -19 -19 -19 -20 -20 -21 -21 -21 -21 -21 -21 -21 -21 -22 -22 -23 -23 -24 -23 -26 -24 -25 -26 -26 -27 -29 -31 -31 -32 -34 -36 -37 -37 -37 -37
-18 -18 -19 -19 -19 -19 -20 -20 -20 -21 -21 -21 -21 -22 -22 -23 -23 -24 -24 -25 -25 -26 -27 -26 -26 -27 -28 -30 -31 -32 -32 -34 -36 -37 -38 -37 -37 -37
-18 -18 -19 -19 -20 -21 -21 -21 -21 -21 -21 -21 -21 -22 -23 -23 -24 -25 -25 -26 -27 -27 -27 -28 -28 -29 -30 -31 -32 -33 -34 -36 -37 -37 -37 -37 -37 -37
-19 -19 -20 -20 -21 -20 -20 -20 -21 -21 -21 -21 -22 -23 -23 -24 -25 -25 -26 -26 -27 -28 -29 -29 -30 -30 -31 -32 -32 -34 -36 -37 -37 -38 -38 -37 -37 -37
-20 -20 -20 -20 -21 -20 -20 -21 -21 -21 -22 -22 -23 -24 -24 -25 -25 -26 -27 -27 -28 -29 -30 -30 -31 -32 -32 -33 -34 -36 -37 -37 -38 -38 -37 -37 -37 -37
-19 -20 -20 -20 -20 -21 -21 -21 -21 -22 -23 -23 -24 -24 -25 -25 -26 -27 -28 -28 -29 -30 -30 -32 -32 -33 -34 -34 -36 -37 -38 -38 -38 -38 -38 -38 -37 -37
-20 -20 -20 -21 -21 -21 -21 -21 -22 -23 -23 -24 -24 -25 -26 -27 -28 -28 -29 -29 -30 -31 -32 -32 -33 -34 -35 -36 -38 -38 -38 -39 -38 -38 -38 -38 -37 -37
-20 -20 -20 -21 -21 -21 -22 -23 -23 -24 -24 -25 -26 -26 -27 -28 -29 -29 -30 -31 -31 -32 -33 -33 -34 -35 -36 -37 -38 -39 -39 -39 -39 -38 -38 -38 -38 -37
-20 -21 -21 -21 -22 -22 -22 -23 -24 -24 -25 -26 -27 -28 -28 -29 -30 -31 -31 -32 -32 -33 -34 -34 -35 -36 -37 -39 -39 -39 -39 -39 -39 -38 -38 -38 -38 -37
-21 -21 -22 -22 -22 -23 -23 -24 -25 -26 -27 -27 -28 -28 -29 -31 -31 -32 -32 -33 -33 -34 -34 -35 -36 -37 -38 -39 -39 -39 -39 -39 -39 -38 -38 -38 -38 -38
-22 -22 -23 -23 -24 -25 -25 -26 -27 -27 -28 -28 -29 -31 -31 -32 -32 -33 -33 -34 -34 -35 -35 -36 -38 -38 -39 -39 -39 -39 -39 -39 -39 -39 -38 -38 -38 -38
-23 -24 -25 -25 -26 -26 -27 -27 -28 -29 -30 -30 -31 -32 -32 -33 -33 -34 -34 -35 -35 -35 -36 -38 -39 -39 -39 -39 -39 -39 -39 -39 -39 -39 -39 -38 -38 -38

GFSNE_500_temp_069.txt.gz
Temp
-16 -16 -16 -15 -16 -16 -16 -16 -16 -17 -17 -17 -17 -17 -18 -18 -17 -17 -18 -18 -18 -18 -18 -19 -19 -19 -19 -20 -20 -21 -21 -22 -22 -22 -22 -23 -23 -24
-16 -16 -16 -16 -16 -16 -16 -17 -17 -17 -17 -17 -17 -18 -18 -18 -18 -18 -18 -18 -18 -19 -19 -19 -19 -19 -20 -20 -20 -21 -21 -21 -22 -23 -23 -23 -24 -24
-16 -16 -16 -16 -16 -16 -16 -17 -18 -18 -17 -17 -17 -17 -18 -18 -18 -18 -18 -18 -19 -19 -19 -19 -20 -20 -20 -21 -21 -21 -21 -22 -23 -23 -23 -24 -24 -25
-16 -15 -16 -16 -16 -16 -17 -17 -17 -17 -17 -17 -18 -18 -18 -18 -18 -18 -19 -19 -19 -19 -20 -20 -21 -21 -21 -21 -21 -21 -22 -23 -23 -23 -24 -24 -24 -25
-16 -16 -16 -16 -16 -17 -17 -17 -17 -17 -17 -18 -18 -18 -18 -19 -19 -19 -19 -19 -19 -20 -21 -21 -21 -21 -21 -21 -22 -22 -23 -23 -24 -24 -24 -24 -25 -27
-16 -16 -16 -17 -17 -18 -17 -17 -17 -17 -18 -18 -18 -18 -19 -19 -19 -19 -19 -19 -20 -21 -21 -21 -21 -21 -22 -22 -23 -24 -24 -24 -24 -24 -25 -25 -26 -29
-16 -16 -17 -17 -17 -17 -17 -17 -18 -18 -18 -18 -18 -19 -19 -19 -19 -19 -19 -20 -21 -21 -21 -21 -22 -22 -23 -23 -24 -24 -24 -24 -24 -24 -25 -25 -27 -30
-17 -17 -17 -17 -17 -17 -17 -18 -18 -18 -18 -19 -19 -19 -19 -19 -19 -20 -20 -21 -21 -21 -21 -22 -22 -22 -22 -23 -23 -24 -24 -24 -24 -25 -26 -27 -30 -32
-17 -16 -17 -17 -17 -18 -18 -18 -18 -18 -18 -19 -19 -19 -20 -20 -20 -21 -21 -21 -21 -21 -21 -21 -22 -21 -22 -23 -24 -24 -24 -24 -25 -26 -27 -29 -31 -32
-16 -17 -17 -17 -18 -18 -18 -18 -18 -18 -19 -19 -20 -20 -20 -20 -21 -21 -20 -20 -21 -22 -22 -21 -22 -22 -22 -23 -24 -25 -24 -25 -26 -27 -29 -30 -31 -34
-17 -17 -18 -17 -18 -18 -18 -18 -19 -19 -20 -20 -21 -21 -20 -21 -21 -21 -21 -21 -21 -22 -23 -22 -22 -23 -23 -24 -25 -25 -26 -26 -27 -29 -30 -31 -34 -36
-17 -17 -17 -18 -18 -18 -19 -19 -20 -20 -20 -21 -21 -21 -21 -21 -21 -21 -21 -21 -22 -22 -23 -22 -23 -24 -23 -25 -26 -26 -27 -28 -29 -30 -31 -33 -36 -37
-18 -18 -18 -18 -18 -19 -20 -20 -20 -21 -21 -21 -21 -20 -21 -21 -21 -21 -21 -22 -22 -23 -25 -24 -25 -26 -26 -27 -27 -28 -29 -30 -31 -32 -33 -35 -37 -37
-18 -18 -18 -18 -19 -19 -20 -21 -21 -21 -21 -20 -20 -21 -21 -21 -21 -22 -22 -23 -24 -25 -26 -26 -26 -27 -28 -28 -29 -30 -31 -31 -32 -33 -35 -37 -37 -37
-18 -18 -19 -19 -20 -20 -20 -20 -21 -21 -20 -21 -21 -21 -21 -22 -22 -23 -23 -24 -25 -26 -27 -28 -28 -28 -29 -30 -31 -31 -32 -32 -34 -35 -36 -38 -38 -37
-19 -19 -19 -20 -20 -20 -20 -21 -21 -21 -21 -21 -21 -21 -22 -22 -23 -23 -24 -25 -25 -27 -28 -29 -30 -30 -31 -31 -32 -32 -32 -33 -35 -36 -37 -38 -37 -37
-19 -19 -20 -20 -20 -20 -21 -21 -21 -21 -21 -21 -21 -22 -22 -22 -23 -24 -24 -25 -26 -27 -28 -30 -31 -31 -32 -32 -33 -33 -34 -35 -36 -37 -38 -38 -38 -37
-20 -20 -20 -20 -20 -20 -21 -21 -21 -21 -21 -21 -22 -22 -23 -23 -24 -25 -26 -27 -28 -28 -29 -31 -31 -32 -33 -33 -34 -35 -35 -37 -37 -38 -38 -38 -38 -38
-20 -20 -20 -20 -20 -21 -21 -20 -21 -21 -22 -22 -23 -23 -23 -24 -25 -26 -27 -28 -28 -29 -31 -32 -32 -33 -33 -34 -34 -35 -36 -38 -38 -38 -39 -38 -38 -38
-21 -21 -21 -21 -21 -21 -21 -21 -22 -22 -22 -23 -23 -24 -25 -26 -27 -28 -28 -29 -30 -31 -32 -33 -33 -33 -34 -35 -35 -36 -37 -39 -39 -39 -39 -39 -38 -38
-21 -21 -21 -21 -21 -22 -22 -22 -22 -23 -23 -24 -25 -26 -27 -27 -28 -29 -30 -30 -31 -32 -32 -33 -34 -34 -35 -35 -36 -38 -39 -39 -39 -39 -39 -39 -38 -38
-21 -21 -21 -22 -22 -22 -22 -23 -23 -24 -25 -26 -26 -27 -28 -29 -29 -30 -31 -32 -32 -33 -33 -34 -35 -35 -35 -36 -38 -39 -39 -39 -39 -39 -39 -39 -38 -38
-22 -22 -22 -22 -23 -23 -24 -25 -25 -26 -27 -27 -28 -29 -30 -31 -31 -32 -32 -33 -33 -34 -34 -35 -35 -36 -37 -38 -39 -39 -39 -39 -39 -39 -39 -39 -38 -38

GFSNE_500_temp_072.txt.gz
Temp
-16 -16 -16 -16 -16 -16 -16 -16 -16 -16 -16 -16 -16 -17 -17 -17 -17 -17 -17 -18 -18 -18 -18 -18 -18 -18 -18 -18 -19 -19 -19 -20 -20 -21 -20 -21 -21 -22
-16 -16 -16 -16 -16 -16 -17 -16 -16 -16 -15 -16 -17 -17 -17 -17 -17 -17 -18 -18 -18 -18 -18 -18 -18 -18 -19 -19 -19 -19 -20 -20 -20 -20 -21 -21 -22 -23
-16 -16 -16 -16 -16 -16 -16 -16 -16 -16 -16 -16 -16 -17 -17 -17 -17 -18 -18 -18 -18 -18 -18 -18 -18 -18 -19 -19 -20 -20 -20 -21 -21 -21 -21 -22 -23 -24
-16 -15 -16 -16 -16 -16 -15 -16 -16 -16 -16 -17 -17 -17 -17 -17 -18 -18 -18 -18 -18 -18 -18 -18 -19 -19 -19 -20 -20 -21 -21 -21 -21 -21 -21 -22 -22 -23
-15 -15 -15 -15 -15 -16 -16 -16 -16 -16 -17 -17 -17 -17 -17 -17 -17 -17 -18 -18 -18 -19 -19 -19 -19 -20 -21 -21 -21 -21 -21 -21 -21 -22 -22 -23 -24 -24
-15 -15 -15 -15 -15 -15 -16 -16 -16 -17 -17 -17 -17 -18 -18 -17 -18 -18 -18 -18 -19 -19 -19 -20 -20 -21 -21 -21 -21 -21 -21 -22 -22 -22 -23 -24 -24 -25
-16 -15 -15 -16 -15 -16 -16 -16 -16 -17 -17 -17 -18 -18 -18 -18 -18 -18 -18 -19 -19 -19 -20 -20 -20 -21 -21 -21 -21 -22 -22 -22 -23 -23 -23 -24 -25 -25
-16 -16 -16 -16 -16 -16 -16 -16 -17 -17 -17 -17 -17 -18 -18 -18 -18 -19 -19 -19 -19 -20 -20 -21 -21 -21 -21 -21 -22 -22 -23 -23 -23 -24 -25 -25 -25 -25
-16 -16 -16 -16 -16 -16 -17 -17 -17 -17 -17 -17 -17 -18 -18 -18 -18 -19 -19 -19 -20 -20 -20 -20 -21 -21 -21 -22 -22 -23 -23 -23 -24 -24 -25 -25 -25 -26
-16 -16 -17 -16 -17 -17 -17 -17 -17 -18 -18 -17 -18 -18 -18 -19 -19 -19 -20 -20 -20 -21 -21 -20 -21 -21 -21 -22 -23 -23 -23 -23 -24 -25 -26 -26 -26 -27
-16 -16 -16 -17 -16 -16 -17 -17 -17 -18 -18 -17 -18 -18 -19 -19 -20 -20 -20 -20 -21 -21 -21 -21 -21 -21 -21 -22 -23 -24 -24 -24 -25 -25 -26 -26 -28 -29
-16 -16 -17 -17 -17 -17 -17 -17 -18 -18 -18 -18 -18 -19 -19 -20 -20 -20 -21 -21 -21 -21 -21 -21 -22 -22 -21 -22 -24 -25 -25 -25 -26 -27 -27 -29 -30 -31
-17 -17 -17 -17 -18 -18 -19 -18 -18 -18 -18 -19 -19 -19 -20 -20 -21 -21 -21 -21 -21 -21 -21 -22 -22 -22 -22 -22 -25 -26 -26 -27 -27 -28 -30 -31 -31 -32
-17 -17 -17 -18 -18 -17 -18 -18 -19 -19 -19 -19 -20 -20 -20 -21 -21 -21 -21 -21 -21 -21 -22 -22 -22 -23 -24 -25 -26 -27 -28 -28 -29 -31 -31 -32 -33 -34
-18 -18 -18 -17 -17 -18 -18 -19 -19 -19 -19 -20 -20 -20 -21 -21 -21 -21 -21 -21 -21 -22 -23 -23 -24 -25 -26 -26 -27 -28 -29 -30 -31 -32 -33 -33 -34 -36
-18 -18 -18 -18 -18 -18 -18 -19 -19 -20 -20 -20 -21 -21 -21 -21 -21 -21 -21 -22 -22 -23 -24 -25 -26 -27 -27 -28 -28 -30 -31 -32 -32 -33 -34 -35 -36 -38
-18 -18 -18 -18 -18 -19 -19 -20 -20 -20 -20 -21 -21 -21 -21 -21 -21 -21 -22 -22 -23 -24 -25 -27 -27 -28 -29 -29 -31 -32 -32 -33 -34 -34 -34 -36 -37 -38
-18 -18 -18 -18 -19 -20 -20 -21 -21 -21 -21 -21 -21 -21 -21 -22 -22 -23 -23 -24 -24 -25 -26 -27 -28 -29 -30 -31 -32 -32 -33 -34 -34 -35 -36 -37 -38 -38
-19 -20 -20 -21 -21 -21 -21 -21 -21 -21 -21 -21 -22 -22 -22 -23 -23 -23 -23 -24 -24 -25 -27 -28 -29 -30 -31 -32 -33 -33 -34 -34 -35 -36 -37 -38 -38 -38
-21 -21 -21 -21 -21 -22 -22 -22 -22 -21 -21 -21 -22 -22 -22 -22 -23 -23 -24 -25 -26 -28 -29 -30 -31 -32 -32 -32 -33 -34 -35 -35 -36 -37 -38 -39 -39 -38
-21 -21 -22 -22 -22 -22 -22 -22 -22 -22 -22 -22 -22 -22 -22 -23 -24 -25 -26 -27 -28 -29 -30 -31 -32 -33 -33 -33 -34 -35 -36 -36 -38 -39 -39 -39 -39 -39
-22 -22 -22 -22 -22 -22 -22 -22 -22 -22 -23 -23 -23 -24 -24 -25 -26 -27 -28 -29 -30 -31 -32 -32 -33 -33 -34 -34 -35 -36 -37 -38 -39 -40 -40 -39 -39 -39
-22 -23 -23 -23 -22 -23 -23 -23 -23 -23 -24 -24 -24 -25 -26 -27 -28 -29 -30 -31 -32 -32 -33 -33 -34 -34 -35 -35 -36 -37 -38 -40 -40 -39 -39 -39 -39 -39

GFSNE_500_temp_075.txt.gz
Temp
-15 -16 -16 -16 -16 -16 -16 -16 -16 -16 -16 -16 -16 -16 -16 -16 -16 -16 -16 -16 -17 -17 -17 -17 -17 -17 -18 -18 -18 -18 -18 -18 -18 -19 -19 -19 -20 -20
-15 -15 -15 -16 -16 -16 -16 -16 -15 -15 -15 -16 -16 -16 -16 -16 -16 -16 -16 -17 -17 -17 -17 -18 -18 -18 -18 -18 -18 -18 -18 -19 -19 -19 -20 -20 -20 -20
-15 -15 -15 -16 -16 -15 -16 -15 -15 -16 -16 -16 -16 -16 -16 -17 -17 -17 -17 -17 -17 -18 -18 -18 -18 -18 -18 -18 -18 -19 -19 -19 -19 -20 -20 -20 -21 -21
-15 -15 -16 -16 -15 -16 -16 -16 -16 -15 -16 -16 -16 -16 -16 -16 -16 -16 -17 -17 -17 -17 -18 -18 -18 -18 -19 -19 -19 -19 -19 -19 -20 -20 -20 -21 -21 -21
-16 -16 -16 -16 -16 -16 -16 -15 -15 -15 -16 -17 -16 -16 -16 -17 -16 -17 -17 -17 -17 -17 -18 -18 -18 -18 -19 -19 -19 -19 -19 -20 -20 -20 -21 -21 -21 -21
-14 -15 -16 -16 -16 -16 -15 -15 -15 -16 -16 -16 -16 -16 -17 -17 -17 -17 -17 -17 -17 -18 -18 -19 -18 -19 -19 -19 -19 -20 -20 -20 -20 -20 -21 -21 -21 -21
-14 -15 -15 -15 -16 -15 -15 -15 -16 -16 -16 -16 -16 -17 -18 -17 -17 -17 -17 -18 -18 -18 -19 -19 -18 -19 -19 -20 -20 -21 -21 -21 -21 -21 -21 -21 -21 -22
-15 -15 -15 -16 -16 -16 -16 -16 -16 -16 -17 -17 -18 -17 -18 -17 -17 -18 -18 -19 -19 -19 -18 -19 -19 -19 -20 -20 -20 -21 -21 -21 -21 -21 -21 -22 -22 -23
-15 -16 -16 -16 -16 -16 -16 -16 -16 -17 -16 -17 -17 -18 -17 -18 -18 -18 -18 -18 -19 -19 -19 -19 -19 -20 -21 -21 -21 -21 -21 -21 -21 -22 -22 -23 -23 -24
-16 -16 -16 -16 -17 -17 -17 -17 -17 -17 -17 -17 -18 -17 -18 -17 -18 -18 -18 -19 -19 -19 -19 -19 -20 -20 -20 -20 -21 -21 -21 -22 -22 -22 -23 -24 -25 -25
-16 -16 -16 -16 -16 -16 -17 -17 -18 -18 -17 -17 -17 -17 -18 -18 -18 -19 -19 -19 -19 -19 -20 -20 -20 -20 -20 -20 -21 -21 -22 -22 -22 -23 -24 -25 -26 -26
-16 -16 -16 -16 -16 -17 -17 -17 -17 -17 -17 -18 -17 -18 -18 -18 -18 -18 -19 -19 -19 -19 -20 -20 -20 -21 -20 -21 -21 -22 -22 -23 -24 -24 -25 -27 -27 -27
-16 -16 -17 -17 -17 -17 -17 -17 -18 -17 -18 -18 -18 -18 -19 -19 -18 -18 -19 -20 -20 -20 -21 -20 -20 -21 -21 -21 -21 -22 -23 -24 -25 -26 -27 -27 -28 -29
-17 -17 -17 -17 -17 -17 -17 -18 -19 -18 -18 -18 -18 -18 -18 -18 -18 -19 -20 -20 -20 -21 -21 -21 -21 -21 -21 -22 -22 -23 -24 -26 -27 -28 -28 -29 -30 -31
-18 -18 -18 -18 -17 -18 -17 -18 -18 -19 -19 -18 -18 -19 -18 -18 -20 -20 -20 -21 -21 -21 -21 -21 -21 -22 -22 -22 -23 -24 -26 -27 -28 -29 -30 -31 -31 -32
-18 -18 -18 -18 -18 -18 -18 -18 -18 -18 -19 -19 -18 -18 -19 -20 -21 -21 -21 -21 -21 -21 -22 -22 -22 -23 -23 -24 -24 -25 -27 -28 -29 -31 -31 -32 -33 -33
-18 -18 -18 -18 -18 -18 -18 -18 -19 -19 -18 -18 -19 -19 -20 -20 -20 -21 -21 -21 -21 -22 -22 -23 -23 -23 -24 -24 -25 -27 -28 -29 -31 -32 -32 -33 -33 -34
-18 -18 -18 -18 -18 -19 -19 -19 -18 -19 -19 -20 -20 -20 -21 -21 -21 -22 -22 -22 -22 -23 -23 -23 -23 -24 -24 -25 -27 -28 -30 -31 -32 -33 -34 -34 -34 -35
-18 -18 -18 -19 -19 -19 -20 -20 -19 -20 -21 -21 -21 -21 -21 -22 -22 -22 -22 -22 -22 -23 -23 -23 -24 -25 -25 -26 -29 -31 -32 -32 -33 -34 -35 -35 -36 -37
-19 -19 -19 -19 -19 -20 -21 -21 -21 -21 -21 -21 -21 -22 -22 -22 -22 -23 -23 -22 -22 -23 -23 -24 -25 -26 -27 -28 -29 -31 -34 -33 -34 -35 -36 -37 -38 -38
-19 -20 -20 -20 -21 -21 -21 -21 -21 -22 -22 -22 -22 -22 -22 -23 -22 -22 -23 -23 -23 -24 -24 -26 -27 -29 -30 -30 -31 -32 -34 -34 -35 -36 -37 -38 -39 -39
-21 -21 -21 -22 -22 -22 -22 -22 -22 -22 -23 -22 -23 -23 -23 -23 -23 -23 -23 -24 -25 -26 -27 -28 -29 -30 -31 -32 -32 -33 -34 -35 -36 -37 -39 -39 -39 -39
-22 -22 -22 -22 -22 -22 -23 -23 -23 -23 -24 -23 -23 -23 -23 -24 -24 -24 -25 -27 -28 -29 -30 -30 -31 -32 -32 -33 -34 -35 -36 -37 -38 -39 -39 -39 -39 -40

GFSNE_500_temp_078.txt.gz
Temp
-15 -15 -15 -15 -15 -16 -16 -16 -16 -16 -16 -17 -16 -16 -16 -16 -16 -16 -16 -16 -16 -16 -17 -16 -17 -17 -17 -17 -17 -17 -18 -18 -18 -18 -18 -18 -18 -19
-14 -15 -15 -16 -16 -16 -16 -16 -16 -16 -15 -16 -15 -16 -16 -16 -16 -16 -16 -16 -16 -16 -17 -16 -17 -17 -17 -18 -18 -18 -18 -18 -18 -18 -18 -19 -19 -20
-15 -15 -16 -16 -17 -16 -16 -16 -16 -16 -15 -16 -16 -16 -15 -15 -16 -16 -16 -16 -17 -17 -17 -17 -17 -17 -18 -18 -18 -18 -18 -18 -19 -19 -19 -20 -20 -20
-14 -15 -15 -16 -16 -16 -16 -16 -16 -16 -16 -16 -16 -16 -16 -16 -16 -16 -17 -16 -16 -17 -17 -17 -17 -18 -18 -18 -18 -18 -18 -19 -19 -20 -20 -20 -20 -20
-14 -14 -15 -15 -15 -15 -16 -16 -16 -16 -16 -16 -15 -15 -15 -16 -16 -16 -16 -16 -17 -17 -17 -18 -18 -18 -18 -19 -19 -19 -19 -20 -20 -20 -20 -20 -20 -20
-15 -15 -15 -15 -15 -16 -16 -16 -16 -16 -16 -16 -15 -15 -16 -16 -16 -16 -16 -17 -17 -17 -18 -18 -18 -18 -19 -19 -19 -19 -20 -20 -20 -20 -20 -20 -20 -20
-15 -15 -15 -16 -16 -16 -16 -16 -16 -16 -16 -16 -16 -16 -16 -16 -17 -17 -17 -17 -17 -18 -18 -18 -18 -18 -19 -19 -19 -19 -20 -20 -20 -20 -20 -20 -21 -21
-15 -15 -16 -16 -16 -16 -16 -16 -16 -16 -16 -16 -16 -16 -16 -17 -17 -17 -17 -17 -18 -18 -18 -18 -19 -19 -18 -18 -19 -19 -20 -20 -20 -20 -20 -20 -20 -20
-16 -16 -16 -16 -16 -16 -16 -16 -16 -16 -16 -15 -16 -16 -17 -16 -17 -17 -17 -18 -17 -17 -17 -19 -19 -19 -19 -19 -19 -20 -20 -20 -20 -21 -21 -21 -21 -21
-16 -16 -16 -16 -16 -16 -16 -16 -16 -14 -16 -16 -16 -16 -17 -18 -17 -18 -18 -19 -18 -18 -18 -18 -19 -19 -19 -19 -19 -20 -20 -21 -21 -21 -21 -21 -21 -22
-16 -16 -16 -16 -16 -16 -16 -16 -16 -16 -17 -17 -17 -17 -17 -17 -17 -17 -18 -18 -18 -18 -19 -18 -19 -19 -18 -19 -20 -20 -21 -21 -21 -21 -22 -22 -23 -23
-16 -16 -16 -16 -16 -16 -16 -16 -17 -17 -16 -17 -17 -17 -17 -17 -17 -18 -18 -18 -18 -19 -19 -19 -19 -19 -19 -19 -20 -21 -21 -21 -22 -22 -23 -23 -23 -24
-17 -16 -16 -16 -16 -16 -16 -17 -17 -17 -17 -17 -17 -17 -17 -17 -18 -18 -18 -18 -19 -19 -19 -19 -19 -19 -19 -19 -21 -21 -21 -22 -22 -23 -23 -24 -24 -26
-16 -16 -16 -16 -16 -16 -17 -17 -17 -17 -17 -17 -18 -18 -18 -18 -18 -19 -19 -18 -18 -19 -19 -19 -19 -20 -20 -21 -21 -21 -22 -22 -22 -23 -24 -25 -26 -27
-16 -16 -17 -16 -17 -16 -17 -17 -18 -18 -18 -18 -18 -18 -18 -19 -19 -19 -20 -20 -19 -19 -19 -19 -20 -21 -21 -21 -21 -21 -22 -22 -23 -24 -25 -26 -27 -29
-16 -16 -17 -17 -17 -17 -17 -17 -18 -18 -18 -18 -18 -18 -19 -18 -19 -19 -20 -19 -19 -20 -20 -20 -21 -21 -21 -21 -21 -22 -22 -22 -23 -25 -26 -28 -29 -30
-17 -17 -17 -17 -17 -17 -18 -18 -18 -18 -18 -18 -19 -19 -19 -19 -20 -19 -19 -20 -20 -20 -21 -21 -21 -21 -21 -22 -22 -22 -22 -23 -25 -25 -28 -29 -31 -32
-16 -17 -17 -17 -17 -17 -17 -18 -18 -18 -19 -19 -19 -20 -20 -20 -20 -20 -21 -21 -21 -21 -21 -21 -22 -22 -22 -22 -23 -23 -23 -24 -26 -28 -30 -31 -32 -33
-18 -18 -18 -18 -19 -19 -19 -20 -20 -20 -20 -20 -20 -21 -21 -21 -21 -21 -22 -22 -22 -22 -22 -22 -23 -23 -22 -22 -22 -24 -24 -26 -27 -30 -32 -33 -33 -35
-18 -18 -19 -19 -20 -20 -20 -20 -20 -20 -21 -21 -22 -22 -22 -22 -22 -22 -22 -22 -23 -23 -23 -23 -23 -23 -23 -23 -22 -24 -27 -28 -29 -30 -32 -34 -35 -36
-19 -20 -20 -20 -21 -21 -21 -21 -21 -21 -21 -21 -22 -22 -22 -22 -23 -23 -23 -24 -23 -23 -23 -23 -23 -23 -24 -24 -25 -27 -29 -30 -31 -32 -34 -35 -36 -37
-20 -20 -21 -21 -21 -21 -21 -21 -21 -22 -22 -22 -22 -22 -22 -23 -24 -23 -23 -23 -23 -23 -24 -24 -25 -26 -27 -28 -29 -30 -31 -32 -32 -33 -35 -36 -38 -39
-21 -21 -22 -22 -22 -22 -22 -22 -22 -22 -23 -23 -23 -24 -23 -24 -24 -24 -24 -24 -25 -26 -26 -28 -28 -29 -30 -30 -31 -32 -33 -34 -35 -36 -38 -38 -39 -39

GFSNE_500_temp_081.txt.gz
Temp
-15 -15 -15 -15 -16 -16 -16 -15 -15 -15 -16 -16 -16 -16 -16 -16 -16 -16 -16 -16 -15 -15 -16 -16 -16 -16 -17 -17 -17 -17 -17 -17 -17 -17 -17 -17 -18 -18
-14 -14 -15 -15 -15 -16 -16 -16 -16 -16 -15 -16 -17 -17 -16 -16 -17 -16 -16 -16 -16 -16 -16 -16 -17 -17 -17 -17 -17 -17 -17 -17 -17 -17 -17 -18 -18 -18
-14 -14 -14 -15 -15 -15 -16 -16 -16 -16 -15 -16 -16 -16 -16 -16 -16 -16 -16 -16 -16 -16 -16 -17 -17 -17 -17 -17 -17 -17 -17 -18 -18 -18 -18 -18 -19 -19
-15 -14 -15 -15 -15 -15 -15 -16 -15 -16 -16 -15 -16 -16 -16 -16 -16 -16 -16 -16 -16 -16 -16 -17 -17 -17 -17 -17 -17 -18 -18 -18 -18 -18 -19 -19 -19 -19
-14 -14 -15 -15 -15 -16 -16 -16 -16 -16 -16 -16 -15 -16 -17 -16 -16 -16 -16 -16 -16 -16 -16 -17 -17 -17 -17 -17 -17 -18 -18 -18 -19 -19 -19 -19 -19 -19
-15 -15 -15 -15 -15 -16 -16 -16 -16 -16 -16 -17 -16 -16 -16 -16 -16 -16 -16 -16 -16 -16 -17 -17 -17 -17 -17 -18 -18 -18 -18 -19 -19 -19 -19 -19 -19 -19
-16 -16 -16 -15 -15 -16 -16 -16 -17 -16 -16 -16 -17 -17 -16 -16 -16 -16 -16 -17 -17 -17 -17 -17 -17 -18 -18 -18 -18 -19 -19 -19 -19 -20 -19 -19 -19 -19
-16 -16 -16 -16 -16 -16 -17 -17 -16 -16 -16 -16 -17 -16 -16 -17 -16 -16 -17 -16 -17 -17 -17 -17 -18 -18 -18 -18 -19 -18 -19 -19 -19 -19 -19 -19 -19 -20
-17 -17 -16 -16 -16 -16 -17 -16 -16 -16 -16 -17 -16 -16 -16 -16 -17 -16 -17 -17 -17 -17 -18 -17 -17 -18 -18 -18 -18 -19 -19 -19 -19 -19 -19 -19 -20 -20
-16 -17 -17 -16 -16 -17 -17 -16 -16 -16 -16 -16 -16 -16 -16 -16 -17 -16 -17 -17 -17 -17 -17 -18 -18 -18 -18 -19 -18 -19 -19 -19 -20 -19 -19 -20 -21 -21
-16 -16 -16 -16 -16 -16 -16 -16 -16 -16 -16 -16 -16 -16 -16 -16 -16 -16 -17 -17 -17 -17 -17 -18 -18 -19 -19 -18 -19 -20 -20 -20 -20 -19 -20 -21 -21 -21
-16 -16 -16 -16 -16 -17 -17 -16 -16 -16 -16 -16 -16 -16 -16 -17 -17 -17 -17 -18 -17 -18 -18 -18 -18 -19 -19 -19 -20 -20 -20 -20 -20 -20 -21 -21 -21 -21
-16 -16 -16 -16 -17 -17 -16 -16 -16 -16 -16 -16 -16 -17 -17 -17 -18 -18 -18 -18 -18 -18 -18 -18 -19 -19 -19 -19 -20 -20 -20 -20 -20 -21 -21 -21 -22 -22
-15 -15 -15 -15 -15 -16 -16 -16 -16 -17 -16 -16 -16 -17 -17 -18 -17 -18 -18 -18 -18 -18 -18 -19 -19 -20 -20 -20 -20 -20 -20 -20 -20 -21 -21 -22 -22 -23
-16 -15 -15 -15 -15 -15 -16 -16 -16 -16 -16 -16 -17 -17 -18 -17 -18 -18 -19 -19 -19 -19 -19 -19 -20 -20 -20 -20 -20 -20 -20 -21 -21 -21 -22 -22 -23 -23
-16 -16 -16 -16 -16 -16 -16 -16 -16 -17 -17 -17 -17 -17 -18 -18 -18 -18 -18 -19 -19 -20 -20 -21 -21 -20 -21 -20 -20 -20 -20 -20 -21 -22 -22 -22 -23 -23
-16 -16 -16 -16 -16 -16 -16 -16 -17 -17 -17 -17 -18 -18 -18 -18 -19 -19 -19 -20 -21 -21 -21 -21 -21 -21 -21 -21 -20 -21 -21 -22 -22 -22 -22 -22 -23 -25
-15 -16 -16 -16 -16 -17 -17 -17 -17 -18 -18 -18 -18 -18 -19 -20 -20 -20 -20 -20 -21 -21 -21 -21 -21 -21 -21 -22 -22 -22 -22 -22 -22 -22 -22 -22 -23 -27
-16 -17 -17 -17 -17 -17 -17 -18 -18 -18 -18 -19 -19 -20 -20 -20 -20 -21 -21 -21 -21 -21 -21 -21 -21 -21 -21 -22 -22 -23 -22 -22 -22 -22 -23 -24 -25 -29
-18 -17 -18 -18 -19 -19 -19 -19 -19 -20 -21 -21 -21 -21 -21 -21 -21 -21 -21 -21 -21 -21 -22 -22 -22 -22 -22 -22 -22 -23 -23 -23 -23 -24 -25 -28 -29 -31
-18 -19 -19 -19 -19 -20 -20 -20 -21 -21 -21 -21 -21 -21 -22 -22 -22 -22 -22 -22 -22 -22 -22 -22 -22 -22 -23 -23 -23 -24 -25 -26 -26 -27 -29 -30 -31 -33
-20 -21 -21 -21 -21 -21 -21 -21 -21 -21 -22 -22 -22 -22 -22 -22 -22 -22 -22 -23 -23 -23 -23 -23 -24 -24 -24 -25 -26 -27 -28 -29 -30 -30 -31 -33 -34 -36
-21 -21 -21 -21 -22 -22 -22 -22 -22 -22 -22 -22 -22 -22 -22 -23 -23 -23 -23 -23 -23 -24 -25 -25 -26 -27 -28 -29 -30 -30 -30 -31 -32 -33 -34 -35 -36 -38

GFSNE_500_temp_084.txt.gz
Temp
-15 -14 -14 -15 -15 -15 -16 -16 -16 -16 -16 -16 -16 -16 -16 -16 -17 -16 -16 -16 -16 -16 -17 -17 -16 -16 -16 -17 -16 -16 -16 -17 -17 -17 -17 -17 -17 -17
-15 -15 -14 -15 -15 -15 -15 -16 -16 -16 -15 -16 -16 -16 -16 -16 -16 -16 -17 -16 -17 -17 -17 -16 -16 -16 -16 -16 -17 -17 -17 -17 -17 -17 -17 -17 -17 -17
-15 -15 -15 -15 -15 -15 -15 -15 -14 -15 -14 -16 -16 -17 -17 -16 -16 -16 -16 -17 -17 -17 -16 -16 -16 -16 -16 -17 -17 -17 -17 -17 -17 -18 -17 -18 -18 -18
-14 -14 -15 -15 -14 -15 -15 -14 -15 -15 -15 -15 -16 -16 -16 -16 -16 -16 -16 -17 -16 -16 -16 -16 -16 -16 -16 -16 -17 -17 -17 -18 -17 -17 -17 -17 -18 -18
-15 -15 -15 -14 -15 -15 -16 -16 -16 -16 -16 -15 -16 -16 -16 -17 -16 -16 -17 -17 -16 -17 -17 -16 -16 -17 -17 -17 -17 -17 -17 -17 -17 -17 -18 -17 -18 -19
-16 -16 -16 -16 -16 -16 -16 -16 -16 -16 -16 -16 -16 -16 -16 -16 -16 -16 -17 -17 -17 -17 -17 -17 -17 -17 -17 -17 -17 -17 -18 -18 -18 -18 -17 -18 -18 -19
-16 -16 -16 -16 -16 -16 -16 -16 -16 -16 -16 -16 -16 -16 -16 -16 -16 -17 -16 -17 -17 -17 -17 -17 -17 -17 -17 -17 -17 -18 -18 -18 -18 -18 -18 -18 -19 -19
-16 -16 -16 -16 -16 -16 -16 -16 -16 -16 -16 -16 -16 -16 -16 -16 -16 -16 -16 -16 -16 -16 -17 -17 -16 -17 -18 -18 -18 -18 -18 -18 -18 -19 -19 -19 -19 -19
-16 -17 -16 -17 -17 -17 -17 -17 -16 -16 -16 -17 -16 -16 -16 -16 -16 -16 -16 -17 -17 -17 -17 -16 -17 -18 -17 -18 -18 -18 -18 -19 -19 -19 -19 -19 -19 -19
-17 -17 -17 -17 -17 -17 -17 -16 -16 -17 -17 -17 -17 -16 -16 -16 -16 -16 -17 -17 -17 -17 -17 -17 -17 -17 -18 -18 -18 -18 -18 -18 -19 -19 -19 -20 -20 -20
-16 -17 -17 -17 -17 -17 -17 -16 -16 -16 -17 -17 -17 -17 -16 -16 -17 -17 -17 -17 -17 -17 -17 -17 -17 -18 -18 -18 -19 -18 -18 -19 -19 -19 -19 -20 -20 -20
-16 -16 -16 -17 -17 -16 -17 -16 -16 -17 -17 -17 -16 -16 -16 -16 -16 -16 -17 -17 -17 -17 -17 -18 -18 -17 -18 -19 -19 -19 -19 -19 -19 -19 -20 -21 -21 -21
-16 -16 -16 -16 -16 -17 -16 -16 -17 -16 -17 -16 -16 -16 -16 -16 -17 -17 -17 -17 -17 -18 -17 -18 -18 -18 -18 -18 -19 -19 -19 -20 -20 -21 -21 -21 -21 -21
-16 -16 -16 -15 -16 -16 -16 -16 -17 -17 -16 -16 -16 -16 -16 -16 -16 -17 -17 -16 -17 -17 -18 -18 -18 -18 -18 -19 -19 -20 -21 -21 -21 -21 -21 -21 -21 -21
-16 -15 -15 -16 -16 -16 -17 -17 -17 -17 -16 -16 -16 -16 -17 -16 -17 -16 -17 -17 -17 -18 -18 -18 -18 -18 -19 -19 -20 -21 -21 -21 -21 -21 -21 -21 -21 -22
-14 -16 -16 -16 -15 -16 -16 -16 -17 -16 -16 -16 -16 -16 -16 -17 -16 -16 -17 -18 -18 -18 -18 -19 -19 -20 -20 -20 -21 -21 -21 -21 -21 -21 -21 -21 -21 -22
-17 -16 -17 -16 -16 -17 -16 -16 -15 -16 -15 -16 -16 -16 -17 -17 -17 -17 -17 -18 -19 -19 -19 -20 -21 -21 -21 -21 -21 -21 -21 -21 -21 -21 -21 -21 -21 -22
-17 -17 -17 -16 -16 -17 -17 -17 -16 -16 -17 -17 -17 -17 -17 -17 -18 -18 -18 -19 -20 -20 -21 -21 -21 -21 -21 -21 -21 -21 -21 -21 -21 -21 -21 -22 -22 -21
-17 -18 -17 -17 -18 -17 -17 -17 -17 -17 -18 -18 -18 -18 -18 -18 -19 -19 -20 -20 -21 -21 -21 -21 -21 -21 -22 -22 -22 -22 -22 -22 -22 -22 -22 -22 -22 -22
-18 -18 -18 -17 -18 -17 -18 -18 -18 -18 -18 -19 -19 -19 -20 -20 -20 -21 -21 -21 -22 -22 -22 -22 -22 -21 -21 -22 -22 -23 -23 -22 -22 -22 -22 -23 -24 -25
-19 -19 -19 -20 -20 -21 -20 -20 -20 -20 -20 -21 -21 -21 -21 -21 -21 -21 -21 -21 -21 -22 -22 -22 -22 -22 -22 -22 -22 -22 -22 -22 -23 -23 -24 -26 -27 -28
-21 -21 -21 -20 -21 -21 -21 -21 -22 -21 -22 -21 -22 -21 -21 -22 -22 -22 -22 -22 -22 -22 -23 -23 -23 -22 -22 -23 -23 -23 -24 -26 -27 -28 -28 -29 -29 -30
-21 -22 -22 -22 -22 -22 -22 -22 -22 -22 -22 -22 -23 -23 -22 -22 -22 -22 -23 -23 -23 -23 -23 -23 -23 -24 -24 -25 -26 -27 -28 -29 -30 -31 -32 -32 -33 -33

GFSNE_500_temp_087.txt.gz
Temp
-14 -14 -14 -14 -14 -14 -15 -15 -15 -15 -15 -16 -16 -16 -16 -16 -16 -17 -16 -17 -17 -17 -17 -17 -17 -17 -17 -17 -17 -16 -16 -16 -16 -17 -17 -17 -17 -17
-15 -15 -14 -14 -15 -15 -15 -15 -15 -15 -15 -16 -16 -16 -16 -17 -16 -16 -17 -17 -17 -17 -17 -17 -17 -17 -17 -17 -16 -16 -16 -16 -16 -17 -17 -17 -17 -17
-14 -15 -15 -15 -15 -15 -15 -15 -15 -15 -14 -15 -16 -16 -16 -17 -17 -17 -17 -17 -17 -17 -17 -17 -17 -17 -17 -17 -16 -16 -16 -16 -16 -16 -16 -16 -17 -17
-14 -14 -14 -14 -14 -14 -14 -15 -14 -15 -15 -15 -16 -16 -17 -17 -16 -16 -16 -16 -17 -17 -17 -17 -17 -17 -17 -17 -17 -17 -16 -16 -17 -17 -17 -17 -17 -18
-15 -14 -15 -14 -14 -15 -15 -15 -15 -15 -15 -15 -15 -16 -16 -16 -16 -16 -17 -17 -17 -17 -17 -17 -17 -17 -17 -17 -17 -17 -17 -17 -17 -17 -18 -17 -17 -17
-15 -15 -15 -15 -15 -15 -15 -15 -15 -15 -15 -15 -15 -16 -16 -16 -16 -16 -16 -17 -16 -16 -17 -17 -17 -17 -17 -17 -17 -17 -17 -17 -17 -17 -17 -17 -17 -17
-16 -16 -16 -16 -16 -16 -15 -16 -16 -15 -15 -15 -15 -15 -15 -16 -16 -17 -16 -17 -17 -17 -16 -16 -16 -17 -17 -17 -17 -17 -17 -17 -17 -17 -18 -18 -18 -18
-16 -16 -16 -16 -16 -16 -16 -16 -16 -16 -16 -15 -15 -15 -16 -16 -16 -17 -16 -16 -17 -17 -17 -17 -17 -17 -17 -17 -17 -17 -17 -18 -18 -18 -18 -18 -19 -18
-16 -17 -17 -17 -17 -16 -16 -16 -16 -16 -16 -16 -15 -16 -16 -17 -17 -16 -17 -17 -17 -17 -17 -16 -17 -17 -17 -18 -17 -17 -18 -18 -18 -19 -19 -19 -19 -19
-16 -17 -16 -17 -17 -17 -17 -17 -17 -17 -16 -16 -15 -16 -16 -16 -17 -16 -17 -17 -16 -16 -16 -17 -17 -17 -17 -17 -18 -18 -18 -18 -18 -18 -19 -19 -19 -19
-16 -16 -16 -17 -17 -17 -17 -17 -17 -17 -17 -16 -16 -16 -16 -17 -17 -17 -17 -17 -17 -17 -16 -16 -17 -17 -17 -17 -17 -17 -18 -18 -18 -18 -19 -19 -19 -19
-15 -15 -15 -16 -16 -17 -17 -17 -16 -17 -17 -17 -17 -16 -16 -16 -17 -17 -17 -16 -16 -17 -16 -16 -16 -16 -17 -17 -17 -18 -18 -18 -18 -18 -19 -19 -19 -19
-15 -16 -15 -16 -16 -17 -16 -16 -16 -16 -16 -16 -16 -16 -16 -16 -17 -16 -16 -16 -16 -16 -17 -16 -16 -16 -17 -17 -17 -18 -18 -18 -18 -19 -19 -19 -19 -20
-15 -15 -15 -15 -16 -16 -16 -16 -16 -16 -16 -16 -16 -16 -16 -16 -16 -16 -16 -17 -16 -17 -17 -17 -16 -17 -17 -17 -18 -18 -18 -19 -19 -19 -19 -20 -20 -21
-17 -16 -16 -16 -15 -16 -15 -15 -16 -17 -16 -16 -15 -16 -16 -16 -16 -16 -15 -16 -17 -17 -17 -16 -17 -17 -17 -17 -19 -18 -19 -19 -20 -20 -20 -21 -21 -21
-17 -17 -16 -16 -15 -16 -16 -16 -16 -16 -16 -16 -16 -16 -16 -16 -16 -16 -16 -16 -17 -17 -17 -17 -17 -18 -18 -19 -19 -19 -20 -21 -21 -21 -21 -21 -22 -22
-18 -18 -18 -17 -17 -17 -17 -17 -17 -17 -17 -17 -16 -17 -16 -17 -18 -17 -17 -18 -18 -18 -18 -18 -18 -19 -19 -19 -20 -21 -21 -21 -21 -21 -21 -21 -21 -21
-18 -18 -18 -19 -19 -19 -18 -18 -18 -18 -18 -17 -17 -17 -18 -18 -18 -18 -18 -18 -18 -19 -19 -19 -20 -20 -21 -21 -21 -21 -21 -21 -21 -21 -21 -21 -21 -22
-20 -19 -19 -19 -19 -19 -19 -18 -18 -18 -18 -18 -19 -18 -18 -18 -18 -19 -20 -19 -19 -20 -21 -21 -21 -21 -21 -21 -22 -21 -21 -22 -22 -22 -22 -22 -21 -22
-21 -21 -20 -20 -20 -20 -20 -19 -19 -19 -19 -19 -21 -20 -21 -21 -21 -21 -22 -22 -22 -22 -22 -21 -21 -22 -22 -22 -23 -23 -22 -22 -22 -22 -22 -22 -23 -23
-22 -22 -21 -21 -21 -21 -21 -21 -22 -22 -22 -22 -22 -21 -21 -21 -21 -22 -22 -22 -22 -22 -22 -22 -22 -23 -23 -23 -23 -23 -23 -23 -23 -23 -23 -23 -24 -25
-22 -22 -22 -22 -22 -22 -22 -22 -22 -22 -22 -22 -22 -22 -22 -22 -22 -22 -22 -22 -23 -23 -23 -22 -23 -23 -23 -23 -23 -23 -24 -25 -26 -26 -26 -25 -26 -28
-23 -23 -22 -22 -22 -23 -23 -23 -23 -23 -23 -23 -23 -23 -23 -23 -23 -23 -23 -23 -23 -23 -23 -23 -23 -24 -24 -25 -26 -26 -27 -27 -28 -29 -30 -29 -30 -30

GFSNE_500_temp_093.txt.gz
Temp
-14 -14 -14 -14 -14 -14 -14 -14 -14 -14 -14 -14 -14 -15 -15 -15 -15 -16 -16 -16 -16 -16 -16 -16 -16 -16 -16 -17 -16 -16 -16 -16 -17 -17 -17 -17 -17 -17
-14 -14 -15 -15 -14 -14 -14 -14 -14 -14 -14 -15 -15 -15 -15 -15 -15 -16 -16 -16 -16 -16 -16 -16 -16 -16 -16 -16 -16 -16 -16 -16 -16 -16 -16 -17 -17 -17
-14 -14 -14 -14 -14 -14 -14 -15 -14 -15 -14 -15 -15 -15 -15 -15 -15 -15 -15 -15 -15 -15 -15 -15 -16 -16 -16 -16 -16 -16 -17 -17 -17 -17 -17 -17 -17 -17
-14 -14 -14 -14 -14 -14 -14 -15 -15 -14 -15 -14 -15 -15 -15 -15 -15 -15 -15 -15 -15 -15 -15 -16 -16 -16 -16 -16 -17 -17 -17 -17 -17 -17 -17 -17 -17 -17
-14 -14 -14 -14 -14 -15 -15 -15 -15 -14 -14 -14 -14 -15 -15 -15 -15 -15 -15 -15 -15 -16 -16 -16 -16 -16 -16 -16 -17 -16 -16 -17 -17 -17 -17 -17 -17 -17
-15 -15 -15 -15 -15 -15 -15 -15 -15 -14 -14 -14 -15 -15 -15 -16 -15 -16 -16 -16 -16 -16 -16 -16 -16 -17 -17 -17 -17 -17 -17 -17 -17 -17 -17 -17 -17 -17
-15 -15 -15 -15 -15 -15 -15 -15 -15 -15 -15 -15 -15 -15 -15 -16 -16 -16 -15 -16 -16 -16 -17 -17 -17 -17 -17 -17 -17 -17 -17 -17 -17 -17 -17 -17 -17 -17
-15 -15 -16 -16 -16 -16 -15 -16 -16 -15 -15 -16 -15 -15 -15 -16 -16 -16 -16 -16 -15 -17 -17 -16 -17 -17 -17 -17 -17 -17 -17 -17 -17 -17 -17 -17 -17 -17
-15 -15 -15 -15 -16 -16 -16 -16 -16 -16 -15 -15 -15 -15 -15 -16 -16 -16 -16 -16 -16 -16 -16 -16 -16 -17 -17 -17 -17 -17 -17 -17 -17 -17 -16 -16 -17 -17
-16 -16 -15 -15 -16 -15 -16 -16 -16 -16 -16 -16 -15 -15 -15 -15 -15 -16 -16 -16 -16 -16 -17 -17 -17 -17 -16 -16 -17 -17 -17 -17 -17 -17 -17 -17 -17 -17
-16 -16 -15 -16 -15 -15 -15 -15 -16 -16 -16 -16 -16 -15 -15 -15 -15 -16 -16 -16 -16 -16 -16 -16 -17 -16 -16 -16 -17 -17 -17 -17 -17 -17 -17 -17 -17 -17
-16 -16 -16 -16 -16 -16 -16 -16 -15 -16 -16 -16 -16 -16 -16 -16 -16 -16 -16 -16 -16 -16 -16 -16 -16 -16 -16 -16 -16 -17 -16 -16 -16 -16 -17 -17 -17 -17
-16 -16 -16 -16 -16 -16 -16 -16 -16 -17 -16 -16 -16 -16 -16 -16 -16 -16 -16 -16 -16 -16 -16 -16 -16 -16 -16 -16 -16 -16 -16 -17 -16 -17 -17 -17 -17 -17
-18 -18 -17 -17 -17 -17 -17 -17 -17 -17 -17 -17 -17 -16 -16 -16 -17 -17 -16 -16 -16 -17 -17 -17 -16 -16 -16 -17 -17 -17 -17 -16 -17 -17 -17 -17 -18 -18
-19 -19 -18 -18 -18 -18 -18 -18 -17 -17 -17 -17 -17 -17 -17 -17 -16 -17 -17 -17 -17 -17 -17 -17 -17 -17 -17 -18 -17 -17 -17 -17 -17 -17 -18 -18 -18 -18
-19 -19 -19 -19 -18 -18 -18 -18 -18 -18 -18 -18 -18 -17 -17 -17 -18 -18 -18 -17 -18 -18 -18 -18 -19 -19 -18 -18 -18 -18 -18 -18 -18 -18 -18 -19 -19 -20
-19 -19 -19 -19 -19 -19 -19 -19 -19 -19 -19 -19 -18 -18 -18 -18 -19 -20 -20 -20 -20 -20 -19 -19 -19 -19 -19 -19 -19 -19 -19 -20 -20 -20 -21 -21 -22 -22
-20 -20 -20 -20 -20 -20 -20 -20 -20 -20 -20 -20 -20 -20 -20 -21 -21 -21 -21 -21 -21 -21 -20 -20 -20 -21 -21 -21 -21 -21 -22 -22 -22 -22 -22 -22 -22 -22
-20 -20 -20 -20 -20 -20 -20 -20 -20 -20 -20 -21 -21 -21 -21 -21 -22 -22 -22 -22 -22 -22 -22 -22 -22 -22 -23 -23 -23 -23 -23 -23 -23 -23 -23 -23 -23 -23
-21 -21 -21 -21 -21 -21 -21 -21 -21 -21 -22 -22 -22 -23 -23 -22 -23 -23 -23 -23 -23 -23 -23 -23 -23 -23 -23 -23 -23 -23 -23 -23 -23 -23 -23 -24 -24 -23
-22 -22 -22 -22 -22 -22 -23 -23 -23 -23 -23 -23 -24 -23 -24 -23 -23 -23 -24 -23 -23 -24 -24 -24 -24 -24 -24 -24 -24 -24 -24 -24 -24 -24 -24 -24 -24 -25
-23 -24 -24 -24 -24 -24 -24 -24 -24 -24 -24 -24 -24 -24 -24 -24 -24 -24 -24 -24 -24 -25 -25 -25 -25 -25 -25 -25 -25 -25 -25 -24 -24 -24 -24 -24 -24 -25
-26 -26 -26 -26 -26 -26 -26 -26 -25 -26 -25 -25 -25 -25 -25 -25 -25 -25 -25 -26 -26 -25 -25 -25 -25 -26 -26 -26 -26 -26 -26 -26 -27 -26 -26 -26 -27 -27

GFSNE_500_temp_096.txt.gz
Temp
-14 -14 -14 -14 -13 -14 -14 -14 -14 -14 -14 -14 -14 -14 -14 -14 -14 -14 -14 -15 -15 -15 -15 -15 -15 -15 -15 -16 -16 -16 -16 -16 -16 -16 -16 -16 -16 -16
-14 -14 -14 -14 -14 -14 -14 -14 -14 -14 -14 -15 -14 -14 -14 -14 -15 -15 -14 -15 -15 -14 -15 -15 -15 -15 -15 -15 -16 -16 -16 -16 -16 -16 -16 -16 -17 -17
-13 -13 -13 -13 -14 -14 -14 -14 -14 -14 -14 -14 -14 -14 -14 -14 -14 -15 -15 -15 -15 -15 -15 -16 -16 -16 -16 -15 -15 -15 -16 -16 -16 -16 -17 -17 -17 -17
-13 -13 -14 -14 -14 -14 -14 -14 -14 -14 -14 -14 -14 -14 -14 -14 -14 -14 -15 -15 -15 -15 -15 -15 -16 -16 -16 -16 -15 -15 -15 -15 -15 -16 -16 -16 -16 -17
-14 -14 -14 -14 -14 -14 -14 -14 -14 -14 -14 -14 -14 -14 -14 -15 -15 -15 -15 -14 -15 -15 -15 -15 -15 -15 -16 -16 -16 -15 -16 -16 -16 -16 -16 -16 -16 -16
-14 -14 -14 -15 -15 -14 -14 -14 -14 -15 -15 -14 -15 -15 -15 -16 -15 -15 -15 -15 -16 -16 -16 -16 -16 -16 -16 -16 -16 -16 -16 -16 -16 -16 -16 -17 -17 -17
-15 -15 -15 -15 -15 -15 -15 -15 -15 -15 -15 -15 -15 -15 -16 -16 -16 -16 -15 -16 -15 -16 -16 -16 -17 -17 -17 -17 -16 -16 -16 -16 -16 -16 -16 -16 -16 -17
-15 -15 -15 -15 -15 -15 -15 -15 -15 -15 -15 -15 -15 -15 -15 -16 -16 -16 -15 -15 -15 -16 -17 -16 -17 -17 -16 -16 -16 -16 -17 -17 -16 -16 -16 -16 -16 -16
-14 -15 -15 -15 -15 -15 -15 -15 -15 -16 -15 -15 -15 -15 -15 -15 -15 -15 -16 -15 -15 -16 -16 -15 -16 -16 -16 -16 -16 -17 -17 -17 -17 -17 -16 -16 -16 -16
-14 -14 -15 -15 -15 -15 -15 -15 -16 -16 -16 -16 -16 -15 -15 -16 -15 -16 -16 -16 -15 -15 -15 -15 -15 -15 -15 -16 -16 -16 -17 -17 -17 -17 -17 -17 -16 -16
-14 -14 -15 -15 -16 -16 -16 -15 -16 -16 -15 -15 -15 -15 -15 -15 -15 -15 -16 -16 -16 -16 -16 -15 -15 -16 -16 -16 -16 -16 -16 -16 -16 -16 -16 -16 -17 -16
-15 -15 -15 -15 -16 -16 -16 -16 -17 -17 -16 -16 -16 -16 -16 -16 -15 -16 -16 -15 -17 -16 -16 -16 -16 -16 -16 -16 -16 -16 -16 -16 -16 -16 -16 -16 -16 -16
-15 -15 -15 -15 -16 -16 -16 -17 -17 -17 -17 -17 -16 -16 -16 -16 -16 -16 -16 -16 -16 -16 -16 -16 -16 -16 -16 -17 -17 -16 -16 -16 -17 -16 -16 -16 -16 -16
-16 -16 -16 -17 -17 -17 -17 -17 -17 -17 -17 -17 -17 -17 -17 -17 -16 -16 -16 -17 -17 -17 -17 -17 -17 -17 -17 -17 -17 -17 -18 -18 -18 -18 -17 -17 -17 -17
-18 -18 -18 -18 -18 -18 -18 -18 -19 -19 -19 -18 -18 -18 -18 -18 -18 -18 -18 -17 -17 -17 -17 -17 -17 -17 -17 -18 -19 -19 -19 -19 -19 -19 -19 -19 -19 -18
-18 -19 -19 -19 -19 -19 -19 -19 -19 -19 -19 -19 -19 -19 -19 -19 -19 -19 -19 -19 -19 -19 -19 -18 -18 -19 -18 -19 -19 -20 -20 -20 -20 -20 -20 -19 -19 -20
-19 -19 -19 -19 -19 -19 -19 -19 -19 -19 -19 -19 -19 -19 -20 -20 -20 -20 -20 -20 -20 -20 -20 -20 -20 -21 -21 -21 -21 -21 -21 -21 -21 -21 -21 -22 -22 -22
-20 -20 -20 -20 -19 -19 -20 -20 -20 -20 -20 -20 -20 -20 -20 -21 -21 -21 -20 -21 -21 -21 -21 -22 -22 -22 -22 -22 -23 -23 -23 -23 -23 -23 -23 -23 -23 -23
-20 -20 -20 -20 -20 -20 -20 -21 -21 -21 -21 -21 -21 -21 -21 -22 -22 -22 -22 -22 -23 -23 -23 -23 -23 -23 -23 -23 -23 -23 -23 -23 -23 -23 -24 -23 -24 -24
-20 -21 -21 -21 -21 -21 -21 -21 -22 -22 -22 -22 -22 -23 -23 -23 -23 -24 -24 -24 -24 -24 -24 -24 -24 -24 -24 -24 -24 -24 -24 -24 -24 -24 -25 -24 -24 -24
-21 -22 -22 -22 -22 -22 -23 -23 -23 -24 -24 -25 -25 -25 -25 -25 -25 -25 -25 -25 -25 -25 -25 -25 -25 -25 -25 -25 -25 -25 -25 -25 -25 -25 -25 -25 -25 -25
-22 -23 -23 -24 -24 -24 -25 -25 -26 -26 -25 -25 -25 -26 -26 -26 -26 -25 -25 -25 -25 -25 -26 -25 -26 -26 -26 -26 -26 -26 -26 -26 -26 -26 -26 -26 -26 -27
-24 -24 -25 -25 -25 -25 -25 -25 -25 -26 -26 -26 -25 -26 -26 -26 -26 -26 -26 -27 -26 -27 -27 -27 -27 -27 -27 -27 -27 -27 -27 -27 -27 -27 -28 -28 -28 -29

GFSNE_500_temp_099.txt.gz
Temp
-13 -13 -13 -13 -13 -13 -13 -13 -13 -14 -14 -14 -14 -14 -14 -14 -14 -14 -14 -14 -14 -14 -14 -14 -14 -15 -15 -15 -16 -16 -16 -16 -16 -16 -16 -16 -16 -16
-13 -13 -13 -13 -13 -14 -14 -14 -14 -14 -14 -14 -14 -14 -14 -14 -14 -14 -14 -14 -14 -15 -15 -15 -15 -15 -15 -15 -15 -15 -15 -15 -16 -15 -15 -15 -16 -16
-14 -14 -14 -14 -14 -14 -14 -14 -14 -14 -14 -14 -14 -14 -14 -15 -15 -14 -14 -14 -14 -14 -15 -15 -15 -15 -14 -14 -14 -14 -14 -14 -14 -15 -15 -15 -15 -16
-13 -14 -14 -14 -14 -14 -14 -14 -14 -14 -14 -14 -14 -15 -14 -14 -14 -14 -14 -14 -14 -15 -15 -15 -15 -15 -15 -15 -15 -15 -15 -15 -15 -16 -16 -16 -16 -15
-14 -14 -14 -14 -14 -14 -14 -15 -15 -15 -15 -15 -15 -14 -14 -14 -14 -14 -14 -14 -14 -15 -15 -15 -15 -15 -15 -15 -15 -15 -15 -15 -16 -16 -16 -16 -16 -16
-14 -15 -15 -15 -15 -15 -15 -15 -15 -15 -15 -15 -15 -15 -14 -15 -15 -15 -15 -15 -15 -15 -15 -15 -16 -16 -16 -15 -15 -15 -15 -16 -16 -16 -16 -16 -16 -16
-14 -14 -14 -14 -14 -14 -14 -15 -15 -14 -14 -15 -15 -15 -15 -15 -15 -15 -15 -15 -15 -15 -15 -15 -15 -16 -15 -15 -15 -16 -16 -16 -16 -16 -16 -16 -16 -16
-15 -14 -14 -14 -14 -14 -14 -15 -15 -15 -15 -15 -15 -14 -15 -15 -15 -15 -15 -15 -15 -15 -15 -15 -16 -15 -15 -15 -15 -16 -16 -16 -17 -16 -16 -16 -16 -15
-14 -15 -15 -15 -15 -15 -15 -16 -16 -15 -14 -14 -14 -15 -15 -15 -15 -15 -15 -15 -15 -15 -15 -15 -15 -15 -15 -15 -15 -15 -16 -16 -16 -16 -16 -16 -16 -16
-14 -14 -14 -14 -14 -15 -15 -16 -16 -15 -15 -15 -15 -15 -16 -15 -16 -15 -15 -15 -15 -15 -15 -15 -15 -15 -16 -16 -15 -15 -15 -16 -16 -16 -16 -16 -16 -16
-15 -15 -15 -14 -15 -15 -15 -15 -15 -15 -15 -15 -15 -15 -15 -15 -15 -16 -16 -15 -15 -15 -15 -15 -16 -15 -15 -15 -16 -15 -15 -15 -16 -16 -16 -16 -16 -16
-14 -14 -14 -14 -15 -15 -15 -15 -15 -15 -15 -15 -15 -15 -15 -15 -15 -16 -16 -17 -16 -16 -16 -16 -16 -16 -17 -16 -16 -16 -16 -16 -16 -16 -16 -16 -17 -17
-15 -15 -15 -15 -15 -15 -15 -15 -16 -16 -16 -16 -16 -16 -16 -16 -17 -17 -17 -17 -17 -17 -17 -17 -17 -17 -17 -17 -17 -17 -17 -17 -17 -17 -17 -17 -17 -17
-15 -15 -16 -16 -16 -16 -16 -16 -17 -17 -17 -17 -17 -17 -17 -17 -17 -17 -17 -17 -17 -17 -17 -17 -18 -18 -18 -18 -18 -18 -19 -18 -18 -18 -18 -18 -18 -19
-17 -17 -17 -17 -17 -17 -17 -18 -18 -18 -18 -18 -18 -18 -18 -18 -18 -18 -18 -18 -18 -18 -18 -18 -18 -19 -19 -19 -19 -20 -20 -20 -20 -20 -20 -20 -20 -20
-19 -18 -18 -18 -18 -18 -19 -19 -19 -19 -19 -19 -19 -19 -19 -19 -19 -18 -18 -19 -19 -19 -19 -19 -20 -20 -20 -20 -20 -20 -20 -21 -21 -21 -21 -22 -22 -22
-20 -20 -19 -19 -19 -19 -19 -19 -19 -19 -19 -19 -19 -19 -19 -19 -19 -19 -19 -19 -20 -20 -20 -20 -21 -21 -21 -21 -21 -22 -22 -22 -22 -22 -23 -23 -23 -23
-20 -20 -20 -20 -20 -20 -19 -19 -19 -19 -19 -19 -19 -19 -19 -19 -20 -20 -20 -20 -21 -21 -21 -22 -22 -22 -23 -23 -23 -23 -23 -24 -24 -24 -24 -24 -24 -24
-20 -20 -20 -20 -20 -20 -20 -20 -20 -20 -20 -20 -20 -20 -20 -21 -21 -21 -22 -22 -22 -22 -23 -24 -24 -24 -24 -24 -24 -24 -24 -24 -25 -25 -25 -25 -25 -25
-20 -20 -20 -20 -20 -20 -20 -20 -21 -21 -21 -21 -21 -21 -21 -22 -22 -23 -24 -24 -25 -25 -25 -25 -25 -25 -25 -25 -25 -25 -25 -25 -25 -25 -25 -25 -25 -26
-21 -21 -21 -21 -21 -21 -21 -21 -22 -22 -22 -22 -22 -23 -23 -24 -25 -25 -25 -25 -25 -25 -25 -25 -25 -25 -26 -26 -26 -26 -26 -26 -26 -26 -26 -26 -26 -26
-22 -22 -22 -22 -22 -22 -22 -22 -22 -23 -23 -24 -24 -24 -25 -25 -25 -25 -25 -25 -25 -25 -26 -26 -26 -26 -26 -26 -26 -26 -27 -27 -27 -27 -27 -27 -28 -28
-23 -23 -23 -23 -23 -23 -24 -24 -24 -24 -25 -25 -25 -25 -25 -25 -25 -26 -26 -26 -26 -26 -26 -26 -27 -27 -27 -27 -28 -28 -28 -28 -28 -29 -29 -30 -30 -30

GFSNE_500_temp_102.txt.gz
Temp
-13 -13 -13 -13 -13 -13 -13 -13 -13 -13 -13 -14 -13 -13 -14 -14 -14 -14 -14 -14 -14 -14 -14 -14 -14 -14 -15 -15 -15 -15 -16 -16 -16 -16 -16 -17 -17 -17
-13 -13 -13 -13 -13 -13 -13 -13 -13 -13 -14 -14 -14 -15 -14 -14 -14 -14 -15 -15 -15 -15 -14 -14 -15 -15 -15 -15 -15 -15 -15 -15 -15 -15 -15 -15 -16 -16
-14 -14 -14 -13 -13 -14 -14 -14 -14 -14 -14 -15 -14 -14 -14 -15 -15 -14 -15 -15 -15 -15 -15 -15 -15 -14 -14 -14 -14 -15 -15 -15 -15 -15 -15 -15 -15 -15
-14 -14 -14 -14 -14 -14 -14 -14 -14 -14 -14 -15 -14 -14 -14 -14 -14 -14 -14 -15 -15 -15 -15 -15 -15 -15 -15 -15 -15 -15 -15 -15 -15 -15 -16 -16 -16 -16
-14 -13 -14 -14 -14 -14 -14 -14 -14 -14 -14 -14 -15 -14 -15 -15 -15 -15 -15 -15 -15 -15 -15 -15 -15 -15 -15 -15 -15 -15 -15 -15 -15 -15 -15 -16 -16 -16
-14 -14 -14 -14 -14 -14 -14 -14 -14 -14 -14 -15 -15 -15 -15 -15 -15 -15 -15 -15 -15 -15 -15 -15 -15 -15 -15 -14 -15 -15 -15 -15 -15 -15 -15 -15 -16 -16
-14 -14 -14 -14 -14 -14 -14 -14 -14 -14 -15 -15 -15 -15 -15 -15 -15 -15 -15 -15 -15 -15 -15 -15 -16 -16 -15 -15 -15 -16 -16 -16 -16 -16 -16 -16 -16 -16
-14 -14 -14 -14 -14 -14 -15 -15 -15 -15 -15 -15 -15 -15 -15 -15 -15 -16 -15 -15 -15 -15 -15 -15 -15 -16 -15 -15 -15 -15 -16 -16 -16 -16 -16 -16 -16 -16
-14 -14 -14 -14 -15 -15 -15 -15 -15 -15 -15 -15 -15 -14 -15 -15 -15 -15 -15 -15 -15 -15 -15 -15 -15 -15 -16 -16 -15 -15 -16 -15 -16 -16 -16 -16 -16 -16
-15 -15 -15 -15 -15 -16 -16 -15 -15 -15 -15 -15 -15 -14 -14 -15 -15 -15 -15 -15 -15 -15 -15 -15 -15 -15 -15 -15 -15 -15 -16 -16 -16 -16 -16 -16 -16 -16
-15 -15 -15 -16 -16 -15 -16 -15 -15 -15 -15 -15 -15 -14 -14 -15 -15 -15 -15 -16 -16 -16 -16 -16 -16 -16 -16 -16 -16 -16 -16 -16 -16 -17 -17 -17 -17 -17
-15 -15 -15 -14 -15 -15 -15 -15 -15 -15 -15 -15 -15 -15 -15 -15 -15 -15 -16 -16 -16 -16 -16 -17 -17 -17 -17 -17 -17 -17 -17 -17 -17 -17 -17 -18 -18 -18
-15 -15 -15 -15 -15 -15 -15 -15 -16 -16 -15 -15 -16 -16 -16 -16 -16 -16 -17 -17 -17 -17 -17 -17 -17 -17 -17 -17 -17 -17 -17 -17 -18 -18 -18 -18 -18 -19
-15 -15 -15 -16 -16 -16 -16 -16 -16 -16 -16 -16 -16 -16 -16 -17 -17 -17 -18 -18 -18 -18 -18 -18 -18 -18 -18 -18 -18 -18 -18 -18 -19 -19 -19 -20 -20 -20
-15 -15 -16 -16 -16 -17 -17 -18 -18 -18 -18 -18 -18 -18 -18 -18 -18 -18 -18 -18 -18 -18 -18 -18 -18 -18 -18 -18 -18 -19 -19 -20 -20 -21 -21 -21 -21 -22
-15 -16 -16 -16 -17 -18 -18 -18 -20 -20 -19 -19 -19 -19 -19 -19 -19 -19 -19 -19 -19 -19 -19 -19 -19 -18 -19 -19 -19 -20 -20 -21 -21 -21 -22 -22 -23 -23
-16 -17 -17 -17 -18 -18 -18 -19 -20 -20 -20 -19 -19 -19 -19 -19 -19 -19 -19 -19 -19 -19 -19 -19 -19 -20 -20 -21 -21 -21 -21 -22 -22 -23 -24 -24 -24 -24
-18 -18 -18 -18 -19 -20 -19 -19 -20 -20 -20 -20 -20 -20 -20 -19 -19 -19 -19 -19 -20 -20 -20 -21 -21 -21 -21 -22 -23 -23 -24 -24 -25 -25 -24 -24 -24 -24
-20 -20 -20 -20 -20 -20 -20 -20 -20 -20 -20 -20 -20 -20 -20 -20 -20 -20 -20 -21 -21 -21 -21 -22 -22 -23 -23 -24 -24 -24 -25 -25 -25 -25 -25 -25 -25 -25
-21 -21 -20 -20 -20 -20 -20 -20 -20 -20 -20 -20 -20 -20 -21 -21 -21 -21 -21 -22 -22 -22 -23 -24 -24 -24 -24 -24 -25 -25 -25 -25 -25 -25 -26 -26 -26 -26
-21 -21 -21 -21 -21 -21 -21 -21 -21 -21 -21 -21 -21 -22 -22 -22 -22 -22 -23 -23 -24 -24 -24 -25 -25 -25 -25 -25 -25 -25 -25 -26 -26 -26 -27 -27 -27 -28
-21 -21 -21 -21 -21 -21 -22 -22 -22 -22 -22 -22 -22 -23 -23 -24 -24 -24 -24 -24 -25 -25 -25 -25 -26 -26 -26 -26 -26 -26 -27 -28 -28 -28 -28 -28 -29 -29
-22 -22 -22 -22 -23 -23 -23 -23 -23 -23 -24 -24 -24 -25 -25 -25 -25 -25 -25 -26 -26 -26 -26 -27 -27 -27 -27 -27 -28 -28 -28 -29 -29 -29 -29 -30 -31 -31

GFSNE_500_temp_105.txt.gz
Temp
-13 -13 -13 -13 -13 -13 -13 -13 -13 -13 -13 -13 -13 -13 -13 -14 -14 -14 -14 -14 -15 -15 -15 -15 -15 -15 -15 -15 -15 -15 -15 -15 -15 -15 -15 -15 -15 -15
-13 -13 -13 -13 -13 -13 -14 -14 -13 -13 -13 -13 -14 -13 -14 -14 -14 -14 -14 -14 -14 -15 -15 -15 -15 -15 -15 -14 -14 -14 -14 -15 -15 -15 -15 -15 -15 -16
-13 -13 -13 -13 -13 -13 -14 -13 -13 -13 -13 -14 -14 -14 -14 -14 -14 -14 -15 -15 -14 -15 -15 -15 -15 -15 -15 -15 -15 -15 -15 -15 -15 -15 -15 -15 -15 -15
-13 -13 -13 -14 -14 -14 -13 -13 -13 -14 -14 -14 -14 -14 -15 -15 -15 -15 -15 -15 -15 -15 -15 -15 -15 -15 -14 -14 -14 -15 -15 -15 -15 -15 -15 -16 -16 -15
-14 -14 -14 -13 -13 -14 -14 -14 -14 -14 -14 -14 -15 -15 -14 -14 -15 -15 -15 -15 -15 -15 -15 -15 -15 -15 -15 -15 -15 -15 -15 -15 -15 -15 -15 -15 -15 -16
-14 -14 -14 -14 -14 -14 -15 -14 -14 -14 -14 -14 -14 -14 -15 -14 -14 -14 -14 -15 -15 -15 -15 -15 -15 -15 -14 -15 -15 -16 -15 -16 -16 -15 -15 -16 -16 -16
-14 -14 -14 -14 -14 -14 -14 -14 -14 -14 -14 -14 -14 -15 -15 -15 -15 -15 -15 -16 -16 -16 -16 -16 -16 -15 -15 -15 -15 -15 -15 -16 -16 -16 -16 -16 -16 -16
-14 -14 -14 -14 -14 -14 -14 -14 -14 -14 -14 -14 -15 -15 -15 -15 -15 -15 -15 -15 -16 -16 -16 -16 -15 -15 -15 -15 -15 -15 -16 -16 -15 -16 -16 -16 -16 -16
-14 -14 -14 -15 -15 -15 -15 -14 -14 -14 -15 -15 -15 -15 -15 -16 -16 -16 -16 -16 -15 -16 -16 -15 -16 -16 -15 -15 -15 -15 -15 -16 -16 -16 -16 -16 -16 -16
-14 -14 -14 -15 -15 -15 -15 -15 -15 -15 -15 -15 -15 -15 -15 -15 -16 -16 -16 -16 -16 -15 -16 -15 -15 -16 -16 -16 -16 -16 -16 -16 -16 -16 -16 -16 -16 -16
-15 -15 -15 -15 -15 -15 -15 -15 -15 -15 -15 -15 -15 -15 -15 -15 -16 -15 -15 -16 -16 -16 -16 -16 -16 -16 -16 -16 -16 -16 -16 -17 -17 -17 -17 -17 -17 -17
-15 -16 -16 -16 -16 -16 -16 -15 -15 -15 -15 -15 -15 -15 -16 -15 -16 -16 -15 -16 -16 -16 -16 -16 -16 -17 -17 -17 -17 -17 -17 -17 -17 -17 -17 -17 -18 -18
-15 -15 -16 -17 -16 -16 -16 -16 -16 -16 -15 -16 -16 -16 -16 -16 -16 -16 -16 -16 -17 -17 -17 -17 -17 -17 -17 -18 -18 -18 -18 -18 -18 -18 -18 -18 -18 -18
-15 -15 -16 -16 -16 -16 -15 -16 -16 -15 -16 -16 -16 -16 -16 -17 -17 -17 -17 -17 -17 -17 -17 -18 -18 -18 -18 -18 -18 -18 -18 -18 -18 -18 -18 -19 -19 -19
-15 -15 -16 -16 -16 -16 -16 -15 -16 -16 -16 -16 -16 -17 -17 -18 -17 -17 -18 -18 -18 -18 -18 -19 -19 -19 -19 -19 -19 -19 -19 -19 -19 -19 -19 -20 -20 -20
-15 -16 -16 -16 -16 -16 -16 -16 -16 -16 -17 -17 -17 -18 -17 -17 -18 -18 -18 -18 -19 -19 -19 -19 -19 -19 -19 -19 -19 -19 -19 -19 -20 -20 -21 -21 -21 -22
-17 -16 -17 -16 -16 -16 -15 -16 -16 -17 -18 -18 -18 -18 -19 -20 -19 -19 -19 -19 -19 -19 -19 -19 -19 -19 -19 -19 -19 -20 -20 -21 -21 -22 -22 -23 -23 -23
-18 -18 -18 -18 -18 -19 -18 -18 -18 -18 -18 -20 -21 -21 -20 -20 -19 -19 -19 -19 -19 -19 -19 -19 -20 -20 -20 -20 -21 -22 -22 -22 -23 -23 -24 -24 -24 -25
-20 -20 -20 -20 -19 -19 -19 -20 -20 -21 -21 -22 -21 -21 -20 -20 -20 -20 -20 -20 -20 -20 -20 -21 -21 -21 -21 -22 -22 -23 -24 -24 -24 -24 -24 -25 -25 -25
-22 -22 -22 -22 -22 -21 -21 -21 -21 -21 -21 -21 -21 -21 -21 -21 -20 -20 -21 -21 -21 -21 -21 -22 -22 -22 -23 -23 -24 -24 -24 -24 -25 -25 -26 -26 -26 -27
-22 -22 -22 -22 -22 -22 -22 -21 -21 -21 -21 -21 -21 -21 -21 -21 -21 -21 -21 -22 -22 -22 -22 -23 -23 -24 -24 -24 -25 -25 -25 -26 -26 -26 -27 -27 -28 -28
-22 -22 -22 -22 -22 -21 -21 -21 -21 -21 -21 -21 -21 -22 -22 -22 -22 -22 -22 -22 -23 -23 -24 -24 -24 -24 -25 -25 -25 -26 -26 -27 -27 -28 -28 -28 -29 -30
-23 -22 -22 -22 -22 -22 -22 -22 -22 -22 -22 -22 -23 -23 -23 -23 -23 -24 -24 -24 -24 -25 -25 -25 -25 -26 -26 -26 -26 -27 -28 -29 -29 -29 -29 -30 -31 -31

GFSNE_500_temp_108.txt.gz
Temp
-13 -13 -13 -13 -13 -13 -13 -13 -13 -13 -13 -13 -13 -13 -13 -13 -13 -13 -13 -14 -14 -13 -14 -14 -14 -15 -15 -15 -14 -14 -14 -15 -15 -15 -15 -15 -15 -15
-13 -13 -13 -13 -13 -13 -13 -13 -13 -13 -13 -13 -13 -13 -13 -13 -13 -14 -14 -14 -14 -14 -14 -14 -15 -15 -15 -15 -15 -15 -15 -15 -15 -15 -15 -15 -15 -15
-13 -13 -13 -13 -13 -13 -13 -13 -13 -13 -13 -13 -13 -13 -13 -14 -14 -14 -14 -14 -14 -14 -14 -14 -15 -15 -15 -15 -14 -15 -15 -15 -15 -15 -15 -15 -15 -15
-13 -13 -13 -13 -13 -13 -13 -13 -14 -14 -14 -14 -14 -14 -14 -14 -14 -15 -15 -15 -15 -15 -15 -14 -14 -14 -14 -15 -15 -15 -15 -15 -15 -15 -15 -16 -16 -15
-13 -13 -13 -13 -13 -13 -14 -14 -14 -14 -14 -14 -15 -15 -15 -15 -15 -15 -15 -15 -15 -15 -15 -14 -15 -14 -15 -15 -15 -15 -15 -15 -15 -16 -15 -15 -15 -15
-14 -13 -14 -14 -14 -14 -14 -14 -14 -15 -15 -15 -15 -15 -14 -14 -15 -15 -16 -15 -15 -15 -16 -15 -15 -15 -15 -15 -16 -16 -16 -15 -16 -16 -16 -16 -16 -16
-14 -14 -14 -14 -14 -14 -14 -14 -14 -14 -14 -14 -14 -14 -14 -14 -15 -15 -15 -16 -16 -16 -16 -16 -16 -16 -15 -15 -16 -15 -16 -16 -16 -16 -16 -16 -16 -16
-14 -14 -14 -14 -14 -14 -14 -14 -14 -15 -14 -14 -15 -15 -15 -15 -15 -15 -16 -16 -16 -16 -15 -16 -15 -16 -16 -16 -16 -16 -16 -16 -16 -16 -16 -17 -17 -17
-15 -15 -15 -14 -14 -15 -14 -15 -14 -15 -15 -15 -15 -15 -15 -15 -16 -16 -16 -16 -16 -16 -16 -15 -16 -16 -16 -16 -16 -16 -16 -17 -16 -16 -16 -16 -16 -16
-15 -15 -15 -15 -15 -15 -15 -15 -15 -15 -15 -15 -15 -15 -15 -16 -16 -16 -16 -16 -16 -16 -16 -16 -16 -16 -16 -16 -16 -16 -16 -16 -16 -16 -16 -16 -16 -16
-15 -15 -15 -15 -15 -15 -15 -15 -15 -15 -15 -15 -15 -15 -15 -16 -16 -16 -16 -16 -16 -16 -16 -16 -16 -16 -16 -16 -16 -16 -16 -16 -16 -16 -16 -17 -17 -17
-15 -15 -15 -15 -16 -16 -16 -15 -16 -15 -15 -15 -16 -16 -16 -16 -16 -16 -16 -16 -16 -16 -16 -16 -16 -16 -16 -17 -17 -17 -17 -17 -17 -17 -17 -17 -17 -18
-15 -16 -15 -15 -15 -16 -16 -16 -16 -16 -16 -16 -16 -16 -16 -16 -16 -16 -16 -16 -16 -16 -16 -17 -17 -17 -17 -17 -18 -18 -17 -18 -18 -18 -18 -18 -18 -18
-16 -16 -16 -15 -16 -16 -16 -16 -16 -16 -17 -16 -16 -16 -16 -16 -16 -16 -16 -17 -16 -16 -17 -18 -18 -18 -19 -19 -19 -18 -19 -19 -18 -18 -18 -18 -19 -19
-16 -16 -16 -16 -16 -15 -16 -16 -16 -17 -16 -17 -16 -16 -16 -16 -16 -16 -16 -16 -16 -17 -18 -18 -18 -18 -18 -19 -20 -20 -19 -19 -19 -19 -19 -19 -19 -19
-16 -16 -16 -16 -16 -16 -17 -17 -17 -17 -17 -17 -17 -17 -16 -16 -16 -16 -16 -16 -16 -18 -18 -18 -19 -19 -19 -19 -19 -20 -20 -20 -20 -20 -20 -20 -20 -20
-17 -17 -17 -17 -17 -17 -17 -17 -17 -17 -17 -17 -17 -17 -16 -16 -16 -16 -17 -18 -18 -18 -19 -21 -21 -20 -20 -20 -20 -20 -20 -20 -20 -20 -21 -21 -21 -22
-18 -18 -18 -18 -18 -18 -18 -18 -18 -18 -18 -18 -18 -18 -18 -18 -19 -19 -19 -19 -19 -20 -21 -21 -22 -21 -20 -20 -20 -20 -20 -21 -21 -21 -22 -22 -23 -23
-20 -20 -20 -19 -19 -20 -20 -20 -20 -20 -20 -19 -19 -19 -19 -19 -19 -19 -20 -21 -22 -22 -21 -21 -20 -20 -20 -20 -21 -21 -21 -21 -22 -22 -23 -23 -24 -24
-21 -21 -21 -20 -21 -20 -20 -20 -20 -20 -21 -21 -21 -21 -21 -21 -22 -22 -21 -21 -21 -21 -21 -21 -21 -21 -21 -22 -22 -22 -22 -23 -23 -24 -24 -24 -24 -25
-23 -23 -23 -23 -23 -23 -23 -23 -22 -23 -23 -23 -22 -22 -22 -22 -22 -22 -22 -22 -22 -21 -22 -22 -22 -22 -22 -23 -23 -24 -24 -24 -24 -24 -25 -25 -26 -27
-23 -23 -23 -23 -23 -23 -23 -23 -23 -23 -23 -22 -22 -22 -22 -22 -22 -22 -22 -22 -22 -22 -22 -23 -23 -23 -23 -24 -24 -25 -25 -25 -25 -25 -26 -27 -28 -28
-23 -23 -23 -23 -23 -23 -23 -23 -23 -23 -23 -23 -23 -22 -22 -22 -23 -23 -23 -23 -23 -23 -24 -24 -24 -24 -25 -25 -25 -25 -26 -26 -27 -28 -28 -29 -30 -30

GFSNE_500_temp_111.txt.gz
Temp
-12 -12 -13 -13 -13 -13 -13 -13 -13 -13 -13 -13 -13 -13 -13 -13 -13 -13 -13 -13 -13 -13 -14 -14 -14 -14 -14 -14 -14 -14 -14 -14 -14 -14 -14 -15 -15 -15
-12 -12 -12 -13 -13 -13 -13 -13 -13 -13 -13 -13 -13 -13 -13 -13 -13 -13 -13 -13 -13 -13 -14 -14 -14 -14 -14 -14 -14 -15 -15 -15 -15 -15 -15 -15 -15 -15
-12 -12 -12 -13 -13 -13 -13 -13 -13 -13 -13 -13 -13 -13 -13 -13 -13 -14 -13 -14 -14 -14 -14 -14 -14 -14 -14 -14 -15 -15 -15 -15 -15 -15 -15 -15 -15 -15
-12 -12 -12 -13 -13 -13 -13 -13 -13 -13 -14 -13 -14 -13 -13 -13 -14 -14 -14 -14 -14 -14 -14 -14 -14 -14 -14 -15 -15 -15 -15 -15 -15 -15 -15 -15 -15 -15
-12 -12 -12 -13 -13 -13 -13 -13 -13 -13 -14 -14 -14 -14 -14 -14 -14 -14 -14 -14 -14 -14 -15 -15 -15 -15 -15 -15 -15 -15 -15 -15 -16 -16 -16 -16 -16 -16
-13 -12 -12 -12 -14 -14 -14 -13 -13 -14 -14 -14 -14 -14 -14 -14 -14 -15 -15 -15 -15 -15 -15 -15 -15 -15 -15 -15 -16 -16 -16 -16 -16 -16 -16 -16 -16 -16
-13 -13 -13 -13 -14 -14 -14 -14 -14 -14 -14 -14 -15 -15 -15 -15 -15 -15 -15 -15 -16 -15 -15 -15 -15 -15 -15 -15 -16 -16 -16 -16 -16 -16 -16 -16 -16 -16
-14 -14 -13 -14 -14 -14 -14 -14 -14 -14 -14 -15 -15 -15 -15 -15 -15 -15 -15 -16 -16 -15 -15 -15 -15 -16 -16 -16 -16 -17 -16 -16 -16 -16 -16 -16 -16 -16
-14 -14 -14 -14 -14 -14 -14 -14 -15 -15 -15 -16 -15 -15 -15 -15 -15 -15 -15 -15 -15 -15 -16 -16 -16 -16 -16 -16 -16 -16 -16 -16 -16 -16 -16 -16 -16 -16
-15 -14 -15 -14 -14 -15 -15 -15 -15 -15 -15 -15 -15 -15 -15 -15 -15 -15 -16 -16 -16 -16 -16 -16 -16 -16 -16 -16 -16 -16 -17 -17 -17 -16 -16 -17 -16 -16
-15 -15 -15 -15 -15 -15 -15 -15 -16 -15 -15 -15 -15 -15 -15 -15 -15 -16 -16 -16 -16 -16 -16 -16 -16 -16 -17 -16 -16 -17 -17 -17 -17 -16 -16 -17 -17 -17
-16 -16 -16 -16 -16 -16 -16 -15 -15 -15 -15 -15 -16 -16 -16 -16 -16 -16 -16 -16 -16 -16 -17 -17 -17 -17 -17 -17 -17 -17 -17 -17 -17 -17 -16 -17 -17 -18
-16 -16 -16 -16 -16 -16 -16 -16 -16 -15 -15 -15 -16 -16 -16 -16 -16 -16 -17 -17 -16 -17 -17 -17 -17 -17 -17 -17 -17 -17 -17 -17 -18 -18 -17 -17 -18 -18
-16 -16 -16 -16 -16 -16 -16 -16 -16 -16 -15 -15 -16 -16 -17 -17 -17 -17 -17 -17 -17 -17 -17 -17 -17 -17 -17 -17 -17 -17 -17 -17 -17 -18 -18 -18 -19 -20
-16 -16 -16 -16 -16 -16 -16 -16 -16 -16 -16 -16 -16 -16 -16 -16 -16 -17 -17 -17 -17 -17 -17 -17 -17 -17 -17 -17 -16 -17 -17 -19 -19 -19 -20 -21 -21 -21
-16 -17 -17 -17 -17 -16 -16 -16 -16 -16 -16 -16 -16 -16 -16 -16 -17 -17 -17 -17 -17 -17 -17 -17 -17 -16 -17 -17 -18 -19 -20 -20 -20 -21 -21 -21 -21 -21
-17 -17 -17 -17 -17 -16 -17 -17 -17 -17 -16 -16 -17 -17 -17 -17 -17 -18 -18 -17 -17 -17 -17 -17 -17 -18 -19 -19 -20 -20 -20 -21 -22 -22 -22 -22 -21 -21
-19 -18 -18 -18 -17 -17 -17 -17 -17 -18 -18 -18 -18 -18 -18 -18 -18 -18 -18 -18 -18 -18 -19 -20 -20 -20 -20 -20 -21 -21 -22 -22 -22 -22 -21 -21 -21 -21
-21 -20 -20 -20 -20 -20 -20 -19 -19 -19 -19 -18 -19 -18 -18 -18 -18 -19 -19 -19 -20 -20 -20 -20 -20 -21 -22 -22 -23 -23 -22 -22 -22 -21 -21 -22 -22 -23
-21 -21 -21 -21 -21 -21 -20 -20 -21 -21 -21 -21 -21 -21 -21 -21 -21 -21 -20 -20 -20 -21 -22 -22 -22 -23 -23 -23 -23 -22 -22 -22 -22 -22 -22 -23 -23 -24
-23 -23 -22 -23 -23 -23 -22 -22 -22 -22 -22 -22 -22 -21 -21 -22 -22 -22 -23 -23 -23 -23 -23 -23 -23 -23 -23 -22 -22 -22 -22 -22 -23 -23 -24 -24 -25 -25
-24 -24 -24 -24 -24 -24 -23 -23 -24 -23 -24 -24 -24 -24 -24 -24 -24 -24 -23 -23 -23 -23 -23 -23 -23 -23 -23 -23 -23 -23 -24 -24 -24 -24 -24 -25 -26 -26
-24 -24 -24 -24 -24 -24 -24 -24 -24 -24 -24 -24 -24 -24 -24 -24 -24 -23 -23 -23 -23 -23 -23 -23 -23 -23 -24 -24 -24 -24 -25 -25 -25 -26 -26 -26 -27 -28

GFSNE_500_temp_114.txt.gz
Temp
-13 -13 -12 -12 -12 -13 -13 -13 -13 -13 -13 -13 -13 -13 -14 -13 -13 -13 -13 -13 -14 -14 -14 -13 -13 -13 -14 -13 -14 -14 -14 -14 -15 -15 -15 -15 -15 -15
-13 -13 -13 -12 -12 -12 -12 -13 -13 -13 -13 -13 -13 -13 -14 -13 -13 -13 -13 -13 -14 -14 -14 -14 -13 -14 -14 -13 -14 -14 -14 -15 -15 -15 -15 -15 -15 -15
-14 -14 -13 -12 -12 -12 -12 -13 -13 -13 -13 -13 -13 -13 -13 -13 -14 -13 -13 -13 -14 -14 -14 -13 -13 -14 -14 -14 -15 -14 -15 -15 -15 -15 -15 -15 -15 -15
-14 -14 -13 -12 -12 -12 -12 -13 -13 -13 -13 -13 -13 -14 -14 -14 -14 -13 -14 -14 -13 -14 -14 -14 -14 -14 -14 -14 -15 -15 -15 -15 -15 -15 -15 -16 -16 -16
-14 -14 -14 -13 -12 -12 -12 -13 -13 -13 -13 -14 -13 -14 -14 -14 -14 -14 -14 -14 -14 -14 -14 -14 -14 -14 -15 -15 -15 -15 -15 -15 -15 -15 -15 -16 -16 -16
-15 -14 -14 -13 -13 -13 -12 -13 -13 -13 -13 -13 -14 -14 -14 -14 -14 -14 -14 -14 -14 -14 -15 -15 -15 -15 -15 -15 -15 -15 -15 -15 -15 -15 -16 -16 -16 -16
-15 -15 -15 -14 -14 -14 -13 -13 -14 -14 -14 -14 -14 -14 -14 -14 -14 -15 -15 -15 -15 -15 -15 -15 -15 -16 -16 -16 -16 -16 -15 -15 -16 -16 -16 -16 -16 -17
-15 -15 -15 -15 -14 -14 -14 -14 -14 -14 -14 -14 -14 -14 -14 -15 -15 -15 -15 -15 -15 -15 -15 -16 -16 -16 -16 -16 -16 -16 -16 -16 -16 -16 -16 -16 -16 -17
-16 -16 -15 -15 -14 -14 -14 -14 -14 -15 -14 -15 -15 -15 -15 -15 -15 -15 -15 -15 -15 -15 -15 -15 -15 -16 -15 -16 -16 -16 -16 -16 -16 -17 -17 -17 -17 -17
-16 -16 -16 -15 -15 -15 -15 -15 -15 -15 -15 -15 -16 -16 -15 -15 -16 -15 -15 -16 -16 -15 -15 -15 -15 -15 -16 -16 -16 -16 -17 -17 -17 -17 -17 -17 -17 -17
-16 -16 -16 -16 -16 -16 -16 -15 -15 -15 -15 -15 -15 -15 -16 -15 -15 -16 -16 -16 -16 -15 -15 -15 -16 -16 -16 -16 -16 -16 -16 -17 -17 -17 -17 -17 -17 -17
-16 -16 -16 -16 -16 -16 -16 -16 -16 -16 -16 -15 -16 -16 -15 -15 -16 -16 -16 -16 -16 -16 -16 -16 -16 -16 -16 -16 -16 -17 -17 -17 -17 -18 -17 -18 -17 -17
-15 -16 -16 -16 -16 -16 -16 -16 -16 -16 -16 -16 -16 -16 -16 -16 -16 -16 -16 -16 -16 -16 -16 -16 -17 -17 -17 -17 -17 -17 -17 -17 -17 -17 -17 -17 -17 -17
-16 -16 -16 -16 -15 -16 -16 -16 -16 -16 -16 -16 -16 -16 -16 -16 -16 -16 -17 -17 -17 -16 -16 -17 -17 -17 -17 -18 -17 -17 -17 -17 -17 -17 -17 -17 -17 -17
-16 -16 -16 -16 -16 -16 -16 -16 -16 -16 -16 -17 -16 -16 -16 -16 -16 -17 -16 -17 -17 -17 -17 -17 -17 -17 -18 -17 -17 -17 -17 -17 -17 -17 -17 -17 -17 -18
-17 -17 -16 -16 -16 -16 -16 -16 -16 -16 -17 -16 -17 -17 -17 -16 -17 -17 -17 -17 -17 -17 -17 -17 -17 -17 -17 -18 -18 -17 -17 -17 -17 -17 -18 -19 -19 -19
-18 -18 -17 -17 -17 -17 -16 -17 -17 -17 -17 -17 -17 -17 -18 -17 -17 -17 -17 -17 -17 -18 -18 -18 -18 -18 -18 -18 -18 -18 -18 -18 -18 -19 -20 -20 -20 -21
-21 -20 -20 -19 -19 -18 -17 -17 -17 -17 -18 -17 -18 -17 -18 -18 -18 -18 -18 -18 -18 -18 -18 -18 -19 -19 -19 -19 -19 -19 -19 -20 -21 -21 -21 -22 -22 -22
-21 -21 -21 -21 -21 -21 -20 -20 -19 -19 -19 -18 -18 -18 -18 -19 -19 -19 -19 -19 -19 -19 -19 -20 -20 -20 -21 -20 -21 -21 -21 -21 -21 -22 -22 -23 -23 -23
-22 -22 -22 -21 -21 -21 -21 -21 -21 -21 -21 -21 -21 -21 -21 -21 -21 -21 -21 -21 -21 -21 -22 -22 -22 -22 -21 -21 -21 -22 -23 -23 -23 -24 -23 -23 -23 -23
-23 -23 -23 -23 -23 -22 -22 -22 -22 -22 -22 -22 -21 -21 -21 -22 -22 -22 -22 -22 -22 -22 -22 -22 -22 -23 -23 -23 -24 -24 -24 -23 -23 -23 -24 -24 -24 -24
-24 -24 -24 -23 -24 -24 -24 -24 -24 -24 -23 -23 -23 -23 -23 -23 -23 -23 -23 -23 -23 -23 -23 -24 -24 -24 -24 -24 -24 -24 -24 -24 -24 -24 -24 -24 -25 -25
-25 -25 -25 -24 -24 -24 -24 -24 -24 -24 -24 -24 -24 -24 -24 -24 -24 -24 -24 -24 -24 -24 -24 -24 -24 -24 -24 -24 -24 -25 -25 -25 -25 -25 -25 -25 -26 -26

GFSNE_500_temp_117.txt.gz
Temp
-13 -13 -13 -13 -13 -13 -13 -13 -13 -13 -13 -13 -13 -13 -13 -13 -13 -13 -13 -13 -13 -13 -13 -14 -14 -14 -14 -14 -14 -14 -14 -14 -14 -14 -15 -15 -15 -15
-13 -13 -13 -13 -13 -13 -13 -13 -12 -12 -12 -13 -13 -13 -13 -13 -13 -13 -13 -13 -13 -13 -13 -13 -13 -14 -14 -14 -14 -14 -14 -14 -14 -14 -15 -15 -15 -15
-13 -14 -13 -13 -13 -13 -13 -13 -12 -12 -12 -13 -13 -13 -13 -13 -13 -13 -14 -13 -13 -13 -13 -13 -13 -14 -14 -14 -14 -14 -14 -14 -14 -15 -15 -15 -15 -16
-14 -14 -14 -13 -13 -13 -13 -13 -12 -13 -12 -13 -13 -13 -13 -13 -13 -13 -13 -13 -13 -13 -13 -14 -14 -14 -14 -14 -14 -14 -14 -14 -15 -15 -15 -15 -15 -16
-13 -13 -14 -13 -14 -14 -13 -13 -13 -13 -13 -13 -13 -13 -13 -13 -13 -14 -14 -13 -13 -13 -13 -14 -14 -14 -14 -14 -14 -14 -15 -15 -15 -15 -15 -15 -15 -15
-13 -13 -14 -14 -14 -14 -14 -14 -13 -13 -13 -13 -13 -13 -13 -13 -13 -14 -14 -14 -14 -14 -14 -14 -14 -14 -14 -14 -15 -15 -15 -15 -16 -16 -16 -16 -16 -16
-13 -13 -13 -14 -14 -14 -14 -14 -14 -14 -13 -13 -13 -13 -13 -14 -14 -14 -14 -14 -14 -14 -14 -14 -15 -15 -15 -15 -15 -15 -15 -16 -16 -16 -16 -16 -16 -16
-13 -14 -13 -14 -14 -15 -15 -15 -14 -14 -14 -14 -13 -13 -14 -14 -14 -14 -14 -14 -14 -15 -15 -15 -15 -15 -15 -15 -16 -16 -16 -16 -16 -16 -16 -16 -16 -16
-14 -14 -13 -14 -15 -15 -15 -15 -14 -14 -14 -14 -14 -14 -14 -14 -14 -14 -15 -15 -15 -15 -15 -15 -15 -15 -15 -15 -15 -16 -16 -16 -16 -16 -16 -16 -16 -16
-14 -14 -14 -14 -15 -16 -16 -15 -15 -14 -14 -15 -15 -14 -14 -14 -15 -15 -15 -16 -16 -15 -15 -16 -15 -15 -15 -16 -16 -16 -16 -16 -16 -16 -16 -16 -16 -16
-15 -15 -15 -14 -15 -17 -16 -16 -16 -15 -15 -15 -15 -15 -15 -15 -15 -15 -15 -15 -16 -16 -16 -16 -16 -16 -16 -16 -16 -16 -16 -16 -16 -17 -16 -17 -17 -17
-15 -15 -15 -15 -16 -16 -16 -16 -16 -16 -16 -15 -15 -15 -16 -15 -15 -15 -15 -15 -15 -16 -16 -16 -16 -16 -16 -16 -16 -16 -16 -16 -17 -17 -17 -17 -17 -17
-15 -15 -15 -15 -16 -16 -16 -16 -16 -16 -16 -16 -16 -16 -15 -15 -16 -16 -15 -16 -16 -16 -16 -16 -16 -16 -16 -16 -16 -17 -17 -17 -17 -17 -17 -17 -17 -18
-16 -16 -16 -16 -15 -16 -16 -16 -16 -16 -16 -16 -16 -16 -15 -16 -16 -16 -16 -16 -17 -17 -17 -16 -17 -17 -17 -17 -17 -17 -17 -17 -17 -17 -17 -17 -18 -17
-17 -17 -16 -16 -16 -16 -16 -16 -16 -16 -16 -16 -16 -16 -16 -16 -16 -16 -16 -16 -16 -16 -16 -17 -17 -17 -17 -16 -17 -17 -17 -17 -17 -17 -17 -17 -18 -18
-17 -17 -16 -16 -17 -16 -16 -16 -16 -16 -16 -16 -16 -16 -16 -16 -16 -17 -16 -17 -17 -17 -17 -17 -17 -17 -17 -17 -17 -17 -17 -18 -17 -17 -17 -18 -18 -18
-19 -19 -18 -17 -17 -17 -17 -17 -17 -17 -16 -17 -17 -17 -17 -16 -16 -16 -16 -17 -17 -18 -17 -17 -17 -17 -17 -18 -18 -18 -18 -18 -18 -18 -18 -18 -19 -19
-20 -20 -20 -20 -19 -20 -19 -19 -18 -18 -18 -18 -18 -18 -17 -17 -17 -17 -17 -17 -18 -18 -18 -18 -18 -18 -18 -18 -18 -18 -18 -18 -19 -19 -19 -20 -20 -21
-21 -21 -21 -21 -20 -20 -20 -20 -20 -20 -20 -20 -20 -19 -19 -19 -19 -18 -18 -18 -18 -18 -18 -18 -18 -18 -18 -18 -18 -19 -19 -20 -21 -21 -22 -22 -22 -22
-22 -22 -22 -22 -22 -22 -22 -21 -21 -21 -21 -21 -21 -21 -21 -21 -21 -20 -20 -20 -20 -20 -20 -20 -20 -20 -20 -21 -21 -21 -22 -22 -22 -22 -22 -22 -23 -23
-23 -23 -23 -23 -23 -23 -23 -23 -23 -22 -22 -22 -22 -22 -22 -22 -21 -22 -22 -22 -22 -22 -22 -22 -22 -22 -22 -22 -22 -22 -22 -22 -22 -23 -24 -24 -24 -24
-25 -24 -24 -24 -24 -24 -24 -24 -24 -23 -23 -23 -23 -23 -23 -23 -23 -23 -23 -23 -23 -23 -23 -23 -23 -23 -23 -23 -23 -23 -23 -24 -24 -24 -24 -24 -24 -24
-25 -25 -25 -25 -25 -25 -25 -25 -25 -24 -24 -24 -24 -24 -24 -24 -24 -24 -24 -24 -24 -24 -24 -24 -24 -24 -24 -24 -24 -24 -24 -24 -24 -24 -24 -25 -25 -25

GFSNE_500_temp_123.txt.gz
Temp
-13 -13 -13 -13 -13 -13 -13 -13 -13 -13 -13 -13 -13 -13 -13 -12 -12 -13 -13 -13 -13 -13 -13 -13 -13 -13 -13 -14 -15 -14 -14 -15 -15 -15 -15 -14 -14 -14
-13 -13 -13 -13 -13 -13 -13 -13 -13 -13 -12 -13 -13 -13 -13 -13 -12 -12 -13 -13 -13 -13 -13 -13 -13 -13 -13 -14 -14 -14 -14 -15 -15 -16 -14 -14 -14 -14
-13 -13 -13 -13 -13 -13 -13 -14 -13 -13 -12 -13 -13 -12 -13 -13 -12 -12 -13 -13 -13 -13 -13 -13 -13 -13 -13 -13 -13 -13 -14 -14 -15 -15 -14 -14 -14 -14
-13 -13 -13 -14 -13 -13 -14 -14 -13 -13 -13 -13 -13 -14 -13 -13 -12 -12 -12 -13 -13 -13 -13 -13 -13 -13 -13 -14 -14 -13 -13 -13 -14 -14 -14 -15 -14 -14
-14 -14 -14 -14 -13 -13 -13 -13 -13 -13 -13 -12 -13 -14 -13 -13 -13 -12 -12 -13 -13 -13 -13 -13 -13 -13 -13 -14 -14 -14 -14 -14 -14 -14 -14 -14 -14 -14
-14 -14 -14 -14 -14 -14 -14 -14 -14 -13 -14 -13 -12 -13 -13 -13 -13 -12 -12 -12 -13 -13 -13 -13 -13 -13 -13 -13 -14 -14 -14 -14 -14 -14 -14 -14 -15 -15
-14 -14 -14 -14 -14 -14 -13 -13 -14 -13 -13 -13 -13 -13 -13 -13 -13 -13 -12 -13 -12 -13 -13 -13 -13 -14 -14 -13 -14 -14 -14 -14 -14 -14 -14 -15 -15 -15
-14 -14 -13 -14 -14 -14 -14 -14 -14 -14 -14 -14 -13 -13 -13 -14 -14 -13 -13 -13 -13 -13 -13 -14 -14 -14 -14 -14 -14 -14 -14 -14 -14 -14 -15 -15 -15 -16
-15 -15 -14 -14 -14 -14 -14 -14 -14 -14 -14 -14 -14 -14 -13 -14 -14 -14 -14 -14 -14 -13 -14 -14 -14 -14 -14 -14 -14 -14 -14 -14 -15 -15 -15 -15 -16 -16
-15 -15 -14 -15 -15 -14 -14 -14 -15 -15 -15 -13 -14 -14 -14 -15 -14 -15 -14 -14 -14 -14 -14 -14 -14 -14 -14 -14 -14 -15 -15 -15 -15 -15 -15 -15 -16 -16
-15 -15 -14 -15 -15 -15 -15 -15 -15 -15 -15 -15 -14 -14 -14 -15 -15 -16 -15 -15 -14 -14 -15 -14 -14 -14 -14 -14 -15 -15 -15 -15 -15 -16 -16 -16 -16 -16
-16 -16 -15 -16 -16 -16 -16 -16 -15 -15 -15 -15 -15 -15 -14 -14 -15 -16 -15 -15 -15 -15 -15 -15 -15 -15 -15 -15 -14 -15 -15 -15 -15 -16 -16 -16 -16 -16
-17 -16 -16 -16 -16 -16 -16 -16 -15 -15 -15 -15 -15 -15 -15 -15 -16 -16 -17 -16 -16 -15 -16 -16 -15 -15 -15 -15 -15 -15 -15 -15 -16 -16 -16 -16 -16 -16
-18 -17 -17 -17 -17 -16 -17 -16 -16 -16 -16 -15 -15 -15 -15 -15 -16 -16 -16 -16 -16 -16 -16 -16 -16 -16 -16 -16 -16 -16 -16 -16 -16 -16 -16 -17 -16 -16
-19 -18 -18 -18 -18 -17 -17 -17 -16 -16 -16 -16 -16 -15 -16 -16 -16 -16 -16 -16 -16 -16 -15 -16 -16 -16 -16 -16 -16 -16 -16 -16 -16 -16 -16 -17 -17 -17
-19 -19 -19 -19 -19 -18 -18 -17 -17 -17 -16 -16 -16 -16 -16 -16 -16 -16 -16 -16 -16 -16 -16 -16 -16 -16 -16 -16 -16 -16 -17 -16 -16 -16 -16 -17 -17 -17
-20 -20 -20 -20 -19 -19 -19 -19 -18 -18 -18 -17 -17 -17 -17 -16 -16 -17 -16 -16 -16 -16 -16 -16 -16 -16 -16 -16 -16 -16 -16 -16 -17 -16 -16 -17 -17 -17
-21 -21 -21 -20 -20 -20 -20 -20 -20 -19 -19 -19 -18 -18 -18 -18 -18 -17 -17 -17 -16 -17 -17 -16 -17 -16 -16 -16 -17 -16 -16 -17 -17 -17 -17 -17 -17 -17
-23 -22 -22 -22 -21 -21 -21 -21 -20 -20 -20 -20 -20 -20 -19 -19 -18 -19 -19 -18 -18 -18 -18 -17 -17 -17 -17 -17 -17 -17 -17 -17 -17 -17 -17 -18 -18 -19
-24 -24 -24 -23 -23 -23 -23 -22 -22 -22 -21 -21 -21 -21 -20 -20 -20 -20 -20 -19 -19 -19 -19 -19 -19 -18 -18 -19 -19 -19 -19 -18 -19 -19 -19 -20 -20 -20
-24 -24 -24 -24 -24 -24 -24 -24 -24 -23 -23 -23 -22 -22 -22 -21 -21 -21 -21 -21 -21 -21 -21 -21 -21 -21 -21 -21 -21 -21 -21 -21 -21 -21 -21 -21 -21 -22
-25 -25 -25 -25 -25 -24 -24 -24 -24 -24 -24 -24 -24 -24 -24 -24 -24 -23 -22 -22 -22 -22 -22 -22 -22 -22 -22 -22 -22 -22 -22 -22 -22 -22 -22 -22 -22 -22
-26 -26 -26 -26 -25 -25 -25 -25 -25 -25 -25 -25 -25 -25 -25 -25 -24 -24 -24 -24 -24 -24 -24 -23 -24 -24 -23 -23 -23 -23 -23 -23 -23 -23 -23 -23 -23 -23

GFSNE_500_temp_129.txt.gz
Temp
-14 -13 -13 -13 -13 -13 -13 -13 -13 -13 -13 -13 -13 -13 -13 -13 -13 -12 -12 -12 -12 -12 -12 -12 -12 -13 -13 -14 -14 -14 -13 -13 -13 -13 -15 -17 -16 -15
-14 -13 -13 -13 -14 -14 -13 -13 -13 -12 -13 -13 -13 -13 -13 -13 -13 -13 -12 -12 -13 -12 -12 -12 -12 -13 -13 -13 -13 -14 -14 -14 -13 -13 -13 -15 -16 -16
-14 -14 -13 -14 -14 -14 -13 -13 -13 -13 -13 -14 -13 -13 -13 -13 -13 -13 -13 -13 -13 -13 -12 -12 -12 -12 -13 -13 -13 -13 -13 -13 -13 -13 -13 -13 -14 -15
-14 -14 -14 -14 -14 -14 -14 -13 -14 -14 -14 -14 -13 -13 -13 -13 -13 -13 -13 -13 -13 -13 -13 -12 -12 -12 -12 -12 -13 -13 -14 -14 -14 -14 -13 -13 -14 -14
-15 -14 -14 -14 -14 -14 -14 -14 -14 -14 -14 -14 -14 -14 -14 -13 -13 -13 -14 -13 -12 -13 -13 -12 -12 -12 -12 -12 -13 -13 -14 -13 -14 -14 -14 -14 -14 -14
-14 -15 -15 -14 -14 -14 -14 -14 -14 -14 -14 -14 -14 -14 -13 -13 -13 -13 -13 -13 -13 -13 -12 -13 -12 -12 -12 -12 -13 -13 -14 -14 -14 -14 -14 -14 -14 -14
-15 -15 -15 -15 -15 -14 -14 -14 -14 -14 -14 -14 -14 -14 -14 -13 -13 -13 -14 -13 -13 -13 -13 -13 -12 -12 -12 -13 -13 -13 -14 -14 -14 -14 -14 -14 -14 -14
-16 -15 -15 -15 -15 -15 -14 -14 -14 -14 -14 -14 -14 -14 -14 -14 -13 -13 -13 -13 -12 -13 -13 -12 -12 -12 -12 -12 -13 -13 -13 -13 -14 -14 -14 -14 -14 -14
-15 -15 -15 -15 -15 -15 -15 -15 -14 -14 -15 -15 -15 -15 -14 -14 -13 -14 -13 -13 -13 -12 -12 -12 -12 -13 -13 -13 -13 -13 -13 -14 -14 -14 -14 -14 -14 -15
-15 -15 -15 -15 -16 -16 -15 -15 -16 -16 -15 -15 -15 -15 -15 -15 -14 -14 -14 -14 -13 -13 -13 -13 -13 -13 -13 -13 -13 -14 -14 -14 -14 -14 -14 -14 -14 -15
-17 -17 -16 -16 -16 -16 -16 -16 -16 -16 -16 -16 -16 -15 -15 -15 -15 -15 -15 -14 -14 -13 -14 -13 -13 -13 -13 -13 -13 -15 -14 -14 -14 -14 -15 -15 -15 -15
-18 -18 -17 -17 -17 -17 -17 -16 -16 -16 -16 -16 -16 -16 -16 -16 -15 -15 -15 -15 -15 -14 -14 -14 -14 -14 -14 -13 -15 -15 -15 -15 -15 -15 -15 -15 -15 -15
-18 -18 -18 -18 -18 -18 -18 -18 -17 -17 -17 -17 -16 -16 -17 -16 -16 -16 -16 -16 -16 -15 -15 -15 -15 -15 -15 -15 -15 -15 -16 -16 -15 -16 -16 -16 -16 -16
-19 -19 -19 -19 -18 -18 -18 -18 -18 -18 -18 -18 -18 -18 -17 -17 -17 -16 -16 -16 -16 -16 -16 -15 -15 -15 -16 -15 -16 -16 -16 -16 -16 -16 -16 -16 -16 -16
-19 -19 -19 -19 -19 -19 -19 -19 -19 -19 -19 -19 -18 -18 -18 -18 -18 -18 -17 -17 -17 -17 -17 -16 -16 -16 -16 -16 -15 -16 -16 -16 -16 -17 -17 -17 -17 -16
-20 -20 -19 -19 -19 -19 -19 -19 -19 -19 -19 -19 -19 -19 -19 -19 -18 -18 -18 -17 -18 -18 -17 -16 -16 -16 -16 -16 -16 -16 -16 -16 -16 -17 -17 -17 -17 -16
-22 -22 -21 -21 -21 -21 -21 -21 -21 -20 -20 -20 -20 -20 -20 -20 -20 -19 -19 -19 -18 -18 -18 -17 -17 -16 -16 -16 -16 -16 -16 -16 -16 -16 -16 -16 -17 -17
-22 -22 -22 -23 -23 -23 -23 -23 -23 -22 -22 -22 -21 -21 -21 -20 -20 -20 -20 -19 -19 -19 -19 -19 -18 -18 -17 -17 -17 -17 -17 -17 -17 -17 -17 -16 -16 -16
-22 -22 -23 -23 -23 -23 -23 -23 -23 -23 -23 -23 -23 -22 -22 -22 -21 -21 -20 -20 -20 -20 -20 -20 -19 -18 -18 -18 -19 -19 -18 -18 -18 -18 -18 -17 -17 -17
-23 -23 -24 -24 -24 -24 -24 -24 -24 -24 -24 -24 -24 -24 -23 -23 -23 -22 -22 -22 -22 -21 -21 -21 -20 -20 -20 -20 -20 -20 -20 -19 -19 -19 -19 -19 -19 -19
-25 -25 -25 -26 -26 -26 -25 -25 -25 -25 -25 -25 -24 -24 -24 -24 -24 -23 -23 -23 -23 -23 -22 -22 -22 -21 -21 -21 -21 -21 -21 -21 -21 -21 -21 -21 -21 -21
-26 -26 -26 -26 -26 -26 -26 -26 -26 -26 -26 -26 -26 -25 -25 -25 -25 -24 -24 -24 -24 -24 -24 -23 -23 -23 -23 -22 -22 -22 -22 -22 -22 -22 -22 -22 -22 -22
-31 -30 -30 -30 -30 -29 -28 -27 -27 -27 -26 -26 -26 -26 -26 -26 -25 -25 -25 -25 -25 -25 -24 -24 -24 -24 -24 -24 -24 -23 -23 -23 -23 -23 -23 -23 -23 -23

GFSNE_500_temp_132.txt.gz
Temp
-14 -14 -14 -13 -13 -13 -13 -13 -13 -13 -13 -13 -13 -13 -13 -13 -13 -13 -13 -13 -13 -13 -13 -13 -13 -13 -12 -12 -12 -13 -13 -14 -14 -13 -14 -14 -13 -13
-15 -14 -14 -14 -14 -14 -13 -13 -13 -13 -13 -14 -13 -13 -13 -13 -13 -13 -14 -13 -13 -13 -13 -13 -13 -13 -13 -13 -13 -12 -13 -13 -13 -14 -14 -13 -13 -13
-15 -14 -14 -14 -14 -13 -13 -13 -14 -13 -13 -14 -13 -13 -13 -13 -13 -13 -13 -13 -13 -14 -13 -13 -13 -13 -13 -13 -12 -12 -12 -13 -13 -13 -13 -13 -13 -13
-14 -14 -14 -14 -14 -13 -13 -14 -14 -14 -14 -14 -14 -13 -13 -13 -13 -13 -13 -13 -14 -14 -14 -13 -13 -13 -13 -13 -13 -12 -12 -12 -13 -13 -13 -14 -14 -14
-15 -14 -15 -14 -14 -14 -14 -14 -14 -14 -14 -14 -14 -13 -13 -13 -13 -13 -13 -13 -13 -14 -14 -14 -14 -13 -13 -13 -13 -12 -12 -12 -12 -13 -13 -13 -14 -14
-14 -15 -14 -15 -14 -14 -14 -14 -14 -14 -14 -14 -14 -14 -14 -13 -13 -13 -13 -13 -13 -13 -13 -14 -14 -13 -13 -13 -13 -12 -12 -12 -12 -12 -12 -13 -13 -14
-14 -14 -13 -14 -14 -14 -14 -14 -14 -14 -14 -14 -14 -14 -14 -14 -14 -13 -13 -13 -13 -13 -13 -13 -13 -12 -12 -12 -12 -13 -12 -12 -12 -12 -13 -13 -13 -14
-14 -13 -14 -14 -15 -15 -15 -14 -15 -15 -15 -15 -15 -14 -14 -14 -14 -14 -13 -13 -13 -13 -13 -14 -13 -13 -13 -13 -12 -12 -12 -12 -13 -13 -13 -13 -13 -14
-14 -14 -14 -15 -15 -15 -15 -15 -16 -15 -15 -14 -14 -14 -14 -14 -14 -14 -15 -14 -13 -13 -13 -14 -14 -13 -13 -13 -13 -13 -13 -13 -13 -13 -13 -13 -14 -14
-17 -16 -17 -17 -16 -16 -16 -15 -15 -15 -15 -15 -14 -15 -15 -15 -14 -14 -15 -15 -14 -14 -14 -13 -13 -14 -13 -13 -13 -13 -14 -14 -14 -13 -13 -14 -14 -14
-18 -18 -17 -17 -16 -16 -15 -15 -15 -15 -15 -15 -15 -15 -16 -15 -15 -15 -16 -16 -15 -15 -15 -14 -14 -14 -14 -14 -14 -13 -13 -14 -14 -14 -14 -14 -15 -15
-18 -18 -18 -18 -17 -17 -17 -16 -16 -16 -15 -15 -15 -15 -15 -16 -16 -16 -15 -15 -15 -15 -15 -15 -15 -15 -15 -14 -14 -14 -14 -15 -15 -15 -15 -15 -15 -15
-18 -18 -18 -18 -18 -18 -18 -18 -18 -18 -18 -17 -17 -17 -17 -17 -16 -16 -17 -17 -16 -16 -16 -16 -16 -16 -15 -15 -15 -15 -16 -16 -15 -15 -15 -16 -16 -16
-19 -19 -19 -19 -19 -18 -18 -18 -18 -18 -18 -18 -18 -18 -18 -18 -17 -17 -17 -17 -17 -17 -17 -16 -16 -16 -16 -16 -16 -16 -16 -16 -16 -16 -16 -16 -16 -16
-19 -19 -19 -19 -19 -19 -19 -19 -19 -19 -19 -19 -19 -19 -19 -19 -18 -18 -18 -18 -18 -17 -17 -17 -17 -17 -17 -16 -16 -16 -16 -16 -16 -16 -16 -16 -16 -16
-21 -21 -20 -20 -20 -19 -19 -19 -19 -19 -19 -19 -19 -19 -19 -19 -19 -19 -18 -18 -18 -18 -18 -18 -18 -18 -17 -17 -17 -18 -17 -17 -16 -16 -16 -16 -16 -16
-22 -22 -21 -21 -21 -21 -21 -21 -21 -21 -21 -20 -20 -20 -19 -19 -19 -19 -19 -19 -18 -19 -19 -19 -18 -18 -18 -18 -18 -18 -17 -17 -17 -17 -16 -16 -16 -17
-22 -22 -22 -22 -22 -22 -22 -22 -21 -21 -22 -22 -22 -22 -22 -21 -21 -20 -20 -20 -19 -19 -19 -19 -19 -19 -19 -19 -19 -18 -18 -17 -17 -17 -17 -17 -17 -17
-22 -22 -22 -22 -22 -22 -22 -22 -22 -22 -22 -22 -22 -22 -22 -22 -22 -22 -22 -22 -21 -21 -20 -20 -20 -20 -20 -19 -19 -19 -19 -19 -18 -18 -18 -18 -18 -18
-22 -22 -23 -23 -23 -23 -23 -23 -23 -23 -23 -23 -23 -22 -22 -23 -23 -23 -23 -23 -23 -23 -22 -22 -21 -21 -21 -21 -20 -20 -20 -20 -20 -19 -19 -19 -19 -19
-23 -24 -24 -24 -24 -24 -24 -24 -24 -24 -25 -24 -25 -25 -24 -24 -25 -24 -24 -24 -24 -24 -23 -23 -23 -23 -23 -22 -22 -22 -21 -21 -21 -21 -21 -21 -20 -20
-25 -26 -26 -27 -28 -29 -29 -29 -29 -29 -28 -27 -27 -26 -26 -26 -26 -26 -26 -26 -25 -25 -24 -24 -24 -24 -24 -24 -24 -24 -23 -23 -22 -22 -22 -22 -22 -22
-29 -30 -31 -31 -31 -32 -32 -32 -32 -32 -32 -31 -31 -30 -30 -29 -28 -27 -27 -26 -26 -26 -26 -25 -25 -25 -25 -25 -25 -25 -24 -24 -24 -24 -23 -23 -23 -23